[[{"header":{"parameterUnit":"m.s-1","parameterCategory":1,"la1":30.6,"la2":29.2853,"lo1":-89.7004,"lo2":-87.6739,"dy":0.0162,"dx":0.0183,"nx":112,"ny":82,"refTime":"2023-05-04T12:00:00:Z","depth":0,"parameterNumber":2,"parameterNumberName":"U-component_of_WINDS"},"data":[0.0,0.0,0.0,0.0,0.0,0.0,0.0,0.0,0.0,0.0,0.0,0.0,0.0,0.0,0.0,0.0,0.0,0.0,0.0,0.0,0.0,0.0,0.0,0.0,0.0,0.0,0.0,0.0,0.0,0.0,0.0,0.0,0.0,0.0,0.0,0.0,0.0,0.0,0.0,0.0,0.0,0.0,0.0,0.0,0.0,0.0,0.0,0.0,0.0,0.0,0.0,0.0,0.0,0.0,0.0,0.0,0.0,0.0,0.0,0.0,0.0,0.0,0.0,0.0,0.0,0.0,0.0,0.0,0.0,0.0,0.0,0.0,0.0,0.0,0.0,0.0,0.0,0.0,0.0,0.0,0.0,0.0,0.0,0.0,0.0,0.0,0.0,0.0,0.0,0.0,0.0,-2.3108,-2.3108,-2.3108,-2.3108,-2.3108,-2.3108,-2.3108,0.0,0.0,0.0,0.0,0.0,0.0,0.0,0.0,0.0,0.0,0.0,0.0,0.0,0.0,0.0,0.0,0.0,0.0,0.0,0.0,0.0,0.0,0.0,0.0,0.0,0.0,0.0,0.0,0.0,0.0,0.0,0.0,0.0,0.0,0.0,0.0,0.0,0.0,0.0,0.0,0.0,0.0,0.0,0.0,0.0,0.0,0.0,0.0,0.0,0.0,0.0,0.0,0.0,0.0,0.0,0.0,0.0,0.0,0.0,0.0,0.0,0.0,0.0,0.0,0.0,0.0,0.0,0.0,0.0,0.0,0.0,0.0,0.0,0.0,0.0,0.0,0.0,0.0,0.0,0.0,0.0,0.0,0.0,0.0,0.0,0.0,0.0,0.0,0.0,0.0,0.0,0.0,0.0,0.0,0.0,0.0,0.0,0.0,0.0,0.0,0.0,0.0,0.0,0.0,-2.3108,-2.3108,-2.3108,-2.3108,-2.3108,-2.3108,-2.3108,-2.3108,0.0,0.0,0.0,0.0,0.0,0.0,0.0,0.0,0.0,0.0,0.0,0.0,0.0,0.0,0.0,0.0,0.0,0.0,0.0,0.0,0.0,0.0,0.0,0.0,0.0,0.0,0.0,0.0,0.0,0.0,0.0,0.0,0.0,0.0,0.0,0.0,0.0,0.0,0.0,0.0,0.0,0.0,0.0,0.0,0.0,0.0,0.0,0.0,0.0,0.0,0.0,0.0,0.0,0.0,0.0,0.0,0.0,0.0,0.0,0.0,0.0,0.0,0.0,0.0,0.0,0.0,0.0,0.0,0.0,0.0,0.0,0.0,0.0,0.0,0.0,0.0,0.0,0.0,0.0,0.0,0.0,0.0,0.0,0.0,0.0,0.0,0.0,0.0,0.0,0.0,0.0,0.0,0.0,0.0,0.0,0.0,0.0,0.0,0.0,0.0,0.0,0.0,0.0,-2.3108,-2.3108,-2.3108,-2.3108,-2.3108,-2.3108,-2.3108,-2.3108,-2.3108,-2.3108,0.0,0.0,0.0,0.0,0.0,0.0,0.0,0.0,0.0,0.0,0.0,0.0,0.0,0.0,0.0,0.0,0.0,0.0,0.0,0.0,0.0,0.0,0.0,0.0,0.0,0.0,0.0,0.0,0.0,0.0,0.0,0.0,0.0,0.0,0.0,0.0,0.0,0.0,0.0,0.0,0.0,0.0,0.0,0.0,0.0,0.0,0.0,0.0,0.0,0.0,0.0,0.0,0.0,0.0,0.0,0.0,0.0,0.0,0.0,0.0,0.0,0.0,0.0,0.0,0.0,0.0,0.0,0.0,0.0,0.0,0.0,0.0,0.0,0.0,0.0,0.0,0.0,0.0,0.0,0.0,0.0,0.0,0.0,0.0,0.0,0.0,0.0,0.0,0.0,0.0,0.0,0.0,0.0,0.0,0.0,0.0,0.0,0.0,0.0,0.0,0.0,0.0,-2.3108,-2.3108,-2.3108,-2.3108,-2.3108,-2.3108,-2.3108,-2.3108,-2.3108,-2.3108,0.0,0.0,0.0,0.0,0.0,0.0,0.0,0.0,0.0,0.0,0.0,0.0,0.0,0.0,0.0,0.0,0.0,0.0,0.0,0.0,0.0,0.0,0.0,0.0,0.0,0.0,0.0,0.0,0.0,0.0,0.0,0.0,0.0,0.0,0.0,0.0,0.0,0.0,0.0,0.0,0.0,0.0,0.0,0.0,0.0,0.0,0.0,0.0,0.0,0.0,0.0,0.0,0.0,0.0,0.0,0.0,0.0,0.0,0.0,0.0,0.0,0.0,0.0,0.0,0.0,0.0,0.0,0.0,0.0,0.0,0.0,0.0,0.0,0.0,0.0,0.0,0.0,0.0,0.0,0.0,0.0,0.0,0.0,0.0,0.0,0.0,0.0,0.0,0.0,0.0,0.0,0.0,0.0,0.0,0.0,0.0,0.0,0.0,0.0,0.0,0.0,0.0,-2.3108,-2.3108,-2.3108,-2.3108,-2.3108,-2.3108,-2.3108,-2.3108,-2.3108,-2.3108,0.0,0.0,0.0,0.0,0.0,0.0,0.0,0.0,0.0,0.0,0.0,0.0,0.0,0.0,0.0,0.0,0.0,0.0,0.0,0.0,0.0,0.0,0.0,0.0,0.0,0.0,0.0,0.0,0.0,0.0,0.0,0.0,0.0,0.0,0.0,0.0,0.0,0.0,0.0,0.0,0.0,0.0,0.0,0.0,0.0,0.0,0.0,0.0,0.0,0.0,0.0,0.0,0.0,0.0,0.0,0.0,0.0,0.0,0.0,0.0,0.0,0.0,0.0,0.0,0.0,0.0,0.0,0.0,0.0,0.0,0.0,0.0,0.0,0.0,0.0,0.0,0.0,0.0,0.0,0.0,0.0,0.0,0.0,0.0,0.0,0.0,0.0,0.0,0.0,0.0,0.0,0.0,0.0,0.0,0.0,0.0,0.0,0.0,0.0,0.0,0.0,0.0,-2.3108,-2.3108,0.0,-2.3108,-2.3108,-2.3108,-2.3108,-2.3108,-2.3108,0.0,0.0,0.0,0.0,0.0,0.0,0.0,0.0,0.0,0.0,0.0,0.0,0.0,0.0,0.0,0.0,0.0,0.0,0.0,0.0,0.0,0.0,0.0,0.0,0.0,0.0,0.0,0.0,0.0,0.0,0.0,0.0,0.0,0.0,0.0,0.0,0.0,0.0,0.0,0.0,0.0,0.0,0.0,0.0,0.0,0.0,0.0,0.0,0.0,0.0,0.0,0.0,0.0,0.0,0.0,0.0,0.0,0.0,0.0,0.0,0.0,0.0,0.0,0.0,0.0,0.0,0.0,0.0,0.0,0.0,0.0,0.0,0.0,0.0,0.0,0.0,0.0,0.0,0.0,0.0,0.0,0.0,0.0,0.0,0.0,0.0,0.0,0.0,0.0,0.0,0.0,0.0,0.0,0.0,0.0,0.0,0.0,0.0,0.0,0.0,0.0,0.0,-2.3108,-2.3108,-2.3108,0.0,-2.3108,-2.3108,-2.3108,-2.3108,-2.3108,-2.3108,0.0,0.0,0.0,0.0,0.0,0.0,0.0,0.0,0.0,0.0,0.0,0.0,0.0,0.0,0.0,0.0,0.0,0.0,0.0,0.0,0.0,0.0,0.0,0.0,0.0,0.0,0.0,0.0,0.0,0.0,0.0,0.0,0.0,0.0,0.0,0.0,0.0,0.0,0.0,0.0,0.0,0.0,0.0,0.0,0.0,0.0,0.0,0.0,0.0,0.0,0.0,0.0,0.0,0.0,0.0,0.0,0.0,0.0,0.0,0.0,0.0,0.0,0.0,0.0,0.0,0.0,0.0,0.0,0.0,0.0,0.0,0.0,0.0,0.0,0.0,0.0,0.0,0.0,0.0,0.0,0.0,0.0,0.0,0.0,0.0,0.0,0.0,0.0,0.0,0.0,0.0,0.0,0.0,0.0,0.0,0.0,0.0,0.0,0.0,0.0,0.0,0.0,-2.3108,-2.3108,-2.3108,-2.3108,-2.3108,-2.3108,-2.3108,-2.3108,-2.3108,0.0,0.0,0.0,0.0,0.0,0.0,0.0,0.0,0.0,0.0,0.0,0.0,0.0,0.0,0.0,0.0,0.0,0.0,0.0,0.0,0.0,0.0,0.0,0.0,0.0,0.0,0.0,0.0,0.0,0.0,0.0,0.0,0.0,0.0,0.0,0.0,0.0,0.0,0.0,0.0,0.0,0.0,0.0,0.0,0.0,0.0,0.0,0.0,0.0,0.0,0.0,0.0,0.0,0.0,0.0,0.0,0.0,0.0,0.0,0.0,0.0,0.0,0.0,0.0,0.0,0.0,0.0,0.0,0.0,0.0,0.0,0.0,0.0,0.0,0.0,0.0,0.0,0.0,0.0,0.0,0.0,0.0,0.0,0.0,0.0,0.0,0.0,0.0,0.0,0.0,0.0,0.0,0.0,0.0,0.0,0.0,0.0,0.0,0.0,0.0,0.0,0.0,0.0,-2.374,-2.3358,-2.3108,-2.3108,-2.3108,-2.3108,-2.3108,-2.3108,-2.3108,-2.3108,0.0,0.0,0.0,0.0,0.0,0.0,0.0,0.0,0.0,0.0,0.0,0.0,0.0,0.0,0.0,0.0,0.0,0.0,0.0,0.0,0.0,0.0,0.0,0.0,0.0,0.0,0.0,0.0,0.0,0.0,0.0,0.0,0.0,0.0,0.0,0.0,0.0,0.0,0.0,0.0,0.0,0.0,0.0,0.0,0.0,0.0,0.0,0.0,0.0,0.0,0.0,0.0,0.0,0.0,0.0,0.0,0.0,0.0,0.0,0.0,0.0,0.0,0.0,0.0,0.0,0.0,0.0,0.0,0.0,0.0,0.0,0.0,0.0,0.0,0.0,0.0,0.0,0.0,0.0,0.0,0.0,0.0,0.0,0.0,0.0,0.0,0.0,0.0,0.0,0.0,0.0,0.0,0.0,0.0,0.0,0.0,0.0,0.0,0.0,0.0,0.0,0.0,-2.4004,-2.3459,-2.3108,-2.3108,-2.3108,-2.3108,-2.3108,-2.3108,-2.3108,-2.3108,0.0,0.0,0.0,0.0,0.0,0.0,0.0,0.0,0.0,0.0,0.0,0.0,0.0,0.0,0.0,0.0,0.0,0.0,0.0,0.0,0.0,0.0,0.0,0.0,0.0,0.0,0.0,0.0,0.0,0.0,0.0,0.0,0.0,0.0,0.0,0.0,0.0,0.0,0.0,0.0,0.0,0.0,0.0,0.0,0.0,0.0,0.0,0.0,0.0,0.0,0.0,0.0,0.0,0.0,0.0,0.0,0.0,0.0,0.0,0.0,0.0,0.0,0.0,0.0,0.0,0.0,0.0,0.0,0.0,0.0,0.0,0.0,0.0,0.0,0.0,0.0,0.0,0.0,0.0,0.0,0.0,0.0,0.0,0.0,0.0,0.0,0.0,0.0,0.0,0.0,0.0,0.0,0.0,0.0,0.0,0.0,0.0,0.0,0.0,0.0,0.0,0.0,-2.4155,-2.3622,-2.3258,-2.3258,-2.3208,-2.3183,-2.3183,-2.3133,-2.3108,-2.3108,0.0,0.0,0.0,0.0,0.0,0.0,0.0,0.0,0.0,0.0,0.0,0.0,0.0,0.0,0.0,0.0,0.0,0.0,0.0,0.0,0.0,0.0,0.0,0.0,0.0,0.0,0.0,0.0,0.0,0.0,0.0,0.0,0.0,0.0,0.0,0.0,0.0,0.0,0.0,0.0,0.0,0.0,0.0,0.0,0.0,0.0,0.0,0.0,0.0,0.0,0.0,0.0,0.0,0.0,0.0,0.0,0.0,0.0,0.0,0.0,-2.6938,0.0,0.0,0.0,0.0,0.0,0.0,0.0,0.0,0.0,0.0,0.0,0.0,0.0,0.0,0.0,0.0,0.0,0.0,0.0,0.0,0.0,0.0,0.0,0.0,0.0,0.0,0.0,0.0,0.0,0.0,0.0,0.0,0.0,0.0,0.0,0.0,0.0,0.0,0.0,0.0,0.0,-2.5247,-2.4795,-2.4424,-2.4424,-2.4067,-2.3816,-2.3816,-2.3358,-2.3108,-2.3108,0.0,0.0,0.0,0.0,0.0,0.0,0.0,0.0,0.0,0.0,0.0,0.0,0.0,0.0,0.0,0.0,0.0,0.0,0.0,0.0,0.0,0.0,0.0,0.0,0.0,0.0,0.0,0.0,0.0,0.0,0.0,0.0,0.0,0.0,0.0,0.0,0.0,0.0,0.0,0.0,0.0,0.0,0.0,0.0,0.0,0.0,0.0,0.0,0.0,0.0,0.0,0.0,0.0,0.0,0.0,0.0,0.0,0.0,0.0,0.0,0.0,-2.6733,0.0,0.0,0.0,0.0,0.0,0.0,0.0,0.0,0.0,0.0,0.0,0.0,0.0,0.0,0.0,0.0,0.0,0.0,0.0,0.0,0.0,0.0,0.0,0.0,0.0,0.0,0.0,0.0,0.0,0.0,0.0,0.0,0.0,0.0,0.0,0.0,0.0,0.0,0.0,0.0,-2.5598,-2.5146,-2.4788,-2.4788,-2.4537,-2.4393,-2.4393,-2.3847,-2.3521,-2.3521,-2.3258,0.0,0.0,0.0,0.0,0.0,0.0,0.0,0.0,0.0,0.0,0.0,0.0,0.0,0.0,0.0,0.0,0.0,0.0,0.0,0.0,0.0,0.0,0.0,0.0,0.0,0.0,0.0,0.0,0.0,0.0,0.0,0.0,0.0,0.0,0.0,0.0,0.0,0.0,0.0,0.0,0.0,0.0,0.0,0.0,0.0,0.0,0.0,0.0,0.0,0.0,0.0,0.0,0.0,0.0,0.0,-2.5007,-2.5007,-2.5007,-2.5007,-2.5007,-2.5508,-2.631,0.0,0.0,0.0,0.0,0.0,0.0,0.0,0.0,0.0,0.0,0.0,0.0,0.0,0.0,0.0,0.0,0.0,0.0,0.0,0.0,0.0,0.0,0.0,0.0,0.0,-2.3108,-2.3108,0.0,0.0,0.0,0.0,0.0,0.0,0.0,0.0,0.0,0.0,0.0,0.0,-2.5749,-2.5372,-2.5109,-2.5109,-2.4988,-2.4926,-2.4926,-2.4456,-2.4104,-2.4004,-2.3521,-2.3208,0.0,0.0,0.0,0.0,0.0,0.0,0.0,0.0,0.0,0.0,0.0,0.0,0.0,0.0,0.0,0.0,0.0,0.0,0.0,0.0,0.0,0.0,0.0,0.0,0.0,0.0,0.0,0.0,0.0,0.0,0.0,0.0,-2.7375,-2.7465,0.0,0.0,0.0,0.0,0.0,0.0,0.0,0.0,0.0,0.0,0.0,0.0,0.0,0.0,-2.651,-2.7229,-2.6916,-2.5536,-2.5536,-2.4809,-2.3382,-2.3382,-2.3382,-2.3382,-2.3382,0.0,-2.5536,-2.5536,0.0,0.0,0.0,0.0,0.0,0.0,0.0,0.0,0.0,0.0,0.0,0.0,0.0,0.0,0.0,0.0,0.0,0.0,0.0,0.0,0.0,0.0,-2.3108,-2.3108,-2.3108,-2.3108,0.0,-2.3108,-2.3133,-2.3195,0.0,0.0,0.0,0.0,0.0,0.0,0.0,0.0,-2.6386,-2.6323,-2.6285,-2.6285,-2.5799,-2.5485,-2.5485,-2.5008,-2.4506,-2.4029,-2.3929,-2.3665,-2.312,-2.3108,0.0,0.0,0.0,0.0,0.0,0.0,0.0,0.0,0.0,0.0,0.0,0.0,0.0,0.0,0.0,0.0,0.0,0.0,0.0,0.0,0.0,0.0,0.0,0.0,0.0,0.0,0.0,0.0,0.0,-2.7737,-2.76,-2.76,-2.76,-2.76,0.0,0.0,0.0,0.0,0.0,0.0,0.0,0.0,0.0,-2.5906,-2.668,-2.6707,-2.5892,-2.7416,-2.7645,-2.6592,-2.6482,-2.5824,-2.4771,-2.4285,-2.4048,-2.4048,-2.4048,-2.4262,-2.4606,-2.4729,-2.5231,-2.5864,0.0,0.0,0.0,0.0,0.0,-2.5837,-2.5508,0.0,0.0,0.0,0.0,0.0,0.0,0.0,0.0,0.0,0.0,0.0,0.0,0.0,0.0,-2.3108,-2.3108,-2.3195,-2.3521,-2.3615,-2.3672,0.0,-2.4687,-2.536,-2.5686,0.0,0.0,0.0,0.0,0.0,-2.6499,-2.6499,-2.6499,-2.6499,-2.6273,-2.6122,-2.6122,-2.5573,-2.5034,-2.4494,-2.4167,-2.374,-2.3133,-2.3108,-2.3108,0.0,0.0,0.0,0.0,0.0,0.0,0.0,0.0,0.0,0.0,0.0,0.0,0.0,0.0,0.0,0.0,0.0,0.0,0.0,0.0,0.0,0.0,0.0,0.0,0.0,0.0,0.0,0.0,-2.76,-2.76,-2.76,-2.76,-2.76,0.0,0.0,0.0,0.0,0.0,0.0,-2.7854,-2.7491,-2.6932,-2.6176,-2.7037,-2.6957,-2.5854,-2.7419,-2.7939,-2.7426,-2.7045,-2.6607,-2.6069,-2.5211,-2.4788,-2.4788,-2.4788,-2.4562,-2.4199,-2.4215,-2.4598,-2.5119,-2.5119,-2.5231,0.0,-2.5398,-2.5398,-2.5398,-2.5398,-2.5398,-2.5508,-2.6256,0.0,-2.6878,-2.7433,0.0,0.0,0.0,0.0,-2.4118,-2.3305,0.0,-2.3145,-2.3296,-2.3333,-2.3484,-2.4092,-2.4318,-2.4494,0.0,-2.5247,-2.5737,-2.6197,0.0,0.0,0.0,0.0,-2.6499,-2.6499,-2.6499,-2.6499,-2.6499,-2.6499,-2.6499,-2.6499,-2.6097,-2.5536,-2.4825,-2.4443,-2.386,-2.3133,-2.3108,-2.3108,-2.3108,0.0,0.0,0.0,0.0,0.0,0.0,0.0,0.0,0.0,0.0,0.0,0.0,0.0,0.0,0.0,0.0,0.0,0.0,0.0,0.0,0.0,0.0,0.0,0.0,0.0,0.0,0.0,0.0,0.0,-2.76,-2.76,0.0,0.0,0.0,0.0,-2.76,-2.6956,-2.7129,-2.8491,-2.7224,-2.7018,-2.8196,-2.7594,-2.7199,-2.711,-2.7081,-2.7124,-2.7211,-2.6384,-2.6012,-2.6069,-2.5211,-2.4788,-2.4788,-2.4788,-2.4775,-2.4732,-2.4211,-2.4163,-2.435,-2.435,-2.4794,-2.5398,-2.5398,-2.5398,-2.5398,-2.5398,-2.5398,-2.5508,-2.6256,-2.6982,-2.7534,-2.76,-2.7086,0.0,0.0,-2.4879,-2.4118,-2.3305,-2.3108,-2.3246,-2.3828,-2.3954,-2.4104,-2.4625,-2.5172,-2.5372,0.0,-2.5247,-2.5598,-2.5636,0.0,-2.6499,-2.6499,-2.6499,-2.6499,-2.6499,-2.6499,-2.6499,-2.6499,-2.6499,-2.6499,-2.6499,-2.6461,-2.5996,-2.4863,-2.4763,-2.4249,-2.3145,-2.3108,-2.3108,-2.3108,-2.3108,0.0,0.0,0.0,0.0,0.0,0.0,0.0,0.0,0.0,0.0,0.0,0.0,0.0,0.0,0.0,0.0,0.0,0.0,0.0,0.0,0.0,0.0,0.0,0.0,0.0,0.0,0.0,0.0,-2.76,-2.76,0.0,0.0,-2.8004,-2.8233,-2.8233,-2.8396,-2.8454,-2.84,-2.8442,-2.8208,-2.765,-2.8354,-2.824,-2.7193,-2.8057,-2.8224,-2.7726,-2.7269,-2.707,-2.7097,-2.6284,-2.5908,-2.5908,-2.5908,-2.5661,-2.531,-2.5109,-2.4867,-2.4612,-2.4612,-2.4785,-2.5018,-2.5018,-2.5018,-2.5027,-2.5143,-2.552,-2.605,-2.6931,-2.7382,-2.76,-2.76,-2.7086,-2.6336,-2.5618,-2.4879,-2.421,-2.3804,-2.369,-2.3828,-2.4393,-2.4519,-2.4669,-2.5209,-2.5473,-2.5649,-2.5871,-2.6059,-2.6185,-2.6185,-2.6361,-2.6499,-2.6499,-2.6499,-2.6499,-2.6499,-2.6499,-2.6499,-2.6499,-2.6499,-2.6499,-2.6499,-2.6499,-2.6021,-2.4863,-2.4788,-2.4286,-2.3158,-2.3108,-2.3108,-2.3108,-2.3108,-2.3108,0.0,0.0,0.0,0.0,0.0,0.0,0.0,0.0,0.0,0.0,0.0,0.0,0.0,0.0,0.0,0.0,0.0,0.0,0.0,0.0,0.0,0.0,0.0,0.0,0.0,0.0,-2.76,-2.76,-2.7809,-2.7944,-2.7944,-2.8532,-2.8936,-2.8936,-2.9094,-2.9144,-2.9041,-2.9351,-2.9271,-2.868,-2.9419,-2.9175,-2.7801,-2.8446,-2.847,-2.7877,-2.7486,-2.7451,-2.767,-2.6871,-2.6499,-2.6499,-2.6499,-2.6273,-2.5887,-2.5887,-2.5686,-2.5335,-2.4938,-2.4788,-2.4885,-2.5421,-2.5597,-2.572,-2.6385,-2.6959,-2.7454,-2.808,-2.8274,-2.8274,-2.8274,-2.7733,-2.7034,-2.6552,-2.5692,-2.4876,-2.4733,-2.4475,-2.4418,-2.4958,-2.5084,-2.5234,-2.5774,-2.5887,-2.6034,-2.6411,-2.6499,-2.6499,-2.6499,-2.6499,-2.6499,-2.6499,-2.6499,-2.6499,-2.6499,-2.6499,-2.6499,-2.6499,-2.6499,-2.6499,-2.6499,-2.6499,-2.6021,-2.4863,-2.4788,-2.4286,-2.3158,-2.3108,-2.3195,-2.3396,-2.3396,-2.3174,-2.2702,0.0,0.0,0.0,0.0,0.0,0.0,0.0,0.0,0.0,0.0,0.0,0.0,0.0,0.0,0.0,0.0,0.0,0.0,0.0,0.0,0.0,0.0,0.0,-2.76,-2.7615,-2.763,-2.763,-2.8203,-2.8622,-2.8622,-2.922,-2.9636,-2.9636,-2.8931,-2.9083,-3.038,-2.9826,-3.0075,-3.1394,-3.0673,-2.9889,-2.9093,-2.8208,-2.7776,-2.7756,-2.6969,-2.7003,-2.7703,-2.6901,-2.6537,-2.6546,-2.6559,-2.6546,-2.6589,-2.6555,-2.6555,-2.6488,-2.5317,-2.4903,-2.5083,-2.6661,-2.7248,-2.7471,-2.9044,-2.9567,-2.9579,-2.9579,-2.9606,-2.9606,-2.9606,-2.9055,-2.8424,-2.8424,-2.7313,-2.6162,-2.6127,-2.551,-2.5003,-2.5531,-2.569,-2.5841,-2.6408,-2.6521,-2.6521,-2.6499,-2.6499,-2.6499,-2.6499,-2.6499,-2.6499,-2.6499,-2.6499,0.0,-2.6499,-2.6499,-2.6499,-2.6499,-2.6499,-2.6499,-2.6499,-2.6499,-2.6021,-2.4863,-2.4788,-2.4286,-2.3158,-2.3108,-2.3371,-2.3966,-2.3966,-2.3306,-2.1939,0.0,0.0,0.0,0.0,0.0,0.0,0.0,0.0,0.0,0.0,0.0,0.0,0.0,0.0,0.0,0.0,0.0,0.0,0.0,0.0,0.0,0.0,-2.8169,-2.766,-2.8034,-2.8323,-2.8323,-2.8906,-2.9337,-2.9337,-2.9879,-3.0253,-3.0253,-3.0489,-3.028,-2.9452,-3.0367,-3.0558,-2.9721,-3.0072,-3.0409,-3.0577,-2.9767,-2.926,-2.9011,-2.8782,-2.8424,-2.799,-2.7752,-2.7748,-2.7902,-2.7345,-2.7537,-2.8279,-2.7637,-2.7736,-2.8206,-2.7262,-2.6882,-2.7046,-2.8098,-2.826,-2.8068,-2.903,-2.9114,-2.8832,-2.9414,-2.9606,-2.9606,-2.9606,-2.9456,-2.9138,-2.8551,-2.8097,-2.7601,-2.6854,-2.6514,-2.6446,-2.7006,-2.7137,-2.7155,-2.7311,-2.7384,-2.7196,-2.6624,-2.6499,-2.6499,-2.6499,-2.6499,-2.6499,-2.6499,0.0,0.0,-2.6499,-2.6499,-2.6499,-2.6499,-2.6499,-2.6499,-2.6499,-2.6499,-2.6021,0.0,-2.4788,-2.4286,-2.3158,-2.3108,-2.3183,-2.3333,-2.3346,-2.3167,0.0,0.0,0.0,0.0,0.0,0.0,0.0,0.0,0.0,0.0,0.0,0.0,0.0,0.0,0.0,0.0,0.0,0.0,0.0,0.0,0.0,0.0,-2.8338,-2.8562,-2.8453,-2.8783,-2.9011,-2.9011,-2.9579,-2.9968,-2.9968,-3.0552,-3.0913,-3.0913,-3.1271,-3.1205,-3.0506,-3.1397,-3.1589,-3.0922,-3.1384,-3.1636,-3.1628,-3.0764,-3.0051,-2.9486,-2.909,-2.8651,-2.8109,-2.8109,-2.8198,0.0,-2.7858,-2.8007,-2.8584,-2.8066,-2.8236,0.0,0.0,0.0,0.0,0.0,-2.9248,-2.9632,-3.0061,-2.9987,-2.9794,-3.0233,-3.0402,-3.0402,-3.0402,-3.0402,-3.0304,-2.9822,-2.945,-2.9056,-2.8474,-2.8039,-2.7848,-2.8153,-2.8247,-2.8247,-2.8247,-2.7953,-2.7571,-2.7095,0.0,0.0,-2.6499,-2.6499,-2.6499,-2.6499,-2.6499,-2.6499,0.0,-2.6499,-2.6499,-2.6499,-2.6499,-2.6499,-2.6499,-2.6273,0.0,0.0,0.0,-2.4048,-2.3145,-2.3333,0.0,0.0,0.0,-2.2634,0.0,0.0,0.0,0.0,-1.8236,-1.8008,0.0,0.0,0.0,0.0,0.0,0.0,0.0,0.0,0.0,0.0,0.0,0.0,0.0,0.0,0.0,0.0,-2.8771,-2.9026,-2.9636,-2.9786,-2.9774,-2.9726,-3.0238,-3.0612,-3.0612,-3.1152,-3.154,-3.1615,-3.1615,-3.187,-3.2422,0.0,0.0,0.0,0.0,-3.3066,-3.2463,-3.1542,-3.0665,-2.9861,-2.9011,-2.8492,-2.8298,-2.8298,-2.8297,-2.8331,-2.8234,-2.833,-2.8543,-2.8448,-2.8672,-2.9074,-2.9123,-2.8716,-2.8214,-2.9002,-3.0238,0.0,0.0,0.0,0.0,-3.1511,-3.1511,-3.1511,-3.1511,-3.1511,-3.1511,-3.1511,-3.0999,-3.0419,-3.0329,-2.9721,-2.916,-2.916,-2.916,-2.916,-2.916,-2.8524,-2.7953,-2.7736,-2.7196,-2.6748,-2.6658,-2.6555,-2.6499,-2.6499,-2.6499,0.0,-2.6499,-2.6499,-2.6499,-2.6499,0.0,0.0,-2.6499,-2.5971,-2.5372,-2.4825,-2.4243,-2.3665,-2.312,-2.3597,-2.3665,-2.3108,-2.2877,-2.2074,-2.0751,-1.9879,-1.9011,-1.8134,-1.8042,-1.8008,0.0,0.0,0.0,0.0,0.0,0.0,0.0,0.0,0.0,0.0,0.0,0.0,0.0,0.0,0.0,-2.928,-2.9804,-3.0178,-3.0313,-3.0806,-3.0913,-3.0387,-3.0898,-3.1316,-3.1316,-3.1421,-3.172,-3.2258,-3.2303,-3.2287,-3.2271,-3.2938,0.0,-3.2474,-3.2443,-3.2974,-3.4042,-3.318,-3.2498,-3.2014,0.0,0.0,-2.9465,-2.9465,-2.9592,-2.9731,-2.9048,-2.9709,-3.1264,-3.0562,-3.1161,-3.2372,-3.0715,-3.0329,-3.0807,-3.097,-3.1219,-3.1511,-3.1511,-3.1511,-3.1511,-3.1511,-3.1511,-3.1511,-3.1511,-3.1511,0.0,-3.1511,-3.138,-3.1117,-3.0464,-3.0178,-3.0042,-3.0042,-3.0042,-3.0042,-3.0042,-2.9919,-2.938,-2.7953,-2.8149,-2.8298,-2.7571,-2.6939,-2.6499,-2.6499,-2.6499,-2.6499,-2.6499,-2.6499,-2.6499,-2.6499,-2.6499,-2.6499,-2.6499,-2.5971,-2.5372,-2.4825,-2.3835,-2.3221,-2.3108,-2.3208,-2.3221,-2.3108,-2.3056,-2.2573,-2.1659,-2.0782,-1.9911,-1.9044,-1.8337,-1.8008,0.0,0.0,0.0,0.0,0.0,0.0,0.0,0.0,0.0,0.0,0.0,-2.8188,0.0,0.0,-2.931,-2.9939,-3.0298,-3.0627,-3.0943,-3.1286,-3.1376,-3.1032,-3.1301,-3.163,-3.1959,-3.1989,-3.2273,-3.2961,-3.3006,-3.3092,-3.3338,-3.3745,-3.394,-3.3868,-3.3836,-3.4206,-3.4981,-3.4061,-3.3493,-3.3276,-3.282,-3.2105,-3.1206,-3.1206,-3.1279,-3.1384,-3.0963,-3.1351,-3.2331,-3.2069,-3.2467,-3.3199,-3.2278,-3.196,-3.1959,-3.1515,-3.1412,-3.1511,-3.1511,-3.1511,-3.1511,-3.1511,-3.1511,-3.1511,-3.1511,-3.1511,-3.1511,-3.1511,-3.1511,-3.1409,-3.0999,-3.0896,-3.0896,-3.0896,-3.0896,-3.0896,-3.0896,-3.0584,-3.0042,-2.916,-2.9002,-2.8876,-2.8427,-2.8019,-2.7604,-2.7162,-2.7095,-2.6973,-2.6555,-2.6499,-2.6499,-2.6499,-2.6499,-2.6373,-2.6084,-2.5272,-2.4569,-2.3985,-2.3409,-2.3108,-2.3108,-2.3108,-2.3108,-2.3108,-2.2702,-2.2292,-2.1908,-2.1049,-2.0365,-1.9944,-1.9044,-1.8428,0.0,0.0,0.0,0.0,0.0,0.0,0.0,0.0,-2.8388,-2.7881,-2.8334,-2.8831,-2.8951,-2.94,-2.9968,-3.0597,-3.0702,-3.0896,-3.1421,-3.1511,-3.1555,-3.1675,-3.169,-3.1914,-3.2437,-3.2632,-3.2976,-3.3634,-3.3679,-3.3978,-3.4668,-3.4698,-3.4996,-3.5669,-3.5699,-3.5759,-3.5878,-3.5058,-3.4573,-3.4387,-3.3628,-3.3112,-3.2773,-3.2773,-3.2704,-3.2593,-3.2784,-3.289,-3.2919,-3.3374,-3.3568,-3.3576,-3.3801,-3.3484,-3.2781,-3.1964,-3.1764,-3.1869,-3.1735,-3.169,-3.1675,-3.154,-3.1511,-3.1511,-3.1511,-3.1511,-3.1511,-3.1511,-3.1511,-3.1511,-3.1511,-3.1511,-3.1511,-3.1511,-3.1511,-3.1511,-3.1511,-3.0999,-3.0494,-3.0329,-2.9858,-2.9442,-2.9286,-2.938,-2.9129,-2.8117,-2.7802,-2.7484,-2.6816,-2.6589,-2.6499,-2.6499,-2.6499,-2.6223,-2.5498,-2.4657,-2.3866,-2.3145,-2.3108,-2.3108,-2.3108,-2.3108,-2.3108,-2.3108,-2.2445,-2.2063,-2.1908,-2.1207,-2.0751,-2.059,-1.9879,-1.9077,-2.8709,-2.8271,-2.776,-2.7635,-2.7635,-2.7685,0.0,0.0,-2.8565,-2.8513,-2.9011,-2.9639,-3.0193,-3.0357,-3.0627,-3.1271,-3.1391,-3.1406,-3.1496,-3.1511,-3.172,-3.2303,-3.2378,-3.2437,-3.2497,-3.3036,-3.3664,-3.4354,-3.4399,-3.4666,-3.5355,-3.5385,-3.5699,-3.6357,-3.6372,-3.6641,-3.7195,-3.7078,-3.6586,-3.5769,-3.5662,-3.4881,-3.3467,-3.3467,-3.3176,-3.2629,-3.3484,-3.3842,-3.391,-3.4846,-3.5222,-3.524,-3.5277,-3.4861,-3.4188,-3.3497,-3.3274,-3.3185,-3.2572,-3.2378,-3.2273,-3.169,-3.1511,-3.1511,-3.1511,-3.1511,-3.1511,-3.1511,-3.1511,-3.1511,-3.1511,-3.1511,-3.1511,-3.1511,-3.1511,-3.1511,-3.1511,-3.1438,-3.1161,-3.0419,-3.0807,-3.0999,-3.0269,-3.0748,-3.0673,-2.9097,-2.8214,-2.767,-2.7571,-2.6939,-2.6499,-2.6499,-2.6499,-2.6072,-2.4996,-2.4763,-2.4249,-2.317,-2.3108,-2.3108,-2.3108,-2.3108,-2.3108,-2.3108,-2.3017,-2.2598,-2.1908,-2.1815,-2.1365,-2.059,-2.0494,-1.9977,-2.8685,-2.8334,0.0,0.0,-2.845,-2.8703,-2.8756,-2.9251,-2.9605,-2.924,-2.9669,-3.0193,-3.0447,-3.0808,-3.1167,0.0,-3.1511,-3.1511,-3.1511,-3.1839,-3.2183,-3.2482,-3.3185,-3.3649,-3.3649,-3.3934,-3.4337,-3.5026,-3.507,-3.537,-3.6043,-3.6073,-3.6372,-3.7,-3.703,-3.715,-3.7404,-3.7404,-3.7183,-3.6807,-3.6807,-3.647,-3.5807,-3.5807,-3.5473,-3.4893,-3.5282,-3.5226,-3.4905,-3.5326,-3.5504,-3.5504,-3.5504,-3.5325,-3.4996,-3.4322,-3.3829,-3.3455,-3.3185,-3.308,-3.3036,-3.2766,-3.2392,-3.2079,-3.2079,-3.1809,-3.1511,-3.1511,-3.1511,-3.1511,-3.1511,-3.1511,-3.1511,-3.1511,-3.1511,-3.1511,-3.1511,-3.1511,-3.1409,-3.1058,-3.1278,-3.138,-3.1058,-3.1278,-3.1248,-3.0554,-2.9766,-2.8844,-2.7835,-2.7417,-2.704,-2.6555,-2.6197,-2.5774,-2.531,-2.4996,-2.4449,-2.369,-2.364,-2.3459,-2.312,-2.3108,-2.3108,-2.3108,-2.3108,-2.2944,-2.261,-2.261,-2.2414,-2.2051,-2.1585,-2.1037,-2.9304,0.0,0.0,-2.8925,-2.9197,-2.9536,-2.9594,-3.0088,-3.0418,-3.0197,-3.0466,-3.0833,-3.1041,-3.1294,-3.1511,-3.1511,-3.1511,-3.1511,-3.1511,-3.2064,-3.2587,-3.2766,-3.3784,-3.4578,-3.4773,-3.4788,-3.4966,-3.5474,-3.5669,-3.5983,-3.6462,-3.6656,-3.703,-3.7659,-3.7689,-3.7764,-3.7958,-3.7958,-3.7958,-3.7958,-3.7958,-3.7853,-3.7674,-3.7494,-3.7165,-3.6746,-3.6746,-3.6372,-3.5774,-3.5774,-3.5669,-3.5504,-3.5504,-3.5504,-3.5444,-3.4936,-3.4457,-3.4023,-3.3829,-3.3769,-3.3739,-3.3559,-3.317,-3.2781,-3.2781,-3.2452,-3.2004,-3.1824,-3.178,-3.1735,-3.1555,-3.1511,-3.1511,-3.1511,-3.1511,-3.1511,-3.1511,-3.1511,-3.1511,-3.1511,-3.1511,-3.1511,-3.1511,-3.1511,-3.1511,-3.1511,-3.0999,-3.0072,-2.862,-2.7986,-2.7484,-2.6871,-2.6245,-2.5774,-2.5611,-2.5247,-2.4808,-2.4255,-2.423,-2.401,-2.3584,-2.3572,-2.3572,-2.3572,-2.3572,-2.3572,-2.3572,-2.3572,-2.3572,-2.3541,-2.2959,-2.2411,-3.0538,0.0,-3.0377,-2.9735,-2.9577,-2.9604,-2.9606,-3.0071,-3.0684,-3.1389,-3.1506,-3.168,-3.2407,-3.1964,-3.1511,-3.1511,-3.1511,-3.1511,-3.1511,-3.2064,-3.2751,-3.338,-3.4099,-3.4773,0.0,-3.5474,-3.5489,-3.5504,-3.6088,-3.6462,-3.6492,-3.7045,-3.7689,-3.8347,-3.8362,-3.8676,-3.9313,-3.9328,-3.9328,-3.9328,-3.9328,-3.9005,-3.8347,-3.7704,-3.7404,-3.7375,-3.7375,-3.703,-3.6462,-3.6462,-3.6088,-3.5504,-3.5504,-3.5504,-3.5504,-3.5489,-3.5459,-3.5355,-3.4713,-3.4474,-3.4369,-3.3709,-3.3484,-3.3469,-3.3469,-3.3455,-3.3305,-3.2662,-3.2452,-3.2303,-3.1675,-3.1511,-3.1511,-3.1511,-3.1511,-3.1511,-3.1511,-3.1511,-3.1511,-3.1511,-3.1511,-3.1511,-3.1511,-3.1511,-3.1511,-3.1511,-3.1467,-3.1161,-3.0329,-2.8748,-2.7703,-2.767,-2.696,-2.6248,-2.5649,-2.5586,-2.5347,-2.48,-2.4763,-2.4763,-2.4738,-2.4738,-2.4738,-2.4738,-2.4738,-2.4738,-2.4738,-2.4738,-2.4738,-2.4738,-2.4705,-2.4259,-3.0826,-3.0576,-3.0469,-3.0265,-3.0193,-3.0313,-3.0748,-3.141,-3.1974,-3.2191,-3.2589,-3.2971,-3.3209,-3.2707,-3.2216,-3.2216,-3.1824,-3.1511,-3.1511,-3.2452,-3.3245,-3.3469,-3.4472,0.0,0.0,0.0,0.0,-3.6118,-3.6357,-3.6851,-3.7704,-3.7943,-3.8377,-3.905,-3.9065,-3.9185,-3.9388,-3.9388,-3.9388,-3.9388,-3.9388,-3.929,-3.9065,-3.8841,-3.8497,-3.8063,-3.8063,-3.7704,-3.706,-3.6656,-3.6357,-3.6118,-3.5669,-3.5504,-3.5504,-3.5504,-3.5504,-3.5474,-3.5235,-3.516,-3.513,-3.4906,-3.4517,-3.4174,-3.4174,-3.3844,-3.344,-3.323,-3.3155,-3.311,-3.2901,-3.2512,-3.2153,-3.2153,-3.1824,-3.1511,-3.1511,-3.1511,-3.1511,-3.1511,-3.1511,-3.1511,-3.1511,-3.1511,-3.1511,-3.1511,-3.1058,-3.0389,-2.9535,-2.8427,-2.7517,-2.6973,-2.6658,-2.6411,-2.6223,-2.6197,-2.5971,-2.5372,-2.5335,-2.5184,-2.48,-2.4788,-2.4788,-2.4788,-2.4788,-2.4788,-2.4788,-2.4788,-2.4788,-2.4788,-2.4788,-2.4505,-3.1935,-3.1814,-3.1899,-3.1674,-3.1608,-3.1716,-3.2149,-3.2625,-3.3013,-3.3261,-3.3469,-3.3659,-3.3912,-3.3209,-3.2668,-3.2922,-3.2367,-3.1894,-3.1894,-3.3046,-3.3759,-3.353,-3.4681,-3.5504,0.0,0.0,0.0,-3.6447,-3.6686,-3.727,-3.8332,-3.8616,-3.896,-3.9373,-3.9388,-3.9388,-3.9388,-3.9388,-3.9388,-3.9388,-3.9388,-3.9388,-3.9388,-3.9388,-3.917,-3.8751,-3.8751,-3.8377,-3.7734,-3.733,-3.703,-3.6746,-3.6103,-3.5863,-3.5833,-3.5594,-3.5504,-3.5504,-3.5504,-3.5504,-3.5504,-3.5504,-3.5205,-3.4846,-3.4846,-3.4547,-3.4158,-3.3918,-3.3844,-3.3784,-3.3559,-3.3185,-3.2871,-3.2871,-3.2542,-3.2138,-3.1914,-3.1854,-3.1795,-3.1555,-3.1511,-3.1511,-3.1511,-3.1511,-3.1511,-3.1511,-3.1058,-3.0524,-2.9981,-2.916,-2.8298,-2.7484,-2.7095,-2.6816,-2.6521,-2.6499,-2.6336,-2.5959,-2.59,-2.5749,-2.5423,-2.541,-2.541,-2.541,-2.541,-2.541,-2.541,-2.541,-2.541,-2.541,-2.541,-2.5273,-3.3793,-3.4087,-3.4406,-3.3761,-3.3582,-3.3582,-3.3582,-3.3633,-3.3836,-3.4455,-3.4112,-3.3887,0.0,0.0,-3.2895,-3.3495,-3.3039,-3.2602,-3.2547,-3.3648,-3.4205,0.0,0.0,0.0,0.0,0.0,0.0,-3.6537,0.0,-3.7749,-3.8407,-3.9065,-3.9388,-3.9388,-3.9388,-3.9388,-3.9388,-3.9388,-3.9388,-3.9388,-3.9388,-3.9388,-3.9388,-3.9388,-3.9388,-3.9388,-3.9388,-3.905,-3.8437,-3.8407,-3.8018,-3.7404,-3.6776,-3.6507,-3.6417,-3.5789,-3.5534,-3.5504,-3.5504,-3.5504,-3.5504,-3.5504,-3.5504,-3.5504,-3.5504,-3.5504,-3.537,-3.4711,-3.4563,-3.4414,-3.3769,-3.3574,-3.3544,-3.3544,-3.3514,-3.332,-3.2706,-3.2512,-3.2303,-3.1675,-3.1525,-3.1511,-3.1511,-3.1511,-3.1511,-3.1511,-3.1511,-3.1511,-3.1438,-3.0777,-2.995,-2.9034,-2.8182,-2.7384,-2.6555,-2.6499,-2.6499,-2.6499,-2.6499,-2.6499,-2.6499,-2.6499,-2.6499,-2.6499,-2.6499,-2.6499,-2.6499,-2.6499,-2.6499,-2.6499,-2.6499,-2.6499,-3.4234,-3.4112,-3.3811,-3.3633,-3.3582,-3.3582,-3.3582,-3.3987,-3.4382,-3.4552,-3.4871,-3.5138,0.0,0.0,0.0,-3.3659,-3.3039,0.0,-3.1853,-3.2928,0.0,-3.353,0.0,-3.5504,-3.5504,-3.6103,0.0,0.0,-3.7778,-3.8437,-3.9125,-3.9334,-3.9388,-3.9388,-3.9388,-3.9388,-3.9388,-3.9388,-3.9388,-3.9388,-3.9388,-3.9388,-3.9388,-3.9388,-3.9388,-3.9388,-3.9388,-3.932,-3.9125,-3.8601,-3.8287,-3.8078,-3.7434,-3.6896,-3.6462,-3.6297,-3.5923,-3.5504,-3.5504,-3.5504,-3.5504,-3.5504,-3.5504,-3.5504,-3.5504,-3.5504,-3.5474,-3.5295,-3.525,-3.5205,-3.504,-3.4607,-3.4264,-3.4264,-3.3844,-3.344,-3.3275,-3.2856,-3.2437,-3.2273,-3.1839,-3.1511,-3.1511,-3.1511,-3.1511,-3.1511,-3.1511,-3.1278,-3.0673,-3.0419,-2.9721,-2.8182,-2.7835,-2.7384,-2.6555,-2.6499,-2.6499,-2.6499,-2.6499,-2.6499,-2.6499,-2.6499,-2.6499,-2.6499,-2.6499,-2.6499,-2.6499,-2.6499,-2.6499,-2.6499,-2.6499,-2.6499,-3.4572,-3.4544,-3.4471,-3.4471,-3.4471,-3.4471,-3.4471,-3.4776,-3.5052,-3.5052,-3.5339,0.0,-3.56,0.0,0.0,0.0,0.0,0.0,-3.2891,-3.3477,-3.3954,0.0,-3.4841,0.0,-3.5504,-3.6342,-3.7045,0.0,-3.8018,-3.8691,-3.9343,-3.9388,-3.9388,-3.9388,-3.9388,-3.9388,-3.9388,-3.9388,-3.9388,-3.9388,-3.9388,-3.9388,-3.9388,-3.9388,-3.9388,-3.9388,0.0,-3.9388,-3.9394,-3.899,-3.8841,-3.8781,-3.8093,-3.7629,-3.7255,-3.6686,-3.6252,-3.5893,-3.5609,-3.5504,-3.5504,-3.5504,-3.5504,-3.5504,-3.5504,-3.5504,-3.5504,-3.5504,-3.5504,-3.5504,-3.5504,-3.522,-3.4921,-3.4921,-3.4651,-3.4292,-3.3993,-3.3634,-3.32,-3.2617,-3.2183,-3.1854,-3.1555,-3.1511,-3.1511,-3.1511,-3.1511,-3.1351,-3.0866,-3.0837,-3.0329,-2.8971,-2.8492,-2.792,-2.7095,-2.6679,-2.6499,-2.6499,-2.6499,-2.6499,-2.6499,-2.6499,-2.6499,-2.6499,-2.6499,-2.6499,-2.6499,-2.6499,-2.6499,-2.6499,-2.6499,-2.6499,-3.4861,-3.5161,-3.56,-3.56,-3.56,-3.56,-3.56,-3.56,-3.56,-3.56,0.0,-3.56,-3.56,-3.5121,-3.4894,-3.5385,0.0,-3.3912,-3.4406,-3.4499,-3.4519,-3.4496,-3.5094,-3.5497,-3.5489,-3.6656,-3.7404,-3.7404,-3.8093,-3.8796,-3.9394,-3.9388,-3.9388,-3.9388,-3.9388,-3.9388,-3.9388,-3.9388,-3.9388,-3.9388,-3.9388,-3.9388,-3.9388,-3.9388,-3.9388,-3.9388,0.0,0.0,-3.9388,-3.9388,-3.9388,-3.9328,-3.8751,-3.8467,-3.8242,-3.7045,-3.6552,-3.6387,-3.5729,-3.5504,-3.5504,-3.5504,-3.5504,-3.5504,-3.5504,-3.5504,-3.5504,-3.5504,-3.5504,-3.5504,-3.5504,-3.5504,-3.5504,-3.5504,-3.5504,-3.534,-3.4773,-3.4578,-3.4144,-3.2886,-3.2572,-3.2303,-3.1735,-3.157,-3.1511,-3.1511,-3.1511,-3.1511,-3.1511,-3.1511,-3.119,-3.0389,-2.9628,-2.878,-2.7769,-2.7074,-2.6624,-2.6499,-2.6499,-2.6499,-2.6499,-2.6499,-2.6499,-2.6499,-2.6499,-2.6499,-2.6499,-2.6499,-2.6499,-2.6499,-2.6499,-2.6499,-3.5284,-3.5515,-3.56,-3.56,-3.56,-3.56,-3.56,-3.56,0.0,0.0,-3.56,-3.56,-3.56,-3.5492,-3.5276,-3.483,0.0,0.0,0.0,0.0,-3.4561,0.0,0.0,0.0,0.0,0.0,0.0,0.0,0.0,0.0,-3.9373,-3.9388,-3.9388,-3.9388,-3.9388,-3.9388,-3.9388,-3.9388,-3.9388,-3.9388,-3.9388,-3.9388,-3.9388,-3.9388,-3.9388,-3.9388,0.0,0.0,-3.9388,-3.9388,-3.9388,-3.9373,-3.929,-3.8901,-3.8302,-3.7524,-3.6926,-3.6387,-3.5729,-3.5504,-3.5504,-3.5504,-3.5504,-3.5504,-3.5504,-3.5504,-3.5504,-3.5504,-3.5504,-3.5504,-3.5504,-3.5504,-3.5504,-3.5504,-3.5504,-3.5474,-3.5355,-3.4876,-3.4279,-3.3469,-3.2886,-3.2452,-3.2333,-3.1869,-3.1511,-3.1511,-3.1511,-3.1511,-3.1511,-3.1511,-3.119,-3.0389,-3.0178,-2.9442,-2.7835,-2.7571,-2.7196,-2.6521,-2.6499,-2.6499,-2.6499,-2.6499,-2.6499,-2.6499,-2.6499,-2.6499,-2.6499,-2.6499,-2.6499,-2.6499,-2.6499,-2.6499,-3.5498,-3.56,-3.56,-3.56,-3.56,-3.56,-3.56,0.0,0.0,0.0,-3.56,-3.56,-3.56,-3.56,0.0,-3.5184,0.0,0.0,0.0,0.0,0.0,0.0,0.0,0.0,0.0,0.0,0.0,0.0,0.0,0.0,-3.9388,-3.9388,-3.9388,-3.9388,-3.9388,-3.9388,-3.9388,-3.9388,-3.9388,-3.9388,-3.9388,-3.9388,-3.9388,-3.9388,-3.9388,-3.9388,0.0,0.0,-3.9388,-3.9388,-3.9388,-3.9388,-3.9388,-3.9215,-3.8841,-3.8167,-3.7524,-3.6881,-3.6237,-3.5789,-3.5504,-3.5504,-3.5504,-3.5504,-3.5504,-3.5504,-3.5504,-3.5504,-3.5504,-3.5504,-3.5504,-3.5504,-3.5504,-3.5504,-3.5504,-3.5504,-3.5504,-3.525,-3.4816,-3.4143,-3.3754,-3.3425,-3.308,-3.2452,-3.2019,-3.2019,-3.172,-3.1511,-3.1511,-3.1511,-3.1351,-3.097,-3.0554,-2.9797,-2.8492,-2.7953,-2.7351,-2.6555,-2.6499,-2.6499,-2.6499,-2.6499,-2.6499,-2.6499,-2.6499,-2.6499,-2.6499,-2.6499,-2.6499,-2.6499,-2.6499,-2.6499,-3.56,-3.56,-3.56,-3.56,-3.56,-3.56,-3.56,-3.56,0.0,-3.56,-3.56,-3.56,-3.56,-3.56,-3.56,0.0,-3.5161,-3.4988,0.0,0.0,0.0,0.0,0.0,0.0,0.0,0.0,0.0,0.0,0.0,0.0,0.0,-3.9388,-3.9388,-3.9388,-3.9388,-3.9388,-3.9388,-3.9388,-3.9388,-3.9388,-3.9388,-3.9388,-3.9388,-3.9388,-3.9388,-3.9388,0.0,0.0,0.0,-3.9388,-3.9388,-3.9388,-3.9388,-3.9388,-3.9298,-3.8646,-3.8063,-3.7509,-3.6746,-3.6148,-3.5684,-3.5549,-3.5504,-3.5504,-3.5504,-3.5504,-3.5504,-3.5504,-3.5504,-3.5504,-3.5504,-3.5504,-3.5504,-3.5504,-3.5504,-3.5504,-3.5504,-3.5504,-3.534,-3.4833,-3.4608,-3.4339,-3.3799,-3.3155,-3.2677,-3.2512,-3.2049,-3.166,-3.1525,-3.1511,-3.1511,-3.1511,-3.0925,-3.0208,-2.9348,-2.8492,-2.7637,-2.6816,-2.6589,-2.6499,-2.6499,-2.6499,-2.6499,-2.6499,-2.6499,-2.6499,-2.6499,-2.6499,-2.6499,-2.6499,-2.6499,-2.6499,-3.56,-3.56,-3.56,-3.56,-3.56,-3.56,-3.56,0.0,-3.56,-3.56,-3.56,-3.56,-3.56,-3.56,-3.56,-3.56,-3.5538,-3.5515,0.0,0.0,0.0,0.0,0.0,0.0,0.0,0.0,0.0,0.0,0.0,0.0,0.0,-3.9388,-3.9388,-3.9388,-3.9388,-3.9388,-3.9388,-3.9388,-3.9388,-3.9388,-3.9388,-3.9388,-3.9388,-3.9388,-3.9388,-3.9388,0.0,0.0,0.0,-3.9388,-3.9388,-3.9388,-3.9388,-3.9388,-3.9298,-3.8646,-3.8347,-3.8123,-3.6911,-3.6447,-3.6297,-3.5699,-3.5504,-3.5504,-3.5504,-3.5504,-3.5504,-3.5504,-3.5504,-3.5504,-3.5504,-3.5504,-3.5504,-3.5504,-3.5504,-3.5504,-3.5504,-3.5504,-3.5489,-3.5429,-3.4906,-3.4488,-3.4429,-3.3844,-3.32,-3.2602,-3.2437,-3.2183,-3.1585,-3.1511,-3.1511,-3.1511,-3.1438,-3.1058,-3.0238,-2.938,-2.8524,-2.7637,-2.6905,-2.6499,-2.6499,-2.6499,-2.6499,-2.6499,-2.6499,-2.6499,-2.6499,-2.6499,-2.6499,-2.6499,-2.6499,-2.6499,-3.5783,-3.5849,-3.5989,-3.5672,-3.56,-3.56,-3.56,0.0,-3.56,-3.56,-3.56,-3.56,-3.56,-3.56,-3.56,-3.56,-3.56,-3.56,-3.56,0.0,0.0,0.0,0.0,0.0,0.0,0.0,0.0,0.0,0.0,0.0,0.0,-3.9388,-3.9388,-3.9388,-3.9388,-3.9388,-3.9388,-3.9388,-3.9388,-3.9388,-3.9388,-3.9388,-3.9388,-3.9388,-3.9388,-3.9388,0.0,0.0,0.0,-3.9388,-3.9388,-3.9388,-3.9388,-3.9388,-3.9394,-3.911,-3.8751,-3.8317,-3.7808,-3.7135,-3.6447,-3.6178,-3.6131,-3.6086,-3.5636,-3.5504,-3.5504,-3.5504,-3.5504,-3.5504,-3.5504,-3.5504,-3.5504,-3.5504,-3.5504,-3.5504,-3.5504,-3.5504,-3.5504,-3.5504,-3.528,-3.51,-3.51,-3.4532,-3.3993,-3.3739,-3.3021,-3.2392,-3.2123,-3.175,-3.1511,-3.1511,-3.1511,-3.1161,-3.0359,-2.9981,-2.9192,-2.7802,-2.7384,-2.7007,-2.6521,-2.6499,-2.6499,-2.6499,-2.6499,-2.6499,-2.6499,-2.6499,-2.6499,-2.6499,-2.6499,-2.6499,-3.6291,-3.6354,-3.656,-3.6165,-3.6058,-3.6058,0.0,0.0,-3.6058,-3.6058,-3.5963,-3.5849,-3.5849,-3.5694,-3.56,-3.56,-3.56,-3.56,-3.56,-3.56,0.0,0.0,0.0,0.0,0.0,0.0,0.0,0.0,0.0,0.0,0.0,0.0,-3.9388,-3.9388,-3.9388,-3.9388,-3.9388,-3.9388,-3.9388,-3.9388,-3.9388,-3.9388,-3.9388,-3.9388,-3.9388,0.0,0.0,0.0,0.0,-3.9388,-3.9388,-3.9388,-3.9388,-3.9538,-3.9758,-3.9758,-3.9651,-3.9436,-3.9222,-3.8583,-3.7757,-3.7359,-3.7234,-3.7139,-3.6398,-3.6164,-3.6164,-3.6164,-3.6164,-3.6148,-3.5894,-3.5846,-3.5782,-3.5554,-3.5504,-3.5504,-3.5504,-3.5504,-3.5504,-3.5504,-3.5504,-3.5504,-3.5504,-3.51,-3.4711,-3.4533,-3.3694,-3.3021,-3.2826,-3.2198,-3.1795,-3.1795,-3.1615,-3.1278,-3.0703,-3.0419,-2.9659,-2.8182,-2.7835,-2.7351,-2.6521,-2.6499,-2.6499,-2.6499,-2.6499,-2.6499,-2.6499,-2.6499,-2.6499,-2.6499,-2.6499,-2.6499,-3.719,-3.719,-3.7173,-3.7173,-3.7173,-3.7173,0.0,0.0,-3.7173,-3.7173,-3.6764,-3.6374,-3.6374,-3.5963,-3.56,-3.56,-3.56,-3.56,-3.56,0.0,0.0,0.0,0.0,0.0,0.0,0.0,0.0,0.0,0.0,0.0,0.0,0.0,-3.9388,-3.9388,-3.9388,-3.9388,-3.9388,-3.9388,-3.9388,-3.9388,-3.9388,-3.9388,-3.9388,-3.9388,0.0,0.0,0.0,0.0,0.0,-3.9388,-3.9388,-3.9388,-3.9388,-3.9935,-4.069,-4.069,-4.1247,-4.1885,-4.1181,-4.0973,-4.0733,-3.9324,-3.8889,-3.8731,-3.7985,-3.7793,-3.7793,-3.7793,-3.7793,-3.7602,-3.6798,-3.6584,-3.6415,-3.5668,-3.5504,-3.5504,-3.5504,-3.5504,-3.5504,-3.5504,-3.5504,-3.5504,-3.5504,-3.5489,-3.5265,-3.4608,-3.4503,-3.4249,-3.3559,-3.2901,-3.2497,-3.2497,-3.1899,-3.1511,-3.1511,-3.0777,-2.9919,-2.9034,-2.8182,-2.7351,-2.6521,-2.6499,-2.6499,-2.6499,-2.6499,-2.6499,-2.6499,-2.6499,-2.6499,-2.6499,-2.6499,-2.6499,-3.7396,-3.7433,-3.7596,-3.7267,-3.7209,-3.7209,-3.7209,-3.7209,-3.7209,-3.7209,-3.6764,-3.6395,-3.6395,-3.6266,-3.6028,-3.565,-3.592,-3.6028,0.0,0.0,0.0,0.0,0.0,0.0,0.0,0.0,0.0,0.0,0.0,0.0,0.0,0.0,-3.9388,-3.9388,-3.9388,-3.9388,-3.9388,-3.9388,-3.9388,-3.9388,-3.9388,-3.9388,-3.9388,-3.9388,0.0,0.0,0.0,0.0,0.0,-3.9388,-3.9737,-4.0274,-4.0274,-4.0826,-4.1609,-4.1609,-4.1772,-4.1965,-4.1741,-4.1389,-4.094,-4.0491,-4.0049,-3.9682,-3.9441,-3.8622,-3.7793,-3.7793,-3.7793,-3.7719,-3.7485,-3.7427,-3.7219,-3.643,-3.6244,-3.6102,-3.5619,-3.5504,-3.5504,-3.5504,-3.5504,-3.5504,-3.5504,-3.5504,-3.5429,-3.522,-3.4771,-3.4429,-3.4219,-3.3589,-3.3185,-3.3185,-3.2572,-3.1989,-3.154,-3.1278,-3.0777,-2.995,-2.9066,-2.8214,-2.7351,-2.6782,-2.6499,-2.6499,-2.6499,-2.6499,-2.6499,-2.6499,-2.6499,-2.6499,-2.6499,-2.6499,-3.7948,-3.7981,-3.8133,-3.7843,-3.7773,0.0,0.0,-3.7773,-3.7773,-3.7773,-3.7341,-3.6904,-3.6744,-3.6704,-3.6539,-3.6006,-3.6182,0.0,0.0,0.0,0.0,0.0,0.0,0.0,0.0,0.0,0.0,0.0,0.0,0.0,0.0,0.0,-3.99,-3.99,-3.9574,-3.9388,-3.9388,-3.9388,-3.9388,-3.9388,-3.9388,-3.9388,-3.9388,0.0,0.0,0.0,0.0,0.0,0.0,-3.9758,-4.022,-4.0709,-4.1046,-4.1723,-4.2489,-4.2489,-4.2707,-4.2984,-4.2984,-4.2706,-4.231,-4.2002,-4.1255,-4.0527,-4.0527,-3.9643,-3.8668,-3.8668,-3.8668,-3.8613,-3.829,-3.8234,-3.8019,-3.7233,-3.6813,-3.6461,-3.6006,-3.5701,-3.5504,-3.5504,-3.5504,-3.5504,-3.5504,-3.5504,-3.5504,-3.5504,-3.513,-3.4861,-3.4861,-3.4277,-3.3858,-3.3858,-3.3275,-3.2721,-3.2273,-3.1795,-3.1161,-3.0359,-2.9797,-2.9097,-2.8247,-2.7384,-2.6939,-2.6939,-2.6658,-2.6499,-2.6499,-2.6499,-2.6499,-2.6499,-2.6499,-2.6499,0.0,-3.8707,-3.8707,-3.8707,-3.8707,-3.8707,-3.8707,-3.8707,0.0,-3.8707,-3.8283,-3.7772,-3.7323,-3.7248,-3.7095,-3.6542,-3.6457,0.0,0.0,0.0,0.0,0.0,0.0,0.0,0.0,0.0,0.0,0.0,0.0,0.0,0.0,0.0,0.0,-4.0777,-3.999,-3.9574,-3.9574,-3.9574,-3.9538,-3.9481,-3.9481,-3.9445,-3.9388,0.0,0.0,0.0,0.0,0.0,0.0,-4.0378,-4.0777,-4.0979,-4.1772,-4.2614,-4.3396,-4.3396,-4.3902,-4.4615,-4.4615,-4.4615,-4.4479,-4.3673,-4.2489,-4.1356,-4.1288,-4.0713,-4.0096,-4.0096,-4.0096,-3.9927,-3.9166,-3.9005,-3.8799,-3.8064,-3.7293,-3.6722,-3.66,-3.6054,-3.5554,-3.5504,-3.5504,-3.5504,-3.5504,-3.5504,-3.5504,-3.5504,-3.5504,-3.5504,-3.5504,-3.4951,-3.4578,-3.4578,-3.3963,-3.3559,-3.3559,-3.2333,-3.1249,-3.0492,-3.0358,-2.995,-2.9129,-2.8214,-2.7703,-2.7703,-2.6905,-2.6499,-2.6499,-2.6499,-2.6499,-2.6499,-2.6499,-2.6499,-3.8707,0.0,-3.8707,-3.8707,-3.8707,-3.8707,0.0,-3.8707,-3.8707,-3.8707,-3.8283,-3.7877,-3.7755,-3.7737,-3.7578,0.0,0.0,0.0,0.0,0.0,0.0,0.0,0.0,0.0,0.0,0.0,0.0,0.0,0.0,0.0,0.0,0.0,0.0,-4.1691,-4.1511,-4.1379,-4.1379,-4.1379,-4.1046,-4.0397,-4.0397,-4.006,-3.9388,0.0,0.0,0.0,0.0,0.0,-4.0397,-4.0622,-4.1478,-4.2724,-4.2909,-4.3515,-4.4281,-4.4281,-4.4412,-4.4615,-4.4615,-4.4615,-4.4479,-4.3673,-4.3156,-4.2794,-4.2202,-4.1119,-4.0096,-4.0096,-4.0096,-4.0045,-3.9876,-3.9808,-3.961,-3.8843,-3.8509,-3.8044,-3.6858,-3.6461,-3.6165,-3.5619,-3.5504,-3.5504,-3.5504,-3.5504,-3.5504,-3.5504,-3.5504,-3.5504,-3.5504,-3.537,-3.5265,-3.5265,-3.4651,-3.4279,-3.4279,-3.3036,-3.2184,-3.199,-3.0921,-3.0208,-3.0011,-2.8524,-2.7703,-2.7703,-2.6905,-2.6499,-2.6499,-2.6499,-2.6499,-2.6499,-2.6499,-2.6499,-3.8707,-3.8707,-3.8707,-3.8707,-3.8707,-3.8707,-3.8707,-3.8707,-3.8707,-3.8707,-3.8465,-3.8183,-3.7946,0.0,0.0,0.0,0.0,0.0,0.0,0.0,0.0,0.0,0.0,0.0,0.0,0.0,0.0,0.0,0.0,0.0,0.0,0.0,0.0,0.0,-4.3,-4.28,-4.1997,-4.1997,-4.1772,-4.1313,-4.1313,-4.1062,-4.0569,0.0,0.0,0.0,0.0,0.0,-4.1346,-4.1739,-4.2458,-4.3336,-4.3756,-4.4196,-4.4615,-4.4615,-4.4615,-4.4615,-4.4615,-4.4615,-4.453,-4.4079,-4.3707,-4.3325,-4.2929,-4.1762,-4.0595,-4.0595,-4.0367,-4.0096,-4.0096,-4.0096,-3.9995,-3.9542,-3.9166,-3.8674,-3.7844,-3.7395,-3.6919,-3.6134,-3.6006,-3.5894,-3.5554,-3.5504,-3.5504,-3.5504,-3.5504,-3.5504,-3.5504,-3.5504,-3.5504,-3.5504,-3.5175,-3.4951,-3.4951,-3.4008,-3.329,-3.2976,-3.2196,-3.1777,-3.1777,-3.0475,-2.9372,-2.8562,-2.7685,-2.7218,-2.7218,-2.7218,-2.7218,-2.7218,-2.7218,-2.7218,-3.8704,-3.8707,-3.8707,-3.8707,-3.8707,-3.8707,-3.8707,-3.8707,-3.8707,-3.8707,-3.8707,-3.8562,-3.8099,-3.8013,0.0,0.0,0.0,0.0,0.0,0.0,0.0,0.0,0.0,0.0,0.0,0.0,0.0,0.0,0.0,0.0,0.0,0.0,0.0,0.0,-4.4224,-4.3902,-4.241,-4.2379,-4.2316,-4.2189,-4.2189,-4.2125,-4.1997,-4.1997,0.0,0.0,0.0,0.0,-4.2269,-4.3017,-4.3366,-4.3562,-4.4327,-4.4615,-4.4615,-4.4615,-4.4615,-4.4615,-4.4615,-4.4615,-4.4615,-4.4615,-4.413,-4.3589,-4.3589,-4.2625,-4.1508,-4.1407,-4.0747,-4.0096,-4.0096,-4.0096,-4.0096,-4.0096,-3.9584,-3.9059,-3.8935,-3.8414,-3.7719,-3.6783,-3.6615,-3.6368,-3.5651,-3.5504,-3.5504,-3.5504,-3.5504,-3.5504,-3.5504,-3.5504,-3.5504,-3.5504,-3.5504,-3.5504,-3.5504,-3.4966,-3.4429,-3.3844,-3.3604,-3.3423,-3.3331,-3.2584,-3.1411,-2.9752,-2.8948,-2.8543,-2.8543,-2.8543,-2.8543,-2.8543,-2.8375,-2.8303,-3.8762,-3.8707,-3.8707,-3.8707,-3.8707,-3.8707,-3.8707,-3.8707,-3.8707,-3.8707,-3.8707,-3.8658,-3.8578,-3.8596,-3.8596,0.0,0.0,0.0,0.0,0.0,0.0,0.0,0.0,0.0,0.0,0.0,0.0,0.0,0.0,0.0,0.0,0.0,0.0,0.0,0.0,-4.4468,-4.4207,-4.4196,-4.3844,-4.3108,-4.3108,-4.2707,-4.1997,-4.1997,-4.1997,0.0,0.0,-4.2426,-4.3108,-4.3246,-4.3739,-4.4412,-4.4542,-4.4615,-4.4615,-4.4615,-4.4615,-4.4615,-4.4615,-4.4615,-4.4615,-4.4615,-4.453,-4.4429,-4.4429,-4.3775,-4.2919,-4.2303,-4.1162,-4.0096,-4.0096,-4.0096,-4.0096,-4.0096,-4.002,-3.9731,-3.9059,-3.8799,-3.8314,-3.6873,-3.6615,-3.6368,-3.5651,-3.5504,-3.5504,-3.5504,-3.5504,-3.5504,-3.5504,-3.5504,-3.5504,-3.5504,-3.5504,-3.5504,-3.5504,-3.5415,-3.531,-3.5205,-3.4128,-3.3161,-3.2411,-3.2283,-3.1738,-3.0798,-3.0629,-3.0562,-3.0562,-3.0562,-3.0562,-3.0528,-2.9696,-2.9289,-3.8947,-3.8818,-3.8707,-3.8707,-3.8707,-3.8707,-3.8707,-3.8707,-3.8707,-3.8707,-3.8707,-3.8707,0.0,0.0,0.0,0.0,0.0,0.0,0.0,0.0,0.0,0.0,0.0,0.0,0.0,0.0,0.0,0.0,0.0,0.0,0.0,0.0,0.0,0.0,0.0,0.0,-4.3379,-4.3379,-4.3575,-4.4006,-4.4006,-4.3798,-4.341,-4.341,-4.341,0.0,0.0,-4.3634,-4.4006,-4.4006,-4.4224,-4.4615,-4.4615,-4.4615,-4.4615,-4.4615,-4.4615,-4.4615,-4.4615,-4.4615,-4.4615,-4.4615,-4.4615,-4.4615,-4.4615,-4.4045,-4.3267,-4.2506,-4.1508,-4.0595,-4.0214,-4.0096,-4.0096,-4.0096,-4.0096,-3.9995,-3.9636,-3.9542,-3.9193,-3.8072,-3.7844,-3.7467,-3.629,-3.6086,-3.5943,-3.5554,-3.5504,-3.5504,-3.5504,-3.5504,-3.5504,-3.5504,-3.5504,-3.5504,-3.5504,-3.5504,-3.5504,-3.5504,-3.4921,-3.4403,-3.3989,-3.3441,-3.2982,-3.2647,-3.2123,-3.1868,-3.1868,-3.1868,-3.1868,-3.1834,-3.1395,-3.09,-3.9125,-3.8909,-3.8707,-3.8707,-3.8707,-3.8707,-3.8707,-3.8707,-3.8707,-3.8707,-3.8707,0.0,0.0,0.0,0.0,0.0,0.0,0.0,0.0,0.0,0.0,0.0,0.0,0.0,0.0,0.0,0.0,0.0,0.0,0.0,0.0,0.0,0.0,0.0,0.0,0.0,-4.2286,-4.2286,-4.2878,-4.4073,-4.4073,-4.4073,-4.4073,-4.4073,-4.4073,-4.4073,-4.4073,-4.4073,-4.4073,-4.4073,-4.4175,-4.4316,-4.4316,-4.4418,-4.4615,-4.4615,-4.4615,-4.4615,-4.4615,-4.4615,-4.4615,-4.4615,-4.4615,-4.4615,-4.4615,-4.4164,-4.3538,-4.2777,-4.2033,-4.1255,-4.035,-4.0096,-4.0096,-4.0096,-4.0096,-4.0096,-4.0096,-4.0096,-3.9876,-3.9059,-3.8908,-3.8481,-3.7114,-3.6873,-3.6631,-3.5863,-3.575,-3.5701,-3.5537,-3.5504,-3.5504,-3.5504,-3.5504,-3.5504,-3.5504,-3.5504,-3.5504,-3.5504,-3.5504,-3.5504,-3.5504,-3.4758,-3.4361,-3.4361,-3.365,-3.329,-3.329,-3.329,-3.329,-3.329,-3.3031,-3.2522,-3.9173,-3.8909,-3.8707,-3.8707,-3.8707,-3.8707,-3.8707,-3.8707,-3.8707,-3.8707,-3.8707,-3.8707,0.0,0.0,0.0,0.0,0.0,0.0,0.0,0.0,0.0,0.0,0.0,0.0,0.0,0.0,0.0,0.0,0.0,0.0,0.0,0.0,0.0,0.0,0.0,0.0,-4.2286,-4.2286,-4.2354,-4.2455,-4.2455,-4.2455,-4.2455,-4.2455,-4.2455,-4.2455,-4.2455,-4.2455,-4.2455,-4.2455,-4.2861,-4.3504,-4.3504,-4.3944,-4.4615,-4.4615,-4.4615,-4.4615,-4.4615,-4.4615,-4.4615,-4.4615,-4.4615,-4.4615,-4.4615,-4.4564,-4.4361,-4.3555,-4.2794,-4.188,-4.0468,-4.0096,-4.0096,-4.0096,-4.0096,-4.0096,-4.0096,-4.0096,-3.9876,-3.9059,-3.8908,-3.8635,-3.7863,-3.769,-3.7456,-3.6646,-3.6523,-3.6275,-3.5587,-3.5504,-3.5504,-3.5504,-3.5504,-3.5504,-3.5504,-3.5504,-3.5504,-3.5504,-3.5504,-3.5504,-3.5504,-3.5424,-3.5392,-3.5392,-3.5326,-3.5279,-3.5279,-3.5279,-3.5279,-3.5279,-3.4312,-3.3842,-3.9498,-3.9178,-3.8909,-3.8732,-3.8707,-3.8707,-3.8707,-3.8707,-3.8707,-3.8707,-3.8707,-3.8611,0.0,0.0,0.0,0.0,0.0,0.0,0.0,0.0,0.0,0.0,0.0,0.0,0.0,0.0,0.0,0.0,0.0,0.0,0.0,0.0,0.0,0.0,0.0,0.0,0.0,-4.0942,-4.0942,-4.0942,-4.1847,-4.2286,-4.2286,-4.2286,-4.2286,-4.2286,-4.2286,-4.2286,-4.2286,-4.2286,-4.2455,-4.276,-4.3206,-4.3606,-4.391,-4.4429,-4.4615,-4.4615,-4.4615,-4.4615,-4.4615,-4.4615,-4.4615,-4.4615,-4.4615,-4.4615,-4.4418,-4.3639,-4.2878,-4.2066,-4.1052,-4.0426,-4.0096,-4.0096,-4.0096,-4.0096,-4.0096,-4.0096,-4.002,-3.9705,-3.9636,-3.9411,-3.8608,-3.8469,-3.8218,-3.744,-3.6904,-3.6492,-3.6228,-3.5782,-3.5504,-3.5504,-3.5504,-3.5504,-3.5504,-3.5504,-3.5504,-3.5504,-3.5504,-3.5504,-3.5504,-3.5504,-3.5504,-3.5504,-3.5504,-3.5504,-3.5504,-3.5504,-3.5504,-3.5504,-3.51,-3.461,-3.9656,-3.9282,-3.8937,-3.875,-3.8707,-3.8707,-3.8707,-3.8707,-3.8707,-3.8707,-3.8707,-3.8578,-3.8216,0.0,0.0,0.0,0.0,0.0,0.0,0.0,0.0,0.0,0.0,0.0,0.0,0.0,0.0,0.0,0.0,0.0,0.0,0.0,0.0,0.0,0.0,0.0,0.0,-4.0096,-4.0096,-4.0113,-4.1128,-4.1619,-4.1619,-4.1619,-4.1619,-4.1619,-4.1619,-4.1619,-4.1619,-4.1619,-4.1728,-4.2033,-4.276,-4.3172,-4.346,-4.4012,-4.4395,-4.4615,-4.4615,-4.4615,-4.4615,-4.4615,-4.4615,-4.4615,-4.4615,-4.4615,-4.4418,-4.3639,-4.2878,-4.2117,-4.139,-4.0646,-4.0096,-4.0096,-4.0096,-4.0096,-4.0096,-4.0096,-4.0096,-4.0096,-4.0096,-3.9927,-3.9368,-3.9289,-3.9005,-3.8246,-3.7687,-3.7247,-3.6994,-3.6538,-3.6148,-3.5863,-3.5651,-3.5504,-3.5504,-3.5504,-3.5504,-3.5504,-3.5504,-3.5504,-3.5504,-3.5504,-3.5504,-3.5504,-3.5504,-3.5504,-3.5504,-3.5504,-3.5504,-3.5504,-3.5504,-3.5133,-3.9611,-3.9168,-3.8707,-3.8707,-3.8707,-3.8707,-3.8707,-3.8707,-3.8707,-3.8707,-3.8707,-3.8707,-3.8707,0.0,0.0,0.0,0.0,0.0,0.0,0.0,0.0,0.0,0.0,0.0,0.0,0.0,0.0,0.0,0.0,0.0,0.0,0.0,0.0,0.0,0.0,0.0,0.0,-4.0096,-4.0096,-4.0096,-4.0096,-4.0096,-4.0096,-4.0096,-4.0096,-4.0096,-4.0096,-4.0096,-4.0096,-4.0096,-4.0536,-4.1271,-4.1999,-4.2743,-4.3375,-4.3375,-4.3893,-4.4581,-4.4598,-4.4598,-4.4598,-4.4615,-4.4615,-4.4615,-4.4598,-4.4598,-4.4445,-4.3639,-4.2861,-4.2117,-4.139,-4.0646,-4.0096,-4.0096,-4.0096,-4.0096,-4.0096,-4.0096,-4.0096,-4.0096,-4.0096,-4.0096,-4.0096,-4.0096,-3.9833,-3.9016,-3.8908,-3.8635,-3.7892,-3.7793,-3.7485,-3.6707,-3.5943,-3.5504,-3.5504,-3.5504,-3.5504,-3.5504,-3.5504,-3.5504,-3.5504,-3.5504,-3.5504,-3.5504,-3.5504,-3.5504,-3.5504,-3.5504,-3.5504,-3.5504,-3.5504,-3.5504,-3.9993,-3.9652,-3.9275,-3.904,0.0,-3.8707,-3.8707,-3.8707,-3.8707,-3.8707,-3.8707,-3.8707,-3.8707,0.0,0.0,0.0,0.0,0.0,0.0,0.0,0.0,0.0,0.0,0.0,0.0,0.0,0.0,0.0,0.0,0.0,0.0,0.0,0.0,0.0,0.0,0.0,0.0,0.0,-4.0096,-4.0096,-4.0096,-4.0096,-4.0096,-4.0096,-4.0096,-4.0096,-4.0096,-4.0096,-4.0096,-4.0096,-4.0231,-4.0519,-4.1238,-4.166,-4.1931,-4.2439,-4.2777,-4.3047,-4.3572,-4.3775,-4.3859,-4.4429,-4.4615,-4.4665,-4.5115,-4.4934,-4.454,-4.4198,-4.3226,-4.2117,-4.139,-4.0646,-4.0096,-4.0096,-4.0096,-4.0096,-4.0096,-4.0096,-4.0096,-4.0096,-4.0096,-4.0096,-4.0096,-4.0096,-4.002,-3.9782,-3.9262,-3.8635,-3.7892,-3.7793,-3.769,-3.7485,-3.6753,-3.6275,-3.6275,-3.5814,-3.5504,-3.5504,-3.5504,-3.5504,-3.5504,-3.5504,-3.5504,-3.5504,-3.5504,-3.5504,-3.5504,-3.5504,-3.5504,-3.5504,-3.5504,-3.5504,-3.9778,-3.9488,0.0,-3.899,-3.8815,-3.8707,-3.8707,0.0,0.0,0.0,-3.8707,-3.8707,-3.8707,0.0,0.0,0.0,0.0,0.0,0.0,0.0,0.0,0.0,0.0,0.0,0.0,0.0,0.0,0.0,0.0,0.0,0.0,0.0,0.0,0.0,0.0,0.0,0.0,0.0,0.0,-4.0096,-4.0096,-4.0096,-4.0096,-4.0096,-4.0096,-4.0096,-4.0096,-4.0096,-4.0096,-4.0096,-4.0096,-4.0146,-4.0578,-4.0933,-4.1255,-4.1694,-4.2049,-4.2407,-4.307,-4.3303,-4.344,-4.413,-4.4346,-4.4423,-4.4801,-4.4644,-4.4276,-4.391,-4.3201,-4.2381,-4.164,-4.0937,-4.0368,-4.0146,-4.0096,-4.0096,-4.0096,-4.0096,-4.0096,-4.0096,-4.0096,-4.0096,-4.0096,-4.0096,-4.0096,-4.0096,-3.9688,-3.9209,-3.8778,-3.843,-3.8246,-3.8246,-3.7528,-3.695,-3.663,-3.6196,-3.5814,-3.5537,-3.5504,-3.5504,-3.5504,-3.5504,-3.5504,-3.5504,-3.5504,-3.5504,-3.5504,-3.5504,-3.5504,-3.5504,-3.5504,-3.5504,-3.9264,-3.8961,-3.8735,-3.8735,-3.8719,0.0,-3.8707,-3.8707,-3.8707,-3.8707,0.0,0.0,0.0,0.0,0.0,0.0,0.0,0.0,0.0,0.0,0.0,0.0,0.0,0.0,0.0,0.0,0.0,0.0,0.0,0.0,0.0,0.0,0.0,0.0,0.0,0.0,0.0,0.0,0.0,0.0,-4.0096,-4.0096,-4.0096,-4.0096,-4.0096,-4.0096,-4.0096,-4.0096,-4.0096,-4.0096,-4.0096,-4.0096,-4.0096,-4.0493,-4.1102,-4.1137,-4.1612,-4.2251,-4.2948,-4.3169,-4.326,-4.3821,-4.3999,-4.4021,-4.4067,-4.4044,-4.3862,-4.3178,-4.2943,-4.2745,-4.2005,-4.1402,-4.0874,-4.0385,-4.0171,-4.0096,-4.0096,-4.0096,-4.0096,-4.0096,-4.0096,-4.0096,-4.0096,-4.0096,-4.0096,-4.0096,-4.0096,-4.0096,-4.0096,-3.9463,-3.9005,-3.9005,-3.833,-3.7573,-3.6783,-3.663,-3.6275,-3.5569,-3.5504,-3.5504,-3.5504,-3.5504,-3.5504,-3.5504,-3.5504,-3.5504,-3.5504,-3.5504,-3.5504,-3.5504,-3.5504,-3.5504,-3.9901,-3.9457,0.0,-3.9008,-3.8873,-3.8707,-3.8707,-3.8707,-3.8707,-3.8707,0.0,0.0,0.0,0.0,0.0,0.0,0.0,0.0,0.0,0.0,0.0,0.0,0.0,0.0,0.0,0.0,0.0,0.0,0.0,0.0,0.0,0.0,0.0,0.0,0.0,0.0,-4.0096,-4.0096,-4.0096,0.0,-4.0096,-4.0096,-4.0096,-4.0096,-4.0096,-4.0096,-4.0096,-4.0096,-4.0096,-4.0096,-4.0096,-4.0096,-4.0096,-4.0197,-4.0383,-4.0793,-4.1054,-4.1373,-4.2554,-4.2946,-4.3075,-4.3764,-4.3999,-4.4112,-4.4632,-4.4438,-4.3952,-4.3742,-4.3304,-4.2745,-4.2005,-4.1707,-4.1578,-4.1464,-4.0744,-4.0096,-4.0096,-4.0096,-4.0096,-4.0096,-4.0096,-4.0096,-4.0096,-4.0096,-4.0096,-4.0096,-4.0096,-4.0096,-4.0096,-3.9952,-3.9833,-3.9833,-3.9113,-3.8358,-3.7602,-3.6964,-3.6275,-3.5569,-3.5504,-3.5504,-3.5504,-3.5504,-3.5504,-3.5504,-3.5504,-3.5504,-3.5504,-3.5504,-3.5504,-3.5504,-3.5504,-3.5504,-3.9901,-3.9493,0.0,-3.8933,0.0,-3.8707,-3.8707,-3.8707,-3.8707,0.0,0.0,0.0,0.0,0.0,0.0,0.0,0.0,0.0,0.0,0.0,0.0,0.0,0.0,0.0,0.0,0.0,0.0,0.0,0.0,0.0,0.0,0.0,0.0,0.0,0.0,0.0,-4.0497,-4.0473,-4.0343,-4.0096,-4.0096,-4.0096,-4.0096,-4.0096,-4.0096,-4.0096,-4.0096,-4.0096,-4.0096,-4.0096,-4.0237,-4.0473,-4.0473,-4.0648,-4.0938,-4.1223,-4.1335,-4.1477,-4.2462,-4.281,-4.2905,-4.3542,-4.3766,-4.3826,-4.4193,-4.4041,-4.3736,-4.3722,-4.3463,-4.3105,-4.2709,-4.2424,-4.2223,-4.2223,-4.1331,-4.0473,-4.0473,-4.0286,-4.0096,-4.0096,-4.0096,-4.0096,-4.0096,-4.0096,-4.0096,-4.0096,-4.0096,-4.0096,-4.0096,-4.0096,-4.0096,-4.0096,-3.9714,-3.9156,-3.8386,-3.7946,-3.7217,-3.6086,-3.6038,-3.5863,-3.5504,-3.5504,-3.5504,-3.5504,-3.5504,-3.5504,-3.5504,-3.5504,-3.5504,-3.5504,-3.5504,-3.5504,-3.9765,-3.9438,-3.9112,-3.8844,-3.8777,0.0,-3.8704,-3.8707,-3.8707,0.0,0.0,0.0,0.0,0.0,0.0,0.0,0.0,0.0,0.0,0.0,0.0,0.0,0.0,0.0,0.0,0.0,0.0,0.0,0.0,0.0,0.0,0.0,0.0,0.0,0.0,-4.0475,-4.0642,-4.0666,-4.0466,-4.0042,-4.0161,-4.0286,-4.0385,-4.0385,-4.0336,-4.0254,-4.0254,-4.0286,-4.0385,-4.0385,-4.0648,-4.1064,-4.1064,-4.1358,-4.1793,-4.1916,-4.1958,-4.2041,-4.2637,-4.2845,-4.292,-4.3357,-4.3515,-4.3515,-4.3515,-4.3515,-4.3515,-4.3515,-4.3515,-4.3515,-4.3515,-4.3178,-4.2845,-4.2845,-4.211,-4.1335,-4.0967,-4.0576,-4.0299,-4.0299,-4.04,-4.0485,-4.0485,-4.0485,-4.0485,-4.0485,-4.0485,-4.0434,-4.0316,-4.0299,-4.0248,-4.0113,-4.0096,-3.9782,-3.8962,-3.8908,-3.8314,-3.6904,-3.6676,-3.6337,-3.5733,-3.5569,-3.5504,-3.5504,-3.5504,-3.5504,-3.5504,-3.5504,-3.5504,-3.5504,-3.5504,-3.5504,-4.0051,0.0,-3.945,0.0,-3.9049,-3.8985,0.0,0.0,0.0,0.0,0.0,0.0,0.0,0.0,0.0,0.0,0.0,0.0,0.0,0.0,0.0,0.0,0.0,0.0,0.0,0.0,0.0,0.0,0.0,0.0,0.0,0.0,-3.9939,-3.9572,-3.957,0.0,-3.9608,-3.9782,-3.9836,-3.9761,-4.0446,-4.1064,-4.1556,-4.1556,-4.1291,-4.0803,-4.0803,-4.1087,-4.1556,-4.1556,-4.1617,-4.1686,-4.1686,-4.1729,-4.1874,-4.24,-4.2577,-4.2655,-4.3214,-4.3392,-4.341,-4.348,-4.3515,-4.3515,-4.3515,-4.3515,-4.3515,-4.3515,-4.3515,-4.3515,-4.3515,-4.3444,-4.3392,-4.3392,-4.3447,-4.3025,-4.1272,-4.0962,-4.1052,-4.1052,-4.1559,-4.1999,-4.1999,-4.1999,-4.1999,-4.1999,-4.1999,-4.1779,-4.1136,-4.1052,-4.0798,-4.018,-4.0096,-3.9782,-3.8962,-3.8908,-3.8553,-3.769,-3.701,-3.6554,-3.6477,-3.5846,-3.5504,-3.5504,-3.5504,-3.5504,-3.5504,-3.5504,-3.5504,-3.5504,-3.5504,-3.5504,-4.0139,-3.9992,-3.9797,0.0,-3.9238,-3.9058,-3.8947,0.0,0.0,0.0,0.0,0.0,0.0,0.0,0.0,0.0,0.0,0.0,0.0,0.0,0.0,0.0,0.0,0.0,0.0,0.0,0.0,0.0,0.0,0.0,0.0,-3.9355,-3.9471,-3.9661,-3.9679,0.0,-3.9847,-3.9951,-3.9826,-3.9546,-4.0359,-4.0879,-4.1131,-4.1577,-4.1643,-4.1402,-4.1402,-4.1556,-4.181,-4.181,-4.2,-4.2302,-4.2302,-4.2501,-4.2791,-4.305,-4.316,-4.3178,-4.3427,-4.3515,-4.3515,-4.3515,-4.3515,-4.3515,-4.3515,-4.3515,-4.3515,-4.3515,-4.3515,-4.3515,-4.3515,-4.3515,-4.3515,-4.3515,-4.3688,-4.3658,-4.2753,-4.2475,-4.227,-4.1891,-4.2066,-4.2286,-4.2286,-4.2286,-4.2286,-4.2286,-4.2286,-4.2168,-4.1863,-4.1813,-4.1677,-4.1382,-4.095,-4.0568,-4.0203,-3.9819,-3.9236,-3.8486,-3.8088,-3.7496,-3.6646,-3.6275,-3.5926,-3.5504,-3.5504,-3.5504,-3.5504,-3.5504,-3.5504,-3.5504,-3.5504,-3.5504,0.0,0.0,-4.0139,-3.9808,-3.9541,-3.9327,0.0,0.0,0.0,0.0,0.0,0.0,0.0,0.0,0.0,0.0,0.0,0.0,0.0,0.0,0.0,0.0,0.0,0.0,0.0,0.0,0.0,0.0,0.0,0.0,-3.8707,-3.8707,-3.8982,-3.957,-3.9588,-3.9685,-3.9822,-3.986,-3.9801,-3.9611,-4.0217,-4.0582,-4.0737,-4.1562,-4.194,-4.192,-4.1994,-4.2103,-4.2226,-4.2226,-4.2501,-4.2902,-4.2902,-4.316,-4.3515,-4.3515,-4.3515,-4.3515,-4.3515,-4.3515,-4.3515,-4.3515,-4.3515,-4.3515,-4.3515,-4.3515,-4.3515,-4.3515,-4.3515,-4.3515,-4.3515,-4.3515,-4.3515,-4.3515,-4.3962,-4.4385,-4.4286,-4.391,-4.3489,-4.3175,-4.2979,-4.2861,-4.2861,-4.2861,-4.2861,-4.2861,-4.2861,-4.2794,-4.2608,-4.2574,-4.2506,-4.2303,-4.1813,-4.1407,-4.1221,-4.0696,-4.0035,-3.9236,-3.9016,-3.8381,-3.7231,-3.6813,-3.6337,-3.5782,-3.5587,-3.5504,-3.5504,-3.5504,-3.5504,-3.5504,-3.5504,-3.5504,0.0,-4.0481,0.0,-4.0148,-4.0071,0.0,0.0,0.0,0.0,0.0,0.0,0.0,0.0,0.0,0.0,0.0,0.0,0.0,0.0,0.0,0.0,0.0,0.0,0.0,0.0,0.0,0.0,0.0,0.0,0.0,-3.8707,-3.8707,-3.8726,-3.8762,-3.8762,-3.8765,-3.8771,-3.8969,-3.9428,-4.0166,-4.0202,-4.0528,-4.1103,-4.1908,-4.2273,-4.2276,-4.2557,-4.2939,-4.341,-4.341,-4.3427,-4.3444,-4.3444,-4.348,-4.3515,-4.3515,-4.3515,-4.3515,-4.3515,-4.3515,-4.3515,-4.3515,-4.3515,-4.3515,-4.3515,-4.3515,-4.3515,-4.3515,-4.3515,-4.3515,-4.3515,-4.3515,-4.3515,-4.3515,-4.4673,-4.5676,-4.5316,-4.4769,-4.4532,-4.52,-4.4878,-4.4479,-4.4479,-4.4479,-4.4479,-4.4479,-4.4479,-4.4181,-4.3453,-4.3325,-4.3081,-4.2371,-4.2252,-4.1948,-4.1271,-4.117,-4.0849,-4.0079,-3.9315,-3.8854,-3.8799,-3.7395,-3.6584,-3.6554,-3.5863,-3.5504,-3.5504,-3.5504,-3.5504,-3.5504,-3.5504,-3.5504,0.0,0.0,0.0,-4.0381,-4.0223,-4.0071,0.0,0.0,0.0,0.0,0.0,0.0,0.0,0.0,0.0,0.0,0.0,0.0,0.0,0.0,0.0,0.0,0.0,0.0,0.0,0.0,0.0,0.0,0.0,0.0,-3.8707,-3.8707,-3.8707,-3.8707,-3.8707,-3.8707,-3.8707,-3.8755,-3.8948,-3.9239,-3.975,-4.0123,-4.0359,-4.1167,-4.1534,-4.1554,-4.2171,-4.2846,-4.3515,-4.3515,-4.3515,-4.3515,-4.3515,-4.3515,-4.3515,-4.3515,-4.3515,-4.3515,-4.3515,-4.3515,-4.3515,-4.3515,-4.3515,-4.3515,-4.3515,-4.3515,-4.3515,-4.3515,-4.3515,-4.3515,-4.3515,-4.3515,-4.3772,-4.4782,-4.548,-4.614,-4.703,-4.6762,-4.6159,-4.5621,-4.532,-4.5035,-4.4682,-4.4615,-4.4615,-4.4615,-4.4615,-4.4513,-4.4198,-4.4164,-4.4062,-4.3819,-4.3301,-4.2912,-4.2615,-4.2185,-4.1593,-4.0849,-4.0531,-3.9937,-3.8924,-3.837,-3.786,-3.7397,-3.7115,-3.6492,-3.5504,-3.5504,-3.5504,-3.5504,-3.5504,-3.5504,-4.0496,0.0,0.0,0.0,0.0,-4.0232,0.0,0.0,0.0,0.0,0.0,0.0,0.0,0.0,0.0,0.0,0.0,0.0,0.0,0.0,0.0,0.0,0.0,0.0,0.0,0.0,0.0,0.0,0.0,0.0,-3.8707,-3.8707,-3.8707,-3.8707,-3.8707,-3.8707,-3.8707,-3.8707,-3.8707,-3.8707,-3.9239,-3.9496,-3.9515,-4.0341,-4.0708,-4.0744,-4.1552,-4.2359,-4.3112,-4.3404,-4.3515,-4.3515,-4.3515,-4.3515,-4.3515,-4.3515,-4.3515,-4.3515,-4.3515,-4.3515,-4.3515,-4.3515,-4.3515,-4.3515,-4.3515,-4.3515,-4.3515,-4.3515,-4.3515,-4.3515,-4.3515,-4.3515,-4.3919,-4.5516,-4.5902,-4.6342,-4.7957,-4.7818,-4.715,-4.6305,-4.5783,-4.5355,-4.4971,-4.4748,-4.4615,-4.4615,-4.4615,-4.4615,-4.4615,-4.4615,-4.4615,-4.4615,-4.4113,-4.3707,-4.3409,-4.2963,-4.2252,-4.1271,-4.1204,-4.0624,-3.9348,-3.9059,-3.8663,-3.8161,-3.7921,-3.7294,-3.6258,-3.6258,-3.6133,-3.5863,-3.5863,-3.5718,0.0,0.0,0.0,0.0,0.0,0.0,0.0,0.0,0.0,0.0,0.0,0.0,0.0,0.0,0.0,0.0,0.0,0.0,0.0,0.0,0.0,0.0,0.0,0.0,0.0,0.0,0.0,0.0,0.0,-3.8707,-3.8707,-3.8707,-3.8707,-3.8707,-3.8707,-3.8707,-3.8707,-3.8707,-3.8707,-3.8707,-3.8707,-3.8707,-3.8726,-3.9515,-3.9845,-3.99,-4.0726,-4.1515,-4.2286,-4.3112,-4.3478,-4.3515,-4.3515,-4.3515,-4.3515,-4.3515,-4.3515,-4.3515,-4.3515,-4.3515,-4.3515,-4.3515,-4.3515,-4.3515,-4.3515,-4.3515,-4.3515,-4.3515,-4.3515,-4.3515,-4.3515,-4.3515,-4.39,-4.548,-4.5883,-4.6324,-4.7921,-4.782,-4.7428,-4.7406,-4.6401,-4.5545,-4.5511,-4.5025,-4.4626,-4.4598,-4.4615,-4.4615,-4.4615,-4.4615,-4.4615,-4.4615,-4.4615,-4.4265,-4.3494,-4.3426,-4.2801,-4.1373,-4.1255,-4.0899,-4.0163,-3.9358,-3.8935,-3.8935,-3.8234,-3.7879,-3.7879,-3.7822,-3.7397,-3.663,-3.6615,-3.6196,-4.063,0.0,0.0,0.0,0.0,0.0,0.0,0.0,0.0,0.0,0.0,0.0,0.0,0.0,0.0,0.0,0.0,0.0,0.0,0.0,0.0,0.0,0.0,0.0,0.0,0.0,0.0,0.0,0.0,-3.8707,-3.8707,-3.8707,-3.8707,-3.8707,-3.8707,-3.8707,-3.8707,-3.8707,-3.8707,-3.8707,-3.8707,-3.8707,-3.8707,-3.8927,-3.9038,-3.9074,-3.9882,-4.0359,-4.0671,-4.2066,-4.2965,-4.3515,-4.3515,-4.3515,-4.3515,-4.3515,-4.3515,-4.3515,-4.3515,-4.3515,-4.3515,-4.3515,-4.3515,-4.3515,-4.3515,-4.3515,-4.3515,-4.3515,-4.3515,-4.3515,-4.3515,-4.3515,-4.3772,-4.48,-4.548,-4.6177,-4.7204,-4.7769,-4.7917,-4.747,-4.7128,-4.6589,-4.5648,-4.5372,-4.5115,-4.4682,-4.4615,-4.4615,-4.4615,-4.4615,-4.4615,-4.4615,-4.4615,-4.4513,-4.4282,-4.4265,-4.3842,-4.2861,-4.2286,-4.166,-4.0933,-4.0162,-3.9782,-3.9782,-3.9558,-3.9454,-3.9454,-3.8346,-3.769,-3.7456,-3.6873,-3.6196,-4.0732,-4.0674,-4.0629,0.0,0.0,0.0,0.0,-4.0496,0.0,0.0,0.0,0.0,0.0,0.0,0.0,0.0,0.0,0.0,0.0,0.0,0.0,0.0,0.0,0.0,0.0,0.0,0.0,0.0,-3.8707,-3.8707,-3.8707,-3.8707,-3.8707,-3.8707,-3.8707,-3.8707,-3.8707,-3.8707,-3.8707,-3.8707,-3.8707,-3.8707,-3.8707,-3.8707,-3.8707,-3.8726,-3.9203,-3.9588,-3.9955,-4.091,-4.1956,-4.302,-4.3369,-4.3515,-4.3515,-4.3515,-4.3515,-4.3515,-4.3515,-4.3515,-4.3515,-4.3515,-4.3515,-4.3515,-4.3515,-4.3515,-4.3515,-4.3515,-4.3515,-4.3515,-4.3515,-4.3515,-4.3699,-4.4525,-4.5057,-4.5718,-4.6856,-4.7461,-4.7788,-4.7783,-4.7572,-4.715,-4.6425,-4.5858,-4.5399,-4.5025,-4.4759,-4.4615,-4.4615,-4.4615,-4.4615,-4.4615,-4.4615,-4.4615,-4.4615,-4.4615,-4.4248,-4.3443,-4.2709,-4.1965,-4.1238,-4.0476,-4.0096,-4.0096,-4.0096,-4.0096,-4.0096,-3.9199,-3.8596,-3.8218,-3.7114,-3.6368,-4.0816,-4.0809,-4.0796,0.0,0.0,0.0,-4.0552,-4.0527,0.0,0.0,0.0,0.0,0.0,0.0,0.0,0.0,0.0,0.0,0.0,0.0,0.0,0.0,0.0,0.0,0.0,0.0,0.0,-3.8579,-3.8652,-3.8707,-3.8707,-3.8707,-3.8707,-3.8707,-3.8707,-3.8707,-3.8707,-3.8707,-3.8707,-3.8707,-3.8707,-3.8707,-3.8707,-3.8707,-3.8707,-3.8707,-3.8707,-3.9111,-3.9772,-3.9845,-4.0855,-4.2378,-4.3075,-4.3423,-4.3515,-4.3515,-4.3515,-4.3515,-4.3515,-4.3515,-4.3515,-4.3515,-4.3515,-4.3515,-4.3515,-4.3515,-4.3515,-4.3515,-4.3515,-4.3515,-4.3515,-4.3515,-4.3681,-4.4397,-4.4635,-4.5113,-4.6636,-4.7039,-4.7333,-4.8141,-4.7877,-4.7488,-4.7406,-4.6472,-4.5699,-4.5622,-4.5089,-4.4692,-4.4692,-4.4654,-4.4615,-4.4615,-4.4615,-4.4615,-4.4615,-4.4615,-4.4282,-4.3589,-4.2828,-4.2083,-4.1356,-4.0595,-4.018,-4.0096,-4.0096,-4.0096,-4.0096,-4.0096,-3.9705,-3.8881,-3.7496,-3.6813,0.0,0.0,0.0,0.0,0.0,0.0,-4.0672,-4.0655,0.0,0.0,0.0,0.0,0.0,0.0,0.0,0.0,0.0,0.0,0.0,0.0,0.0,0.0,0.0,0.0,0.0,0.0,-3.7965,-3.7746,-3.8322,-3.8707,-3.8707,-3.8707,-3.8707,-3.8707,-3.8707,-3.8707,-3.8707,-3.8707,-3.8707,-3.8707,-3.8707,-3.8707,-3.8707,-3.8707,-3.8707,-3.8707,-3.8707,-3.8799,-3.8982,-3.9625,-4.0855,-4.2323,-4.247,-4.2928,-4.3515,-4.3515,-4.3515,-4.3515,-4.3515,-4.3515,-4.3515,-4.3515,-4.3515,-4.3515,-4.3515,-4.3515,-4.3515,-4.3515,-4.3515,-4.3515,-4.3515,-4.3515,-4.3551,-4.3699,-4.4232,-4.4966,-4.5938,-4.6636,-4.7333,-4.8141,-4.821,-4.7957,-4.747,-4.7194,-4.6842,-4.6312,-4.5707,-4.532,-4.532,-4.4906,-4.4615,-4.4615,-4.4615,-4.4615,-4.4615,-4.4615,-4.4547,-4.4395,-4.3623,-4.2861,-4.2117,-4.1373,-4.0696,-4.0113,-4.0096,-4.0096,-4.0096,-4.0096,-3.9705,-3.8881,-3.8591,-3.8117,0.0,0.0,0.0,-4.0917,0.0,0.0,0.0,-4.0715,0.0,0.0,0.0,0.0,0.0,0.0,0.0,0.0,0.0,0.0,0.0,0.0,0.0,0.0,0.0,0.0,0.0,0.0,-3.7561,-3.7688,-3.8071,-3.8423,-3.8689,-3.8707,-3.8707,-3.8707,-3.8707,-3.8707,-3.8707,-3.8707,-3.8707,-3.8707,-3.8707,-3.8707,-3.8707,-3.8707,-3.8707,-3.8707,-3.8707,-3.8707,-3.8726,-3.9148,-4.001,-4.1185,-4.1992,-4.2543,-4.2981,-4.3529,-4.3758,-4.3772,-4.3992,-4.405,-4.405,-4.405,-4.405,-4.405,-4.405,-4.405,-4.4004,-4.3804,-4.3758,-4.371,-4.3548,-4.3515,-4.3515,-4.3515,-4.3809,-4.4323,-4.5131,-4.5938,-4.6746,-4.7535,-4.8031,-4.821,-4.7897,-4.7593,-4.7299,-4.6955,-4.6359,-4.584,-4.5545,-4.5232,-4.4934,-4.4626,-4.4615,-4.4615,-4.4615,-4.4615,-4.4615,-4.4615,-4.3842,-4.3081,-4.232,-4.1593,-4.0849,-4.0113,-4.0096,-4.0096,-4.0096,-4.0096,-3.9901,-3.9489,-3.9086,-3.869,0.0,0.0,0.0,0.0,0.0,-4.0996,0.0,0.0,0.0,0.0,0.0,0.0,0.0,0.0,0.0,0.0,0.0,0.0,0.0,0.0,0.0,0.0,0.0,0.0,0.0,0.0,-3.7103,-3.7691,-3.7753,-3.8008,-3.8582,-3.8567,-3.863,-3.8773,-3.8719,-3.8707,-3.8707,-3.8707,-3.8707,-3.8707,-3.8707,-3.8707,-3.8707,-3.8707,-3.8707,-3.8707,-3.8707,-3.8707,-3.8707,-3.8707,-3.9074,-3.9843,-4.1503,-4.2253,-4.2541,-4.3688,-4.4117,-4.4161,-4.4487,-4.4593,-4.4593,-4.4593,-4.4593,-4.4593,-4.4593,-4.4593,-4.4527,-4.4204,-4.4117,-4.4031,-4.3695,-4.3597,-4.358,-4.3513,-4.3515,-4.3718,-4.4544,-4.5223,-4.592,-4.6709,-4.7516,-4.8122,-4.8269,-4.7897,-4.7572,-4.7572,-4.7021,-4.6407,-4.5933,-4.5757,-4.5433,-4.4841,-4.4759,-4.472,-4.4598,-4.4615,-4.4615,-4.4615,-4.3995,-4.3301,-4.254,-4.1677,-4.0849,-4.0113,-4.0096,-4.0096,-4.0096,-4.0096,-4.0096,-4.007,-3.942,-3.9139,0.0,0.0,0.0,0.0,-4.1171,0.0,0.0,0.0,0.0,0.0,0.0,0.0,0.0,0.0,0.0,0.0,0.0,0.0,0.0,0.0,0.0,0.0,0.0,0.0,0.0,0.0,0.0,-3.713,-3.7186,-3.7532,-3.831,-3.812,-3.8329,-3.9026,-3.8815,-3.8707,-3.8707,-3.8707,-3.8707,-3.8707,-3.8707,-3.8707,-3.8707,-3.8707,-3.8707,-3.8707,-3.8707,-3.8707,-3.8707,-3.8707,-3.8762,-3.9032,-4.0937,-4.211,-4.288,-4.4086,-4.4527,-4.454,-4.458,-4.4593,-4.4593,-4.4593,-4.4593,-4.4593,-4.4593,-4.4593,-4.458,-4.454,-4.4527,-4.4447,-4.4046,-4.394,-4.3865,-4.3563,-4.3515,-4.3718,-4.4544,-4.4782,-4.5076,-4.5883,-4.6691,-4.7461,-4.8196,-4.823,-4.8191,-4.8191,-4.7677,-4.7259,-4.7194,-4.6682,-4.6063,-4.5459,-4.5399,-4.5178,-4.4654,-4.4615,-4.4615,-4.4615,-4.4513,-4.4096,-4.3291,-4.1948,-4.0849,-4.0113,-4.0096,-4.0096,-4.0096,-4.0096,-4.0096,-4.0096,-4.002,-3.9952,0.0,0.0,0.0,0.0,0.0,0.0,0.0,0.0,-3.9542,0.0,0.0,0.0,0.0,0.0,0.0,0.0,0.0,0.0,0.0,0.0,0.0,0.0,0.0,0.0,0.0,0.0,0.0,0.0,0.0,-3.6923,-3.7574,-3.7948,-3.8222,-3.8396,-3.8947,-3.9122,-3.8919,-3.9141,-3.9216,-3.9216,-3.9216,-3.9216,-3.9216,-3.9216,-3.9216,-3.9216,-3.9216,-3.9216,-3.9216,-3.9216,-3.9216,-3.9367,-4.0846,-4.1707,-4.2244,-4.342,-4.4284,-4.4919,-4.5118,-4.5171,-4.5171,-4.5171,-4.5171,-4.5171,-4.5171,-4.5171,-4.514,-4.4943,-4.4896,-4.4757,-4.4161,-4.4001,-4.3927,-4.358,-4.3515,-4.3589,-4.392,-4.4378,-4.48,-4.5149,-4.5865,-4.6526,-4.6856,-4.7682,-4.8306,-4.8306,-4.8075,-4.7797,-4.7467,-4.715,-4.6733,-4.6088,-4.6014,-4.5783,-4.5152,-4.5115,-4.4971,-4.4626,-4.4147,-4.3555,-4.2794,-4.1762,-4.0849,-4.0113,-4.0096,-4.0096,-4.0096,-4.0096,-4.0096,-4.0096,-4.0096,-4.0096,-4.1191,0.0,0.0,0.0,0.0,0.0,0.0,0.0,0.0,0.0,0.0,0.0,0.0,0.0,0.0,0.0,0.0,0.0,0.0,0.0,0.0,0.0,0.0,0.0,0.0,0.0,0.0,0.0,0.0,0.0,-3.6956,-3.7471,-3.786,-3.8127,-3.8846,-3.9236,-3.9238,-3.9493,-3.9599,-3.9599,-3.9599,-3.9599,-3.9599,-3.9599,-3.9599,-3.9599,-3.9599,-3.9599,-3.9599,-3.9599,-3.9599,-3.9679,-4.0507,-4.1256,-4.2013,-4.3147,-4.4279,-4.5263,-4.5513,-4.5594,-4.5594,-4.5594,-4.5594,-4.5594,-4.5594,-4.5594,-4.5559,-4.5312,-4.5232,-4.5077,-4.4463,-4.4299,-4.419,-4.3742,-4.3629,-4.3595,-4.3513,-4.3956,-4.4378,-4.4378,-4.5021,-4.5571,-4.5571,-4.6911,-4.7957,-4.7957,-4.8159,-4.8152,-4.7715,-4.7635,-4.7406,-4.6733,-4.6664,-4.643,-4.5808,-4.5597,-4.5258,-4.4626,-4.4045,-4.3386,-4.2625,-4.1897,-4.1153,-4.0434,-4.0214,-4.0096,-4.0096,-4.0096,-4.0096,-4.0096,-4.0096,-4.0096,0.0,0.0,0.0,-4.1191,0.0,0.0,0.0,0.0,-3.8398,0.0,0.0,0.0,0.0,0.0,-3.5399,-3.4488,0.0,0.0,0.0,0.0,0.0,0.0,0.0,0.0,0.0,0.0,0.0,0.0,0.0,0.0,-3.6678,-3.6487,-3.7099,-3.8718,-3.8483,-3.8746,-3.9587,-3.9599,-3.9599,-3.9599,-3.9599,-3.9599,-3.9599,-3.9599,-3.9599,-3.9599,-3.9599,-3.9599,-3.9599,-3.9599,-3.9599,-3.9599,-3.963,-4.0843,-4.2716,-4.3855,-4.4827,-4.5586,-4.5605,-4.5594,-4.5594,-4.5594,-4.5594,-4.5594,-4.5594,-4.5594,-4.5594,-4.5586,-4.5577,-4.5504,-4.5169,-4.5063,-4.4877,-4.4161,-4.3967,-4.3896,-4.3563,-4.3533,-4.3551,-4.3551,-4.4195,-4.4745,-4.4745,-4.6067,-4.7131,-4.7131,-4.7791,-4.8287,-4.8267,-4.8267,-4.8035,-4.7428,-4.7363,-4.7106,-4.643,-4.5833,-4.5258,-4.4626,-4.4581,-4.4198,-4.3392,-4.2658,-4.1914,-4.1187,-4.0468,-4.0096,-4.0096,-4.0096,-4.0096,-4.0096,-4.0096,-4.0096,0.0,0.0,-4.1191,-4.1191,0.0,0.0,0.0,0.0,0.0,0.0,0.0,0.0,0.0,0.0,-3.5699,-3.5286,-3.5436,-3.5498,0.0,0.0,0.0,0.0,0.0,0.0,0.0,0.0,0.0,0.0,0.0,0.0,0.0,-3.6319,-3.6996,-3.7908,-3.8601,-3.928,-3.9932,-4.011,-4.0193,-4.0193,-4.0193,-4.0193,-4.0193,-4.0193,-4.0193,-4.0193,-4.0193,-4.0193,-4.0193,-4.0193,-4.0193,-4.0193,-4.0193,-4.1319,-4.2954,-4.3111,-4.4201,-4.5594,-4.5594,-4.5594,-4.5594,-4.5594,-4.5594,-4.5594,-4.5594,-4.5594,-4.5594,-4.5594,-4.5594,-4.5513,-4.5191,-4.5096,-4.4977,-4.4514,-4.4406,-4.4276,-4.3912,-4.3818,-4.3775,-4.3548,-4.3718,-4.3901,-4.3901,-4.48,-4.5682,-4.6232,-4.6544,-4.6709,-4.6709,-4.6709,-4.6616,-4.6427,-4.6408,-4.6156,-4.5523,-4.5003,-4.463,-4.443,-4.4514,-4.4231,-4.3426,-4.3139,-4.2455,-4.1221,-4.095,-4.0578,-4.0096,-4.0096,-4.0096,-4.0096,-4.0096,-4.0096,-4.1191,-4.1191,0.0,0.0,-4.0312,0.0,-3.9121,0.0,0.0,0.0,0.0,0.0,0.0,0.0,-3.5892,-3.5799,-3.5719,-3.567,0.0,-3.5562,0.0,0.0,0.0,0.0,0.0,0.0,0.0,0.0,-3.55,0.0,0.0,0.0,-3.6557,-3.7201,-3.8266,-3.9157,-3.9811,-4.0271,-4.0496,-4.0496,-4.0496,-4.0496,-4.0496,-4.0496,-4.0496,-4.0496,-4.0496,-4.0496,-4.0496,-4.0496,-4.0496,-4.0535,-4.0835,-4.1835,-4.3069,-4.2851,-4.3971,-4.5594,-4.5594,-4.5594,-4.5594,-4.5594,-4.5594,-4.5594,-4.5594,-4.5594,-4.5594,-4.5594,-4.5594,-4.5559,-4.5332,-4.5292,-4.5201,-4.4861,-4.4788,-4.467,-4.429,-4.4102,-4.394,-4.3726,-4.358,-4.3515,-4.3515,-4.392,-4.4544,-4.5351,-4.5718,-4.5902,-4.5902,-4.5902,-4.5902,-4.5902,-4.5902,-4.5661,-4.5041,-4.4725,-4.4465,-4.4199,-4.4578,-4.4481,-4.3754,-4.3746,-4.3197,-4.2016,-4.1474,-4.0967,-4.0476,-4.0231,-4.0096,-4.0096,-4.0096,-4.0096]},{"header":{"parameterUnit":"m.s-1","parameterCategory":1,"la1":30.6,"la2":29.2853,"lo1":-89.7004,"lo2":-87.6739,"dy":0.0162,"dx":0.0183,"nx":112,"ny":82,"refTime":"2023-05-04T12:00:00:Z","depth":0,"parameterNumber":3,"parameterNumberName":"V-component_of_WINDS"},"data":[0.0,0.0,0.0,0.0,0.0,0.0,0.0,0.0,0.0,0.0,0.0,0.0,0.0,0.0,0.0,0.0,0.0,0.0,0.0,0.0,0.0,0.0,0.0,0.0,0.0,0.0,0.0,0.0,0.0,0.0,0.0,0.0,0.0,0.0,0.0,0.0,0.0,0.0,0.0,0.0,0.0,0.0,0.0,0.0,0.0,0.0,0.0,0.0,0.0,0.0,0.0,0.0,0.0,0.0,0.0,0.0,0.0,0.0,0.0,0.0,0.0,0.0,0.0,0.0,0.0,0.0,0.0,0.0,0.0,0.0,0.0,0.0,0.0,0.0,0.0,0.0,0.0,0.0,0.0,0.0,0.0,0.0,0.0,0.0,0.0,0.0,0.0,0.0,0.0,0.0,0.0,-2.76,-2.76,-2.76,-2.76,-2.76,-2.76,-2.76,0.0,0.0,0.0,0.0,0.0,0.0,0.0,0.0,0.0,0.0,0.0,0.0,0.0,0.0,0.0,0.0,0.0,0.0,0.0,0.0,0.0,0.0,0.0,0.0,0.0,0.0,0.0,0.0,0.0,0.0,0.0,0.0,0.0,0.0,0.0,0.0,0.0,0.0,0.0,0.0,0.0,0.0,0.0,0.0,0.0,0.0,0.0,0.0,0.0,0.0,0.0,0.0,0.0,0.0,0.0,0.0,0.0,0.0,0.0,0.0,0.0,0.0,0.0,0.0,0.0,0.0,0.0,0.0,0.0,0.0,0.0,0.0,0.0,0.0,0.0,0.0,0.0,0.0,0.0,0.0,0.0,0.0,0.0,0.0,0.0,0.0,0.0,0.0,0.0,0.0,0.0,0.0,0.0,0.0,0.0,0.0,0.0,0.0,0.0,0.0,0.0,0.0,0.0,0.0,-2.76,-2.76,-2.76,-2.76,-2.76,-2.76,-2.76,-2.76,0.0,0.0,0.0,0.0,0.0,0.0,0.0,0.0,0.0,0.0,0.0,0.0,0.0,0.0,0.0,0.0,0.0,0.0,0.0,0.0,0.0,0.0,0.0,0.0,0.0,0.0,0.0,0.0,0.0,0.0,0.0,0.0,0.0,0.0,0.0,0.0,0.0,0.0,0.0,0.0,0.0,0.0,0.0,0.0,0.0,0.0,0.0,0.0,0.0,0.0,0.0,0.0,0.0,0.0,0.0,0.0,0.0,0.0,0.0,0.0,0.0,0.0,0.0,0.0,0.0,0.0,0.0,0.0,0.0,0.0,0.0,0.0,0.0,0.0,0.0,0.0,0.0,0.0,0.0,0.0,0.0,0.0,0.0,0.0,0.0,0.0,0.0,0.0,0.0,0.0,0.0,0.0,0.0,0.0,0.0,0.0,0.0,0.0,0.0,0.0,0.0,0.0,0.0,-2.76,-2.76,-2.76,-2.76,-2.76,-2.76,-2.76,-2.76,-2.76,-2.76,0.0,0.0,0.0,0.0,0.0,0.0,0.0,0.0,0.0,0.0,0.0,0.0,0.0,0.0,0.0,0.0,0.0,0.0,0.0,0.0,0.0,0.0,0.0,0.0,0.0,0.0,0.0,0.0,0.0,0.0,0.0,0.0,0.0,0.0,0.0,0.0,0.0,0.0,0.0,0.0,0.0,0.0,0.0,0.0,0.0,0.0,0.0,0.0,0.0,0.0,0.0,0.0,0.0,0.0,0.0,0.0,0.0,0.0,0.0,0.0,0.0,0.0,0.0,0.0,0.0,0.0,0.0,0.0,0.0,0.0,0.0,0.0,0.0,0.0,0.0,0.0,0.0,0.0,0.0,0.0,0.0,0.0,0.0,0.0,0.0,0.0,0.0,0.0,0.0,0.0,0.0,0.0,0.0,0.0,0.0,0.0,0.0,0.0,0.0,0.0,0.0,0.0,-2.76,-2.76,-2.76,-2.76,-2.76,-2.76,-2.76,-2.76,-2.76,-2.76,0.0,0.0,0.0,0.0,0.0,0.0,0.0,0.0,0.0,0.0,0.0,0.0,0.0,0.0,0.0,0.0,0.0,0.0,0.0,0.0,0.0,0.0,0.0,0.0,0.0,0.0,0.0,0.0,0.0,0.0,0.0,0.0,0.0,0.0,0.0,0.0,0.0,0.0,0.0,0.0,0.0,0.0,0.0,0.0,0.0,0.0,0.0,0.0,0.0,0.0,0.0,0.0,0.0,0.0,0.0,0.0,0.0,0.0,0.0,0.0,0.0,0.0,0.0,0.0,0.0,0.0,0.0,0.0,0.0,0.0,0.0,0.0,0.0,0.0,0.0,0.0,0.0,0.0,0.0,0.0,0.0,0.0,0.0,0.0,0.0,0.0,0.0,0.0,0.0,0.0,0.0,0.0,0.0,0.0,0.0,0.0,0.0,0.0,0.0,0.0,0.0,0.0,-2.76,-2.76,-2.76,-2.76,-2.76,-2.76,-2.76,-2.76,-2.76,-2.76,0.0,0.0,0.0,0.0,0.0,0.0,0.0,0.0,0.0,0.0,0.0,0.0,0.0,0.0,0.0,0.0,0.0,0.0,0.0,0.0,0.0,0.0,0.0,0.0,0.0,0.0,0.0,0.0,0.0,0.0,0.0,0.0,0.0,0.0,0.0,0.0,0.0,0.0,0.0,0.0,0.0,0.0,0.0,0.0,0.0,0.0,0.0,0.0,0.0,0.0,0.0,0.0,0.0,0.0,0.0,0.0,0.0,0.0,0.0,0.0,0.0,0.0,0.0,0.0,0.0,0.0,0.0,0.0,0.0,0.0,0.0,0.0,0.0,0.0,0.0,0.0,0.0,0.0,0.0,0.0,0.0,0.0,0.0,0.0,0.0,0.0,0.0,0.0,0.0,0.0,0.0,0.0,0.0,0.0,0.0,0.0,0.0,0.0,0.0,0.0,0.0,0.0,-2.76,-2.76,0.0,-2.76,-2.76,-2.76,-2.76,-2.76,-2.76,0.0,0.0,0.0,0.0,0.0,0.0,0.0,0.0,0.0,0.0,0.0,0.0,0.0,0.0,0.0,0.0,0.0,0.0,0.0,0.0,0.0,0.0,0.0,0.0,0.0,0.0,0.0,0.0,0.0,0.0,0.0,0.0,0.0,0.0,0.0,0.0,0.0,0.0,0.0,0.0,0.0,0.0,0.0,0.0,0.0,0.0,0.0,0.0,0.0,0.0,0.0,0.0,0.0,0.0,0.0,0.0,0.0,0.0,0.0,0.0,0.0,0.0,0.0,0.0,0.0,0.0,0.0,0.0,0.0,0.0,0.0,0.0,0.0,0.0,0.0,0.0,0.0,0.0,0.0,0.0,0.0,0.0,0.0,0.0,0.0,0.0,0.0,0.0,0.0,0.0,0.0,0.0,0.0,0.0,0.0,0.0,0.0,0.0,0.0,0.0,0.0,0.0,-2.76,-2.76,-2.76,0.0,-2.76,-2.76,-2.76,-2.76,-2.76,-2.76,0.0,0.0,0.0,0.0,0.0,0.0,0.0,0.0,0.0,0.0,0.0,0.0,0.0,0.0,0.0,0.0,0.0,0.0,0.0,0.0,0.0,0.0,0.0,0.0,0.0,0.0,0.0,0.0,0.0,0.0,0.0,0.0,0.0,0.0,0.0,0.0,0.0,0.0,0.0,0.0,0.0,0.0,0.0,0.0,0.0,0.0,0.0,0.0,0.0,0.0,0.0,0.0,0.0,0.0,0.0,0.0,0.0,0.0,0.0,0.0,0.0,0.0,0.0,0.0,0.0,0.0,0.0,0.0,0.0,0.0,0.0,0.0,0.0,0.0,0.0,0.0,0.0,0.0,0.0,0.0,0.0,0.0,0.0,0.0,0.0,0.0,0.0,0.0,0.0,0.0,0.0,0.0,0.0,0.0,0.0,0.0,0.0,0.0,0.0,0.0,0.0,0.0,-2.76,-2.76,-2.76,-2.76,-2.76,-2.76,-2.76,-2.76,-2.76,0.0,0.0,0.0,0.0,0.0,0.0,0.0,0.0,0.0,0.0,0.0,0.0,0.0,0.0,0.0,0.0,0.0,0.0,0.0,0.0,0.0,0.0,0.0,0.0,0.0,0.0,0.0,0.0,0.0,0.0,0.0,0.0,0.0,0.0,0.0,0.0,0.0,0.0,0.0,0.0,0.0,0.0,0.0,0.0,0.0,0.0,0.0,0.0,0.0,0.0,0.0,0.0,0.0,0.0,0.0,0.0,0.0,0.0,0.0,0.0,0.0,0.0,0.0,0.0,0.0,0.0,0.0,0.0,0.0,0.0,0.0,0.0,0.0,0.0,0.0,0.0,0.0,0.0,0.0,0.0,0.0,0.0,0.0,0.0,0.0,0.0,0.0,0.0,0.0,0.0,0.0,0.0,0.0,0.0,0.0,0.0,0.0,0.0,0.0,0.0,0.0,0.0,0.0,-2.8293,-2.7899,-2.76,-2.76,-2.76,-2.76,-2.76,-2.76,-2.76,-2.76,0.0,0.0,0.0,0.0,0.0,0.0,0.0,0.0,0.0,0.0,0.0,0.0,0.0,0.0,0.0,0.0,0.0,0.0,0.0,0.0,0.0,0.0,0.0,0.0,0.0,0.0,0.0,0.0,0.0,0.0,0.0,0.0,0.0,0.0,0.0,0.0,0.0,0.0,0.0,0.0,0.0,0.0,0.0,0.0,0.0,0.0,0.0,0.0,0.0,0.0,0.0,0.0,0.0,0.0,0.0,0.0,0.0,0.0,0.0,0.0,0.0,0.0,0.0,0.0,0.0,0.0,0.0,0.0,0.0,0.0,0.0,0.0,0.0,0.0,0.0,0.0,0.0,0.0,0.0,0.0,0.0,0.0,0.0,0.0,0.0,0.0,0.0,0.0,0.0,0.0,0.0,0.0,0.0,0.0,0.0,0.0,0.0,0.0,0.0,0.0,0.0,0.0,-2.8607,-2.8019,-2.76,-2.76,-2.76,-2.76,-2.76,-2.76,-2.76,-2.76,0.0,0.0,0.0,0.0,0.0,0.0,0.0,0.0,0.0,0.0,0.0,0.0,0.0,0.0,0.0,0.0,0.0,0.0,0.0,0.0,0.0,0.0,0.0,0.0,0.0,0.0,0.0,0.0,0.0,0.0,0.0,0.0,0.0,0.0,0.0,0.0,0.0,0.0,0.0,0.0,0.0,0.0,0.0,0.0,0.0,0.0,0.0,0.0,0.0,0.0,0.0,0.0,0.0,0.0,0.0,0.0,0.0,0.0,0.0,0.0,0.0,0.0,0.0,0.0,0.0,0.0,0.0,0.0,0.0,0.0,0.0,0.0,0.0,0.0,0.0,0.0,0.0,0.0,0.0,0.0,0.0,0.0,0.0,0.0,0.0,0.0,0.0,0.0,0.0,0.0,0.0,0.0,0.0,0.0,0.0,0.0,0.0,0.0,0.0,0.0,0.0,0.0,-2.8786,-2.8214,-2.7779,-2.7779,-2.772,-2.769,-2.769,-2.763,-2.76,-2.76,0.0,0.0,0.0,0.0,0.0,0.0,0.0,0.0,0.0,0.0,0.0,0.0,0.0,0.0,0.0,0.0,0.0,0.0,0.0,0.0,0.0,0.0,0.0,0.0,0.0,0.0,0.0,0.0,0.0,0.0,0.0,0.0,0.0,0.0,0.0,0.0,0.0,0.0,0.0,0.0,0.0,0.0,0.0,0.0,0.0,0.0,0.0,0.0,0.0,0.0,0.0,0.0,0.0,0.0,0.0,0.0,0.0,0.0,0.0,0.0,-2.3521,0.0,0.0,0.0,0.0,0.0,0.0,0.0,0.0,0.0,0.0,0.0,0.0,0.0,0.0,0.0,0.0,0.0,0.0,0.0,0.0,0.0,0.0,0.0,0.0,0.0,0.0,0.0,0.0,0.0,0.0,0.0,0.0,0.0,0.0,0.0,0.0,0.0,0.0,0.0,0.0,0.0,-3.0088,-2.9549,-2.9172,-2.9172,-2.8682,-2.8382,-2.8382,-2.7899,-2.76,-2.76,0.0,0.0,0.0,0.0,0.0,0.0,0.0,0.0,0.0,0.0,0.0,0.0,0.0,0.0,0.0,0.0,0.0,0.0,0.0,0.0,0.0,0.0,0.0,0.0,0.0,0.0,0.0,0.0,0.0,0.0,0.0,0.0,0.0,0.0,0.0,0.0,0.0,0.0,0.0,0.0,0.0,0.0,0.0,0.0,0.0,0.0,0.0,0.0,0.0,0.0,0.0,0.0,0.0,0.0,0.0,0.0,0.0,0.0,0.0,0.0,0.0,-2.4018,0.0,0.0,0.0,0.0,0.0,0.0,0.0,0.0,0.0,0.0,0.0,0.0,0.0,0.0,0.0,0.0,0.0,0.0,0.0,0.0,0.0,0.0,0.0,0.0,0.0,0.0,0.0,0.0,0.0,0.0,0.0,0.0,0.0,0.0,0.0,0.0,0.0,0.0,0.0,0.0,-3.0507,-2.9968,-2.9606,-2.9606,-2.9307,-2.9071,-2.9071,-2.8483,-2.8094,-2.8094,-2.7779,0.0,0.0,0.0,0.0,0.0,0.0,0.0,0.0,0.0,0.0,0.0,0.0,0.0,0.0,0.0,0.0,0.0,0.0,0.0,0.0,0.0,0.0,0.0,0.0,0.0,0.0,0.0,0.0,0.0,0.0,0.0,0.0,0.0,0.0,0.0,0.0,0.0,0.0,0.0,0.0,0.0,0.0,0.0,0.0,0.0,0.0,0.0,0.0,0.0,0.0,0.0,0.0,0.0,0.0,0.0,-2.5783,-2.5783,-2.5783,-2.5783,-2.5783,-2.5287,-2.4481,0.0,0.0,0.0,0.0,0.0,0.0,0.0,0.0,0.0,0.0,0.0,0.0,0.0,0.0,0.0,0.0,0.0,0.0,0.0,0.0,0.0,0.0,0.0,0.0,0.0,-2.76,-2.76,0.0,0.0,0.0,0.0,0.0,0.0,0.0,0.0,0.0,0.0,0.0,0.0,-3.0687,-3.0238,-2.9924,-2.9924,-2.9846,-2.9771,-2.9771,-2.9146,-2.8727,-2.8607,-2.8094,-2.772,0.0,0.0,0.0,0.0,0.0,0.0,0.0,0.0,0.0,0.0,0.0,0.0,0.0,0.0,0.0,0.0,0.0,0.0,0.0,0.0,0.0,0.0,0.0,0.0,0.0,0.0,0.0,0.0,0.0,0.0,0.0,0.0,-2.292,-2.2995,0.0,0.0,0.0,0.0,0.0,0.0,0.0,0.0,0.0,0.0,0.0,0.0,0.0,0.0,-2.4292,-2.3514,-2.3813,-2.5259,-2.5259,-2.5973,-2.7316,-2.7316,-2.7316,-2.7316,-2.7316,0.0,-2.5259,-2.5259,0.0,0.0,0.0,0.0,0.0,0.0,0.0,0.0,0.0,0.0,0.0,0.0,0.0,0.0,0.0,0.0,0.0,0.0,0.0,0.0,0.0,0.0,-2.76,-2.76,-2.76,-2.76,0.0,-2.76,-2.763,-2.7705,0.0,0.0,0.0,0.0,0.0,0.0,0.0,0.0,-3.1376,-3.1301,-3.1256,-3.1256,-3.0746,-3.0372,-3.0372,-2.9804,-2.9205,-2.8637,-2.8517,-2.8203,-2.7615,-2.76,0.0,0.0,0.0,0.0,0.0,0.0,0.0,0.0,0.0,0.0,0.0,0.0,0.0,0.0,0.0,0.0,0.0,0.0,0.0,0.0,0.0,0.0,0.0,0.0,0.0,0.0,0.0,0.0,0.0,-2.2511,-2.3108,-2.3108,-2.3108,-2.3108,0.0,0.0,0.0,0.0,0.0,0.0,0.0,0.0,0.0,-2.4908,-2.4076,-2.4047,-2.4894,-2.4043,-2.4137,-2.5235,-2.6024,-2.6976,-2.7998,-2.8497,-2.8723,-2.8723,-2.8723,-2.8157,-2.7149,-2.6345,-2.5563,-2.4922,0.0,0.0,0.0,0.0,0.0,-2.4951,-2.5287,0.0,0.0,0.0,0.0,0.0,0.0,0.0,0.0,0.0,0.0,0.0,0.0,0.0,0.0,-2.76,-2.76,-2.7705,-2.8094,-2.8143,-2.8274,0.0,-2.9487,-3.0223,-3.0612,0.0,0.0,0.0,0.0,0.0,-3.1511,-3.1511,-3.1511,-3.1511,-3.1241,-3.1062,-3.1062,-3.0477,-2.9834,-2.919,-2.8801,-2.8293,-2.763,-2.76,-2.76,0.0,0.0,0.0,0.0,0.0,0.0,0.0,0.0,0.0,0.0,0.0,0.0,0.0,0.0,0.0,0.0,0.0,0.0,0.0,0.0,0.0,0.0,0.0,0.0,0.0,0.0,0.0,0.0,-2.3108,-2.3108,-2.3108,-2.3108,-2.3108,0.0,0.0,0.0,0.0,0.0,0.0,-2.3321,-2.3688,-2.441,-2.5499,-2.4613,-2.4701,-2.5854,-2.518,-2.5101,-2.5631,-2.6927,-2.7794,-2.8325,-2.9195,-2.9606,-2.9606,-2.9606,-2.9337,-2.8775,-2.7551,-2.6494,-2.5673,-2.5673,-2.5563,0.0,-2.5398,-2.5398,-2.5398,-2.5398,-2.5398,-2.5287,-2.4538,0.0,-2.3884,-2.3275,0.0,0.0,0.0,0.0,-2.6669,-2.7408,0.0,-2.7645,-2.7824,-2.7869,-2.8049,-2.8712,-2.8981,-2.919,0.0,-3.0088,-3.0672,-3.1152,0.0,0.0,0.0,0.0,-3.1511,-3.1511,-3.1511,-3.1511,-3.1511,-3.1511,-3.1511,-3.1511,-3.1032,-3.0432,-2.9651,-2.9131,-2.8498,-2.763,-2.76,-2.76,-2.76,0.0,0.0,0.0,0.0,0.0,0.0,0.0,0.0,0.0,0.0,0.0,0.0,0.0,0.0,0.0,0.0,0.0,0.0,0.0,0.0,0.0,0.0,0.0,0.0,0.0,0.0,0.0,0.0,0.0,-2.3108,-2.3108,0.0,0.0,0.0,0.0,-2.3108,-2.3796,-2.4161,-2.396,-2.5276,-2.5977,-2.5893,-2.6589,-2.7021,-2.711,-2.714,-2.7124,-2.7092,-2.7925,-2.8325,-2.8325,-2.9195,-2.9606,-2.9606,-2.9606,-2.9592,-2.9475,-2.879,-2.7674,-2.6457,-2.6457,-2.6014,-2.5398,-2.5398,-2.5398,-2.5398,-2.5398,-2.5398,-2.5287,-2.4538,-2.3767,-2.3155,-2.3108,-2.3649,0.0,0.0,-2.5933,-2.6669,-2.7408,-2.76,-2.7764,-2.8397,-2.8547,-2.8727,-2.9412,-2.9998,-3.0238,0.0,-3.0088,-3.0507,-3.0552,0.0,-3.1511,-3.1511,-3.1511,-3.1511,-3.1511,-3.1511,-3.1511,-3.1511,-3.1511,-3.1511,-3.1511,-3.1466,-3.0913,-2.9696,-2.9577,-2.8963,-2.7645,-2.76,-2.76,-2.76,-2.76,0.0,0.0,0.0,0.0,0.0,0.0,0.0,0.0,0.0,0.0,0.0,0.0,0.0,0.0,0.0,0.0,0.0,0.0,0.0,0.0,0.0,0.0,0.0,0.0,0.0,0.0,0.0,0.0,-2.3108,-2.3108,0.0,0.0,-2.3446,-2.369,-2.369,-2.4253,-2.4844,-2.5348,-2.533,-2.5735,-2.6701,-2.6038,-2.6162,-2.7193,-2.7094,-2.7315,-2.7848,-2.9051,-2.9607,-2.9636,-3.0437,-3.0808,-3.0808,-3.0808,-3.0582,-3.0163,-2.9924,-2.931,-2.85,-2.85,-2.8324,-2.8092,-2.8092,-2.8092,-2.7979,-2.7081,-2.6427,-2.5767,-2.409,-2.3335,-2.3108,-2.3108,-2.3649,-2.4452,-2.5175,-2.5933,-2.677,-2.7932,-2.8233,-2.8397,-2.9071,-2.922,-2.94,-3.0043,-3.0357,-3.0567,-3.0763,-3.0987,-3.1137,-3.1137,-3.1346,-3.1511,-3.1511,-3.1511,-3.1511,-3.1511,-3.1511,-3.1511,-3.1511,-3.1511,-3.1511,-3.1511,-3.1511,-3.0943,-2.9696,-2.9606,-2.9007,-2.766,-2.76,-2.76,-2.76,-2.76,-2.76,0.0,0.0,0.0,0.0,0.0,0.0,0.0,0.0,0.0,0.0,0.0,0.0,0.0,0.0,0.0,0.0,0.0,0.0,0.0,0.0,0.0,0.0,0.0,0.0,0.0,0.0,-2.3108,-2.3108,-2.3283,-2.3396,-2.3396,-2.3941,-2.428,-2.428,-2.4849,-2.539,-2.592,-2.5627,-2.5896,-2.6921,-2.62,-2.6443,-2.7801,-2.7954,-2.8346,-2.893,-3.0127,-3.0554,-3.0329,-3.1117,-3.1511,-3.1511,-3.1511,-3.1241,-3.0851,-3.0851,-3.0612,-3.0193,-2.9786,-2.9606,-2.9525,-2.8987,-2.8805,-2.8565,-2.7085,-2.6262,-2.5602,-2.4142,-2.3672,-2.3672,-2.3672,-2.4214,-2.4935,-2.5418,-2.6316,-2.7326,-2.8265,-2.872,-2.9101,-2.9744,-2.9894,-3.0073,-3.0717,-3.0851,-3.0957,-3.1406,-3.1511,-3.1511,-3.1511,-3.1511,-3.1511,-3.1511,-3.1511,-3.1511,-3.1511,-3.1511,-3.1511,-3.1511,-3.1511,-3.1511,-3.1511,-3.1511,-3.0943,-2.9696,-2.9606,-2.9007,-2.766,-2.76,-2.7705,-2.7944,-2.7944,-2.7926,-2.791,0.0,0.0,0.0,0.0,0.0,0.0,0.0,0.0,0.0,0.0,0.0,0.0,0.0,0.0,0.0,0.0,0.0,0.0,0.0,0.0,0.0,0.0,0.0,-2.3108,-2.312,-2.3133,-2.3133,-2.3665,-2.4017,-2.4017,-2.4519,-2.4813,-2.4813,-2.5484,-2.5844,-2.5719,-2.633,-2.6667,-2.6577,-2.7317,-2.8117,-2.8967,-2.9856,-3.0312,-3.0357,-3.1161,-3.1132,-3.0431,-3.122,-3.1555,-3.1497,-3.1511,-3.1497,-3.1409,-3.1438,-3.1438,-3.1289,-3.0105,-2.9612,-2.9434,-2.785,-2.7248,-2.6996,-2.5415,-2.4865,-2.482,-2.482,-2.4788,-2.4788,-2.4788,-2.5313,-2.5875,-2.5875,-2.7017,-2.824,-2.8326,-2.8961,-2.9732,-3.036,-3.0481,-3.066,-3.1332,-3.1467,-3.1467,-3.1511,-3.1511,-3.1511,-3.1511,-3.1511,-3.1511,-3.1511,-3.1511,0.0,-3.1511,-3.1511,-3.1511,-3.1511,-3.1511,-3.1511,-3.1511,-3.1511,-3.0943,-2.9696,-2.9606,-2.9007,-2.766,-2.76,-2.7914,-2.8562,-2.8562,-2.8525,-2.8463,0.0,0.0,0.0,0.0,0.0,0.0,0.0,0.0,0.0,0.0,0.0,0.0,0.0,0.0,0.0,0.0,0.0,0.0,0.0,0.0,0.0,0.0,-2.3584,-2.3158,-2.3471,-2.3766,-2.3766,-2.4255,-2.4562,-2.4562,-2.5071,-2.5385,-2.5385,-2.5983,-2.6848,-2.801,-2.7103,-2.7095,-2.8266,-2.792,-2.7987,-2.8639,-2.9508,-3.0499,-3.1591,-3.1826,-3.2198,-3.2627,-3.2855,-3.2346,-3.133,-3.1946,-3.1262,-2.9735,-3.0359,-3.0269,-2.9723,-3.0013,-3.0119,-2.9972,-2.8907,-2.8198,-2.7643,-2.6659,-2.5985,-2.5508,-2.4956,-2.4788,-2.4788,-2.4788,-2.4936,-2.5218,-2.5764,-2.6201,-2.6947,-2.8609,-2.9189,-2.9566,-3.0192,-3.0337,-3.0425,-3.06,-3.0614,-3.0807,-3.138,-3.1511,-3.1511,-3.1511,-3.1511,-3.1511,-3.1511,0.0,0.0,-3.1511,-3.1511,-3.1511,-3.1511,-3.1511,-3.1511,-3.1511,-3.1511,-3.0943,0.0,-2.9606,-2.9007,-2.766,-2.76,-2.769,-2.7869,-2.7884,-2.7855,0.0,0.0,0.0,0.0,0.0,0.0,0.0,0.0,0.0,0.0,0.0,0.0,0.0,0.0,0.0,0.0,0.0,0.0,0.0,0.0,0.0,0.0,-2.3778,-2.3966,-2.3822,-2.4098,-2.4343,-2.4343,-2.482,-2.5146,-2.5146,-2.5636,-2.5996,-2.5996,-2.6298,-2.7007,-2.8199,-2.7353,-2.74,-2.8584,-2.8134,-2.8174,-2.8855,-2.9774,-3.0848,-3.2108,-3.2521,-3.296,-3.3499,-3.3499,-3.3015,0.0,-3.2689,-3.2148,-3.0922,-3.1445,-3.0949,0.0,0.0,0.0,0.0,0.0,-2.8307,-2.7332,-2.6889,-2.6472,-2.6071,-2.5651,-2.5511,-2.5511,-2.5511,-2.5511,-2.5597,-2.6038,-2.64,-2.6977,-2.8288,-2.8909,-2.9282,-2.9667,-2.9766,-2.9766,-2.9766,-3.0042,-3.0419,-3.0896,0.0,0.0,-3.1511,-3.1511,-3.1511,-3.1511,-3.1511,-3.1511,0.0,-3.1511,-3.1511,-3.1511,-3.1511,-3.1511,-3.1511,-3.1241,0.0,0.0,0.0,-2.8723,-2.7645,-2.7869,0.0,0.0,0.0,-2.8391,0.0,0.0,0.0,0.0,-3.1035,-3.119,0.0,0.0,0.0,0.0,0.0,0.0,0.0,0.0,0.0,0.0,0.0,0.0,0.0,0.0,0.0,0.0,-2.4142,-2.4356,-2.4813,-2.4938,-2.4983,-2.4888,-2.5372,-2.5686,-2.5686,-2.6197,-2.6524,-2.6587,-2.6587,-2.6861,-2.7508,0.0,0.0,0.0,0.0,-2.8618,-2.9358,-3.0261,-3.1205,-3.2162,-3.3008,-3.3508,-3.3724,-3.3724,-3.3648,-3.3466,-3.3573,-3.339,-3.3053,-3.3161,-3.2265,-3.0704,-2.9378,-2.9286,-2.9797,-2.9002,-2.7769,0.0,0.0,0.0,0.0,-2.6499,-2.6499,-2.6499,-2.6499,-2.6499,-2.6499,-2.6499,-2.7007,-2.7571,-2.767,-2.8266,-2.8844,-2.8844,-2.8844,-2.8844,-2.8844,-2.9473,-3.0042,-3.0269,-3.0807,-3.1248,-3.1351,-3.1438,-3.1511,-3.1511,-3.1511,0.0,-3.1511,-3.1511,-3.1511,-3.1511,0.0,0.0,-3.1511,-3.0883,-3.0238,-2.9651,-2.8891,-2.8203,-2.7615,-2.8184,-2.8203,-2.76,-2.8696,-2.9294,-2.9293,-2.9892,-3.0497,-3.1095,-3.1171,-3.119,0.0,0.0,0.0,0.0,0.0,0.0,0.0,0.0,0.0,0.0,0.0,0.0,0.0,0.0,0.0,-2.4569,-2.5008,-2.5322,-2.5435,-2.585,-2.5996,-2.5498,-2.5984,-2.6336,-2.6336,-2.6424,-2.6675,-2.7128,-2.7165,-2.7697,-2.893,-2.8318,0.0,-2.9112,-2.9148,-2.9109,-2.901,-2.9876,-3.1042,-3.2507,0.0,0.0,-3.5115,-3.5115,-3.4419,-3.331,-3.401,-3.2778,-3.0324,-3.1032,-3.029,-2.864,-2.8145,-2.767,-2.7196,-2.704,-2.6782,-2.6499,-2.6499,-2.6499,-2.6499,-2.6499,-2.6499,-2.6499,-2.6499,-2.6499,0.0,-2.6499,-2.6624,-2.6871,-2.755,-2.7835,-2.7953,-2.7953,-2.7953,-2.7953,-2.7953,-2.8084,-2.862,-3.0042,-2.9858,-2.969,-3.0419,-3.1058,-3.1511,-3.1511,-3.1511,-3.1511,-3.1511,-3.1511,-3.1511,-3.1511,-3.1511,-3.1511,-3.1511,-3.0883,-3.0238,-2.9651,-2.8468,-2.7735,-2.76,-2.772,-2.7735,-2.76,-2.7846,-2.8189,-2.8677,-2.9271,-2.987,-3.0477,-3.0975,-3.119,0.0,0.0,0.0,0.0,0.0,0.0,0.0,0.0,0.0,0.0,0.0,-2.3653,0.0,0.0,-2.4594,-2.5121,-2.5423,-2.5699,-2.6021,-2.6311,-2.6386,-2.6097,-2.6323,-2.66,-2.6876,-2.6901,-2.714,-2.7657,-2.7695,-2.8138,-2.9108,-2.8757,-2.8859,-2.9571,-2.9608,-2.9539,-2.9352,-3.0268,-3.1096,-3.1924,-3.2393,-3.3101,-3.4056,-3.4056,-3.3616,-3.2928,-3.335,-3.2607,-3.1018,-3.0699,-3.0078,-2.9179,-2.8244,-2.7478,-2.6936,-2.7336,-2.7067,-2.6499,-2.6499,-2.6499,-2.6499,-2.6499,-2.6499,-2.6499,-2.6499,-2.6499,-2.6499,-2.6499,-2.6499,-2.6589,-2.7007,-2.7095,-2.7095,-2.7095,-2.7095,-2.7095,-2.7095,-2.7417,-2.7953,-2.8844,-2.9002,-2.9129,-2.9566,-2.9981,-3.0389,-3.0837,-3.0896,-3.1029,-3.1438,-3.1511,-3.1511,-3.1511,-3.1511,-3.1361,-3.1017,-3.0118,-2.928,-2.8648,-2.7959,-2.76,-2.76,-2.76,-2.76,-2.76,-2.791,-2.8213,-2.8487,-2.9104,-2.9563,-2.9848,-3.0477,-3.0898,0.0,0.0,0.0,0.0,0.0,0.0,0.0,0.0,-2.248,-2.3137,-2.3722,-2.4192,-2.4293,-2.4669,-2.5146,-2.5674,-2.5762,-2.5925,-2.6424,-2.6499,-2.6537,-2.6637,-2.665,-2.6839,-2.7278,-2.7381,-2.767,-2.8222,-2.826,-2.8511,-2.9026,-2.9051,-2.9365,-2.993,-2.9955,-3.0005,-3.0105,-3.088,-3.1335,-3.151,-3.2262,-3.2681,-3.2773,-3.2773,-3.2704,-3.2593,-3.2429,-3.2321,-3.2208,-3.0851,-3.0291,-3.0166,-2.8932,-2.8097,-2.7689,-2.8217,-2.7734,-2.6801,-2.6688,-2.665,-2.6637,-2.6524,-2.6499,-2.6499,-2.6499,-2.6499,-2.6499,-2.6499,-2.6499,-2.6499,-2.6499,-2.6499,-2.6499,-2.6499,-2.6499,-2.6499,-2.6499,-2.7007,-2.7517,-2.767,-2.8149,-2.8556,-2.8716,-2.862,-2.8876,-2.9889,-3.0208,-3.0524,-3.119,-3.1409,-3.1511,-3.1511,-3.1511,-3.1182,-3.0387,-2.9385,-2.8442,-2.7645,-2.76,-2.76,-2.76,-2.76,-2.76,-2.76,-2.8091,-2.8367,-2.8487,-2.8989,-2.9293,-2.9406,-2.9892,-3.0456,-2.1585,-2.2187,-2.2884,-2.3035,-2.3035,-2.2975,0.0,0.0,-2.381,-2.3873,-2.4343,-2.487,-2.5335,-2.5473,-2.5699,-2.6298,-2.6399,-2.6411,-2.6487,-2.6499,-2.6675,-2.7165,-2.7228,-2.7218,-2.7268,-2.772,-2.8247,-2.8762,-2.88,-2.9089,-2.9666,-2.9691,-2.9955,-3.0507,-3.052,-3.0746,-3.121,-3.1319,-3.1803,-3.2633,-3.275,-3.2957,-3.3321,-3.3321,-3.3032,-3.2558,-3.1706,-3.1352,-3.1278,-3.0291,-2.9884,-2.9833,-2.9667,-2.9252,-2.8687,-2.8294,-2.8044,-2.7846,-2.7392,-2.7228,-2.714,-2.665,-2.6499,-2.6499,-2.6499,-2.6499,-2.6499,-2.6499,-2.6499,-2.6499,-2.6499,-2.6499,-2.6499,-2.6499,-2.6499,-2.6499,-2.6499,-2.6555,-2.685,-2.7571,-2.7196,-2.7007,-2.7736,-2.7263,-2.7317,-2.8907,-2.9797,-3.0329,-3.0419,-3.1058,-3.1511,-3.1511,-3.1511,-3.1002,-2.9789,-2.9577,-2.8963,-2.7675,-2.76,-2.76,-2.76,-2.76,-2.76,-2.76,-2.7675,-2.7968,-2.8487,-2.8559,-2.8873,-2.9406,-2.9473,-2.9827,-2.1616,-2.2137,0.0,0.0,-2.3244,-2.3088,-2.3916,-2.3899,-2.3867,-2.4373,-2.4895,-2.5335,-2.5548,-2.5908,-2.621,0.0,-2.6499,-2.6499,-2.6499,-2.6776,-2.7065,-2.7256,-2.7846,-2.8235,-2.8235,-2.8411,-2.8812,-2.939,-2.9428,-2.9679,-3.0244,-3.0269,-3.052,-3.1047,-3.1072,-3.1173,-3.1386,-3.1386,-3.1618,-3.1996,-3.1996,-3.2054,-3.2241,-3.2241,-3.194,-3.1418,-3.101,-3.0689,-3.0343,-2.9972,-2.9792,-2.9792,-2.9792,-2.9641,-2.9365,-2.88,-2.8386,-2.8072,-2.7846,-2.7758,-2.772,-2.7494,-2.7241,-2.6977,-2.6977,-2.6751,-2.6499,-2.6499,-2.6499,-2.6499,-2.6499,-2.6499,-2.6499,-2.6499,-2.6499,-2.6499,-2.6499,-2.6499,-2.6589,-2.6939,-2.6714,-2.6624,-2.6939,-2.6714,-2.6748,-2.7451,-2.8247,-2.916,-3.0178,-3.0584,-3.097,-3.1438,-3.1152,-3.0717,-3.0163,-2.9789,-2.9202,-2.8233,-2.8173,-2.8019,-2.7615,-2.76,-2.76,-2.76,-2.76,-2.771,-2.7984,-2.7984,-2.8116,-2.8352,-2.8709,-2.9425,-2.1833,0.0,0.0,-2.3897,-2.3749,-2.3547,-2.4559,-2.4419,-2.4195,-2.4563,-2.5282,-2.5757,-2.5475,-2.6027,-2.6499,-2.6499,-2.6499,-2.6499,-2.6499,-2.6964,-2.7344,-2.7494,-2.8348,-2.895,-2.9113,-2.9126,-2.934,-2.9767,-2.993,-3.0193,-3.0595,-3.0758,-3.1072,-3.1599,-3.1625,-3.1687,-3.1851,-3.1851,-3.1851,-3.1851,-3.1851,-3.1763,-3.1612,-3.1461,-3.1185,-3.0834,-3.0834,-3.052,-3.0018,-3.0018,-2.993,-2.9792,-2.9792,-2.9792,-2.9741,-2.9315,-2.8913,-2.8549,-2.8386,-2.8335,-2.831,-2.816,-2.7833,-2.7507,-2.7507,-2.7231,-2.6914,-2.6763,-2.6725,-2.6688,-2.6537,-2.6499,-2.6499,-2.6499,-2.6499,-2.6499,-2.6499,-2.6499,-2.6499,-2.6499,-2.6499,-2.6499,-2.6499,-2.6499,-2.6499,-2.6499,-2.7007,-2.792,-2.938,-3.0011,-3.0524,-3.1117,-3.0933,-3.0717,-3.0522,-3.0088,-2.9564,-2.8906,-2.8876,-2.8678,-2.8169,-2.8154,-2.8154,-2.8154,-2.8154,-2.8154,-2.8154,-2.8154,-2.8154,-2.818,-2.8606,-2.9406,-2.2856,0.0,-2.352,-2.4511,-2.4763,-2.473,-2.4788,-2.5176,-2.5294,-2.4414,-2.5399,-2.6173,-2.5205,-2.5826,-2.6499,-2.6499,-2.6499,-2.6499,-2.6499,-2.6964,-2.7482,-2.8009,-2.8549,-2.9113,0.0,-2.9767,-2.9779,-2.9792,-3.0281,-3.0595,-3.062,-3.1085,-3.1625,-3.2177,-3.219,-3.2453,-3.3061,-3.3074,-3.3074,-3.3074,-3.3074,-3.2729,-3.2177,-3.1637,-3.1386,-3.1361,-3.1361,-3.1072,-3.0595,-3.0595,-3.0281,-2.9792,-2.9792,-2.9792,-2.9792,-2.9779,-2.9754,-2.9666,-2.9063,-2.8863,-2.8775,-2.8285,-2.8097,-2.8084,-2.8084,-2.8072,-2.7946,-2.7406,-2.7291,-2.7165,-2.6637,-2.6499,-2.6499,-2.6499,-2.6499,-2.6499,-2.6499,-2.6499,-2.6499,-2.6499,-2.6499,-2.6499,-2.6499,-2.6499,-2.6499,-2.6499,-2.6521,-2.685,-2.767,-2.9254,-3.0299,-3.0329,-3.1014,-3.1212,-3.0567,-3.0492,-3.0208,-2.9621,-2.9577,-2.9577,-2.9547,-2.9547,-2.9547,-2.9547,-2.9547,-2.9547,-2.9547,-2.9547,-2.9547,-2.9547,-2.9574,-2.9891,-2.2862,-2.3356,-2.3751,-2.5004,-2.5335,-2.5435,-2.5858,-2.5549,-2.5093,-2.4813,-2.4614,-2.4397,-2.4072,-2.4814,-2.5511,-2.5511,-2.606,-2.6499,-2.6499,-2.7291,-2.7896,-2.8084,-2.8925,0.0,0.0,0.0,0.0,-3.0306,-3.0507,-3.0922,-3.1637,-3.1838,-3.2202,-3.2767,-3.278,-3.288,-3.3124,-3.3124,-3.3124,-3.3124,-3.3124,-3.2968,-3.278,-3.2591,-3.2303,-3.1938,-3.1938,-3.1637,-3.1097,-3.0758,-3.0507,-3.0306,-2.993,-2.9792,-2.9792,-2.9792,-2.9792,-2.9767,-2.9566,-2.9503,-2.9478,-2.9289,-2.8963,-2.8612,-2.8612,-2.8398,-2.8059,-2.7883,-2.7821,-2.7783,-2.7607,-2.7281,-2.704,-2.704,-2.6763,-2.6499,-2.6499,-2.6499,-2.6499,-2.6499,-2.6499,-2.6499,-2.6499,-2.6499,-2.6499,-2.6499,-2.6939,-2.7604,-2.846,-2.9566,-3.0494,-3.1029,-3.1351,-3.1406,-3.1182,-3.1152,-3.0883,-3.0238,-3.0193,-3.0013,-2.9621,-2.9606,-2.9606,-2.9606,-2.9606,-2.9606,-2.9606,-2.9606,-2.9606,-2.9606,-2.9606,-3.0194,-2.2832,-2.3167,-2.3283,-2.4525,-2.4862,-2.4947,-2.5344,-2.4921,-2.4373,-2.4,-2.3708,-2.3404,-2.3036,-2.4072,-2.4898,-2.4528,-2.5288,-2.5943,-2.5943,-2.688,-2.7705,-2.8073,-2.9101,-2.9792,0.0,0.0,0.0,-3.0583,-3.0783,-3.1273,-3.2164,-3.2403,-3.2692,-3.3111,-3.3124,-3.3124,-3.3124,-3.3124,-3.3124,-3.3124,-3.3124,-3.3124,-3.3124,-3.3124,-3.2867,-3.2516,-3.2516,-3.2202,-3.1662,-3.1323,-3.1072,-3.0834,-3.0294,-3.0093,-3.0068,-2.9867,-2.9792,-2.9792,-2.9792,-2.9792,-2.9792,-2.9792,-2.9541,-2.9239,-2.9239,-2.8988,-2.8662,-2.8461,-2.8398,-2.8348,-2.816,-2.7846,-2.7582,-2.7582,-2.7306,-2.7027,-2.6839,-2.6788,-2.6738,-2.6537,-2.6499,-2.6499,-2.6499,-2.6499,-2.6499,-2.6499,-2.6939,-2.7484,-2.8019,-2.8844,-2.969,-3.0524,-3.0896,-3.119,-3.1467,-3.1511,-3.1316,-3.0868,-3.0866,-3.0687,-3.0298,-3.0283,-3.0283,-3.0283,-3.0283,-3.0283,-3.0283,-3.0283,-3.0283,-3.0283,-3.0283,-3.0727,-2.2794,-2.2776,-2.2291,-2.3257,-2.3514,-2.3514,-2.3514,-2.3441,-2.3147,-2.2215,-2.2739,-2.3073,0.0,0.0,-2.4564,-2.3672,-2.4337,-2.5016,-2.5087,-2.5994,-2.7026,0.0,0.0,0.0,0.0,0.0,0.0,-3.0658,0.0,-3.1675,-3.2227,-3.278,-3.3124,-3.3124,-3.3124,-3.3124,-3.3124,-3.3124,-3.3124,-3.3124,-3.3124,-3.3124,-3.3124,-3.3124,-3.3124,-3.3124,-3.3124,-3.2767,-3.2252,-3.2227,-3.1901,-3.1386,-3.0859,-3.0633,-3.0557,-3.003,-2.9817,-2.9792,-2.9792,-2.9792,-2.9792,-2.9792,-2.9792,-2.9792,-2.9792,-2.9792,-2.9679,-2.9126,-2.8938,-2.8813,-2.8335,-2.8172,-2.8147,-2.8147,-2.8122,-2.7959,-2.7444,-2.7341,-2.7165,-2.6637,-2.6512,-2.6499,-2.6499,-2.6499,-2.6499,-2.6499,-2.6499,-2.6499,-2.6555,-2.7229,-2.8051,-2.8971,-2.9827,-3.0614,-3.1438,-3.1511,-3.1511,-3.1511,-3.1511,-3.1511,-3.1511,-3.1511,-3.1511,-3.1511,-3.1511,-3.1511,-3.1511,-3.1511,-3.1511,-3.1511,-3.1511,-3.1511,-2.2126,-2.2739,-2.3184,-2.3441,-2.3514,-2.3514,-2.3514,-2.2925,-2.2328,-2.2065,-2.1631,-2.127,0.0,0.0,0.0,-2.3404,-2.4337,0.0,-2.6025,-2.7024,0.0,-2.8073,0.0,-2.9792,-2.9792,-3.0294,0.0,0.0,-3.17,-3.2252,-3.283,-3.3006,-3.3124,-3.3124,-3.3124,-3.3124,-3.3124,-3.3124,-3.3124,-3.3124,-3.3124,-3.3124,-3.3124,-3.3124,-3.3124,-3.3124,-3.3124,-3.2993,-3.283,-3.239,-3.2127,-3.1951,-3.1411,-3.0959,-3.0595,-3.0457,-3.0143,-2.9792,-2.9792,-2.9792,-2.9792,-2.9792,-2.9792,-2.9792,-2.9792,-2.9792,-2.9767,-2.9616,-2.9578,-2.9541,-2.9402,-2.9038,-2.8687,-2.8687,-2.8398,-2.8059,-2.7921,-2.757,-2.7278,-2.714,-2.6776,-2.6499,-2.6499,-2.6499,-2.6499,-2.6499,-2.6499,-2.6714,-2.7317,-2.7571,-2.8266,-2.9827,-3.0178,-3.0614,-3.1438,-3.1511,-3.1511,-3.1511,-3.1511,-3.1511,-3.1511,-3.1511,-3.1511,-3.1511,-3.1511,-3.1511,-3.1511,-3.1511,-3.1511,-3.1511,-3.1511,-3.1511,-2.1814,-2.2113,-2.2226,-2.2226,-2.2226,-2.2226,-2.2226,-2.1783,-2.1375,-2.1375,-2.0972,0.0,-2.0605,0.0,0.0,0.0,0.0,0.0,-2.4505,-2.6214,-2.7434,0.0,-2.8849,0.0,-2.9792,-3.0495,-3.1085,0.0,-3.1901,-3.2466,-3.3086,-3.3124,-3.3124,-3.3124,-3.3124,-3.3124,-3.3124,-3.3124,-3.3124,-3.3124,-3.3124,-3.3124,-3.3124,-3.3124,-3.3124,-3.3124,0.0,-3.3124,-3.3056,-3.2717,-3.2591,-3.2541,-3.1964,-3.1574,-3.126,-3.0783,-3.0419,-3.0118,-2.988,-2.9792,-2.9792,-2.9792,-2.9792,-2.9792,-2.9792,-2.9792,-2.9792,-2.9792,-2.9792,-2.9792,-2.9792,-2.9553,-2.9302,-2.9302,-2.9076,-2.8775,-2.8524,-2.8222,-2.7858,-2.7369,-2.7065,-2.6788,-2.6537,-2.6499,-2.6499,-2.6499,-2.6499,-2.6658,-2.7129,-2.7162,-2.767,-2.9034,-2.9504,-3.0072,-3.0896,-3.1307,-3.1511,-3.1511,-3.1511,-3.1511,-3.1511,-3.1511,-3.1511,-3.1511,-3.1511,-3.1511,-3.1511,-3.1511,-3.1511,-3.1511,-3.1511,-3.1511,-2.1573,-2.1231,-2.0605,-2.0605,-2.0605,-2.0605,-2.0605,-2.0605,-2.0605,-2.0605,0.0,-2.0605,-2.0605,-2.126,-2.1593,-2.0895,0.0,-2.3036,-2.2291,-2.4551,-2.6368,-2.659,-2.8292,-2.9588,-2.9779,-3.0758,-3.1386,-3.1386,-3.1964,-3.2554,-3.3056,-3.3124,-3.3124,-3.3124,-3.3124,-3.3124,-3.3124,-3.3124,-3.3124,-3.3124,-3.3124,-3.3124,-3.3124,-3.3124,-3.3124,-3.3124,0.0,0.0,-3.3124,-3.3124,-3.3124,-3.3074,-3.2516,-3.2277,-3.2089,-3.1085,-3.067,-3.0532,-2.998,-2.9792,-2.9792,-2.9792,-2.9792,-2.9792,-2.9792,-2.9792,-2.9792,-2.9792,-2.9792,-2.9792,-2.9792,-2.9792,-2.9792,-2.9792,-2.9792,-2.9654,-2.9113,-2.895,-2.8587,-2.7595,-2.7331,-2.7165,-2.6688,-2.6549,-2.6499,-2.6499,-2.6499,-2.6499,-2.6499,-2.6499,-2.6816,-2.7604,-2.8363,-2.9223,-3.0238,-3.094,-3.138,-3.1511,-3.1511,-3.1511,-3.1511,-3.1511,-3.1511,-3.1511,-3.1511,-3.1511,-3.1511,-3.1511,-3.1511,-3.1511,-3.1511,-3.1511,-2.0681,-2.0712,-2.0605,-2.0605,-2.0605,-2.0605,-2.0605,-2.0605,0.0,0.0,-2.0605,-2.0605,-2.0605,-2.075,-2.1039,-2.1659,0.0,0.0,0.0,0.0,-2.5168,0.0,0.0,0.0,0.0,0.0,0.0,0.0,0.0,0.0,-3.3111,-3.3124,-3.3124,-3.3124,-3.3124,-3.3124,-3.3124,-3.3124,-3.3124,-3.3124,-3.3124,-3.3124,-3.3124,-3.3124,-3.3124,-3.3124,0.0,0.0,-3.3124,-3.3124,-3.3124,-3.3111,-3.2968,-3.2641,-3.2139,-3.1486,-3.0984,-3.0532,-2.998,-2.9792,-2.9792,-2.9792,-2.9792,-2.9792,-2.9792,-2.9792,-2.9792,-2.9792,-2.9792,-2.9792,-2.9792,-2.9792,-2.9792,-2.9792,-2.9792,-2.9767,-2.9666,-2.9264,-2.87,-2.8084,-2.7595,-2.7291,-2.719,-2.6801,-2.6499,-2.6499,-2.6499,-2.6499,-2.6499,-2.6499,-2.6816,-2.7604,-2.7835,-2.8556,-3.0178,-3.0419,-3.0807,-3.1467,-3.1511,-3.1511,-3.1511,-3.1511,-3.1511,-3.1511,-3.1511,-3.1511,-3.1511,-3.1511,-3.1511,-3.1511,-3.1511,-3.1511,-2.0546,-2.0605,-2.0605,-2.0605,-2.0605,-2.0605,-2.0605,0.0,0.0,0.0,-2.0605,-2.0605,-2.0605,-2.0605,0.0,-2.1193,0.0,0.0,0.0,0.0,0.0,0.0,0.0,0.0,0.0,0.0,0.0,0.0,0.0,0.0,-3.3124,-3.3124,-3.3124,-3.3124,-3.3124,-3.3124,-3.3124,-3.3124,-3.3124,-3.3124,-3.3124,-3.3124,-3.3124,-3.3124,-3.3124,-3.3124,0.0,0.0,-3.3124,-3.3124,-3.3124,-3.3124,-3.3124,-3.2905,-3.2591,-3.2026,-3.1486,-3.0947,-3.0407,-3.003,-2.9792,-2.9792,-2.9792,-2.9792,-2.9792,-2.9792,-2.9792,-2.9792,-2.9792,-2.9792,-2.9792,-2.9792,-2.9792,-2.9792,-2.9792,-2.9792,-2.9792,-2.9578,-2.9214,-2.8649,-2.8323,-2.8047,-2.7758,-2.7291,-2.6927,-2.6927,-2.6675,-2.6499,-2.6499,-2.6499,-2.6658,-2.704,-2.7451,-2.8214,-2.9504,-3.0042,-3.0644,-3.1438,-3.1511,-3.1511,-3.1511,-3.1511,-3.1511,-3.1511,-3.1511,-3.1511,-3.1511,-3.1511,-3.1511,-3.1511,-3.1511,-3.1511,-2.0605,-2.0605,-2.0605,-2.0605,-2.0605,-2.0605,-2.0605,-2.0605,0.0,-2.0605,-2.0605,-2.0605,-2.0605,-2.0605,-2.0605,0.0,-2.1231,-2.1441,0.0,0.0,0.0,0.0,0.0,0.0,0.0,0.0,0.0,0.0,0.0,0.0,0.0,-3.3124,-3.3124,-3.3124,-3.3124,-3.3124,-3.3124,-3.3124,-3.3124,-3.3124,-3.3124,-3.3124,-3.3124,-3.3124,-3.3124,-3.3124,0.0,0.0,0.0,-3.3124,-3.3124,-3.3124,-3.3124,-3.3124,-3.3048,-3.2428,-3.1938,-3.1474,-3.0834,-3.0331,-2.9942,-2.9829,-2.9792,-2.9792,-2.9792,-2.9792,-2.9792,-2.9792,-2.9792,-2.9792,-2.9792,-2.9792,-2.9792,-2.9792,-2.9792,-2.9792,-2.9792,-2.9792,-2.9654,-2.9164,-2.8976,-2.875,-2.836,-2.7821,-2.7419,-2.7341,-2.6952,-2.6625,-2.6512,-2.6499,-2.6499,-2.6499,-2.7061,-2.7802,-2.8652,-2.9504,-3.0359,-3.119,-3.1409,-3.1511,-3.1511,-3.1511,-3.1511,-3.1511,-3.1511,-3.1511,-3.1511,-3.1511,-3.1511,-3.1511,-3.1511,-3.1511,-2.0605,-2.0605,-2.0605,-2.0605,-2.0605,-2.0605,-2.0605,0.0,-2.0605,-2.0605,-2.0605,-2.0605,-2.0605,-2.0605,-2.0605,-2.0605,-2.0673,-2.0712,0.0,0.0,0.0,0.0,0.0,0.0,0.0,0.0,0.0,0.0,0.0,0.0,0.0,-3.3124,-3.3124,-3.3124,-3.3124,-3.3124,-3.3124,-3.3124,-3.3124,-3.3124,-3.3124,-3.3124,-3.3124,-3.3124,-3.3124,-3.3124,0.0,0.0,0.0,-3.3124,-3.3124,-3.3124,-3.3124,-3.3124,-3.3048,-3.2428,-3.2177,-3.1989,-3.0972,-3.0583,-3.0457,-2.9955,-2.9792,-2.9792,-2.9792,-2.9792,-2.9792,-2.9792,-2.9792,-2.9792,-2.9792,-2.9792,-2.9792,-2.9792,-2.9792,-2.9792,-2.9792,-2.9792,-2.9779,-2.9729,-2.9289,-2.8875,-2.8825,-2.8398,-2.7858,-2.7356,-2.7278,-2.7065,-2.6562,-2.6499,-2.6499,-2.6499,-2.6555,-2.6939,-2.7769,-2.862,-2.9473,-3.0359,-3.1087,-3.1511,-3.1511,-3.1511,-3.1511,-3.1511,-3.1511,-3.1511,-3.1511,-3.1511,-3.1511,-3.1511,-3.1511,-3.1511,-2.0245,-2.0128,-1.9795,-2.044,-2.0605,-2.0605,-2.0605,0.0,-2.0605,-2.0605,-2.0605,-2.0605,-2.0605,-2.0605,-2.0605,-2.0605,-2.0605,-2.0605,-2.0605,0.0,0.0,0.0,0.0,0.0,0.0,0.0,0.0,0.0,0.0,0.0,0.0,-3.3124,-3.3124,-3.3124,-3.3124,-3.3124,-3.3124,-3.3124,-3.3124,-3.3124,-3.3124,-3.3124,-3.3124,-3.3124,-3.3124,-3.3124,0.0,0.0,0.0,-3.3124,-3.3124,-3.3124,-3.3124,-3.3124,-3.3056,-3.2817,-3.2516,-3.2152,-3.1725,-3.116,-3.0583,-3.0357,-2.9586,-2.8897,-2.9573,-2.9792,-2.9792,-2.9792,-2.9792,-2.9792,-2.9792,-2.9792,-2.9792,-2.9792,-2.9792,-2.9792,-2.9792,-2.9792,-2.9792,-2.9792,-2.9603,-2.9453,-2.9453,-2.8976,-2.8524,-2.831,-2.7708,-2.7241,-2.7014,-2.67,-2.6499,-2.6499,-2.6499,-2.685,-2.7637,-2.8019,-2.8812,-3.0208,-3.0614,-3.0999,-3.1467,-3.1511,-3.1511,-3.1511,-3.1511,-3.1511,-3.1511,-3.1511,-3.1511,-3.1511,-3.1511,-3.1511,-1.9195,-1.9076,-1.8678,-1.9432,-1.9629,-1.9629,0.0,0.0,-1.9629,-1.9629,-1.9883,-2.0128,-2.0128,-2.0401,-2.0605,-2.0605,-2.0605,-2.0605,-2.0605,-2.0605,0.0,0.0,0.0,0.0,0.0,0.0,0.0,0.0,0.0,0.0,0.0,0.0,-3.3124,-3.3124,-3.3124,-3.3124,-3.3124,-3.3124,-3.3124,-3.3124,-3.3124,-3.3124,-3.3124,-3.3124,-3.3124,0.0,0.0,0.0,0.0,-3.3124,-3.3124,-3.3124,-3.3124,-3.2884,-3.2556,-3.2556,-3.2037,-3.1369,-3.1199,-3.0622,-2.9966,-2.965,-2.8765,-2.7923,-2.863,-2.8831,-2.8831,-2.8831,-2.8831,-2.8882,-2.9197,-2.9287,-2.9365,-2.9702,-2.9792,-2.9792,-2.9792,-2.9792,-2.9792,-2.9792,-2.9792,-2.9792,-2.9792,-2.9453,-2.9126,-2.8913,-2.8273,-2.7708,-2.7544,-2.7077,-2.6738,-2.6738,-2.6587,-2.6714,-2.7284,-2.7571,-2.833,-2.9827,-3.0178,-3.0644,-3.1467,-3.1511,-3.1511,-3.1511,-3.1511,-3.1511,-3.1511,-3.1511,-3.1511,-3.1511,-3.1511,-3.1511,-1.7342,-1.7342,-1.7334,-1.7334,-1.7334,-1.7334,0.0,0.0,-1.7334,-1.7334,-1.823,-1.9036,-1.9036,-1.9883,-2.0605,-2.0605,-2.0605,-2.0605,-2.0605,0.0,0.0,0.0,0.0,0.0,0.0,0.0,0.0,0.0,0.0,0.0,0.0,0.0,-3.3124,-3.3124,-3.3124,-3.3124,-3.3124,-3.3124,-3.3124,-3.3124,-3.3124,-3.3124,-3.3124,-3.3124,0.0,0.0,0.0,0.0,0.0,-3.3124,-3.3124,-3.3124,-3.3124,-3.2339,-3.1223,-3.1223,-3.0451,-2.9329,-2.8836,-2.8623,-2.8455,-2.7471,-2.7104,-2.7057,-2.6659,-2.6524,-2.6524,-2.6524,-2.6524,-2.676,-2.7855,-2.8136,-2.8386,-2.9534,-2.9792,-2.9792,-2.9792,-2.9792,-2.9792,-2.9792,-2.9792,-2.9792,-2.9792,-2.9779,-2.9591,-2.8976,-2.8888,-2.8675,-2.816,-2.7607,-2.7268,-2.7268,-2.6826,-2.6499,-2.6499,-2.7229,-2.8084,-2.8971,-2.9827,-3.0644,-3.1467,-3.1511,-3.1511,-3.1511,-3.1511,-3.1511,-3.1511,-3.1511,-3.1511,-3.1511,-3.1511,-3.1511,-1.6895,-1.6764,-1.6396,-1.7131,-1.7302,-1.7302,-1.7302,-1.7302,-1.7302,-1.7302,-1.823,-1.8997,-1.8997,-1.9283,-1.9766,-2.0479,-1.9962,-1.9766,0.0,0.0,0.0,0.0,0.0,0.0,0.0,0.0,0.0,0.0,0.0,0.0,0.0,0.0,-3.3124,-3.3124,-3.3124,-3.3124,-3.3124,-3.3124,-3.3124,-3.3124,-3.3124,-3.3124,-3.3124,-3.3124,0.0,0.0,0.0,0.0,0.0,-3.3124,-3.2612,-3.1821,-3.1821,-3.1045,-2.9954,-2.9954,-2.9727,-2.9385,-2.9228,-2.8914,-2.8533,-2.8221,-2.7141,-2.5893,-2.5797,-2.6112,-2.6524,-2.6524,-2.6524,-2.6595,-2.6924,-2.7005,-2.729,-2.8398,-2.8636,-2.8846,-2.9624,-2.9792,-2.9792,-2.9792,-2.9792,-2.9792,-2.9792,-2.9792,-2.9729,-2.9553,-2.9176,-2.8825,-2.865,-2.8185,-2.7846,-2.7846,-2.7392,-2.6901,-2.6524,-2.6714,-2.7229,-2.8051,-2.8939,-2.9797,-3.0644,-3.1219,-3.1511,-3.1511,-3.1511,-3.1511,-3.1511,-3.1511,-3.1511,-3.1511,-3.1511,-3.1511,-1.5718,-1.5587,-1.5262,-1.5918,-1.6083,0.0,0.0,-1.6083,-1.6083,-1.6083,-1.6968,-1.79,-1.827,-1.835,-1.8718,-1.9805,-1.9441,0.0,0.0,0.0,0.0,0.0,0.0,0.0,0.0,0.0,0.0,0.0,0.0,0.0,0.0,0.0,-3.2382,-3.2382,-3.284,-3.3124,-3.3124,-3.3124,-3.3124,-3.3124,-3.3124,-3.3124,-3.3124,0.0,0.0,0.0,0.0,0.0,0.0,-3.2556,-3.1921,-3.1166,-3.0721,-2.9761,-2.8727,-2.8727,-2.8402,-2.7981,-2.7981,-2.78,-2.7477,-2.7342,-2.6156,-2.4774,-2.4774,-2.5013,-2.5231,-2.5231,-2.5231,-2.5316,-2.5766,-2.585,-2.613,-2.7238,-2.7804,-2.8295,-2.9028,-2.9495,-2.9792,-2.9792,-2.9792,-2.9792,-2.9792,-2.9792,-2.9792,-2.9792,-2.9478,-2.9252,-2.9252,-2.8762,-2.8411,-2.8411,-2.7921,-2.7457,-2.714,-2.6738,-2.685,-2.7637,-2.8214,-2.8907,-2.9766,-3.0614,-3.1058,-3.1058,-3.1351,-3.1511,-3.1511,-3.1511,-3.1511,-3.1511,-3.1511,-3.1511,0.0,-1.4088,-1.4088,-1.4088,-1.4088,-1.4088,-1.4088,-1.4088,0.0,-1.4088,-1.4936,-1.5985,-1.7009,-1.7172,-1.7545,-1.8669,-1.8877,0.0,0.0,0.0,0.0,0.0,0.0,0.0,0.0,0.0,0.0,0.0,0.0,0.0,0.0,0.0,0.0,-3.1078,-3.2239,-3.284,-3.284,-3.284,-3.2884,-3.2982,-3.2982,-3.3025,-3.3124,0.0,0.0,0.0,0.0,0.0,0.0,-3.1689,-3.1078,-3.081,-2.9727,-2.8541,-2.7447,-2.7447,-2.6706,-2.5693,-2.5693,-2.5693,-2.5615,-2.5215,-2.4531,-2.3877,-2.3838,-2.3506,-2.3091,-2.3091,-2.3091,-2.3343,-2.4414,-2.467,-2.4957,-2.6099,-2.7157,-2.7924,-2.8084,-2.8937,-2.9702,-2.9792,-2.9792,-2.9792,-2.9792,-2.9792,-2.9792,-2.9792,-2.9792,-2.9792,-2.9792,-2.9327,-2.895,-2.895,-2.8499,-2.816,-2.816,-2.719,-2.6867,-2.7636,-2.7696,-2.8051,-2.8876,-2.9797,-3.0299,-3.0299,-3.1087,-3.1511,-3.1511,-3.1511,-3.1511,-3.1511,-3.1511,-3.1511,-1.4088,0.0,-1.4088,-1.4088,-1.4088,-1.4088,0.0,-1.4088,-1.4088,-1.4088,-1.4936,-1.5786,-1.6026,-1.6067,-1.6437,0.0,0.0,0.0,0.0,0.0,0.0,0.0,0.0,0.0,0.0,0.0,0.0,0.0,0.0,0.0,0.0,0.0,0.0,-2.9806,-3.009,-3.0271,-3.0271,-3.0271,-3.0721,-3.1633,-3.1633,-3.2152,-3.3124,0.0,0.0,0.0,0.0,0.0,-3.1633,-3.1311,-3.0135,-2.8412,-2.8132,-2.7258,-2.6149,-2.6149,-2.5965,-2.5693,-2.5693,-2.5693,-2.5615,-2.5215,-2.4979,-2.4707,-2.4365,-2.374,-2.3091,-2.3091,-2.3091,-2.3178,-2.343,-2.3507,-2.38,-2.4925,-2.5368,-2.6025,-2.7711,-2.8295,-2.8767,-2.9624,-2.9792,-2.9792,-2.9792,-2.9792,-2.9792,-2.9792,-2.9792,-2.9792,-2.9792,-2.9679,-2.9591,-2.9591,-2.9076,-2.87,-2.87,-2.772,-2.7185,-2.7383,-2.7598,-2.7802,-2.7986,-2.9473,-3.0299,-3.0299,-3.1087,-3.1511,-3.1511,-3.1511,-3.1511,-3.1511,-3.1511,-3.1511,-1.4088,-1.4088,-1.4088,-1.4088,-1.4088,-1.4088,-1.4088,-1.4088,-1.4088,-1.4088,-1.4573,-1.5137,-1.5621,0.0,0.0,0.0,0.0,0.0,0.0,0.0,0.0,0.0,0.0,0.0,0.0,0.0,0.0,0.0,0.0,0.0,0.0,0.0,0.0,0.0,-2.7992,-2.8262,-2.9407,-2.9407,-2.9727,-3.0361,-3.0361,-3.0732,-3.1412,0.0,0.0,0.0,0.0,0.0,-3.0316,-2.9772,-2.8773,-2.7542,-2.6945,-2.6294,-2.5693,-2.5693,-2.5693,-2.5693,-2.5693,-2.5693,-2.5645,-2.5449,-2.5234,-2.5077,-2.4785,-2.4111,-2.3437,-2.3437,-2.3247,-2.3091,-2.3091,-2.3091,-2.3266,-2.3877,-2.4414,-2.5115,-2.6315,-2.6982,-2.7695,-2.8806,-2.9028,-2.9197,-2.9702,-2.9792,-2.9792,-2.9792,-2.9792,-2.9792,-2.9792,-2.9792,-2.9792,-2.9792,-2.9515,-2.9327,-2.9327,-2.8536,-2.7934,-2.767,-2.7803,-2.7868,-2.7868,-2.9173,-3.0283,-3.1101,-3.1988,-3.2437,-3.2437,-3.2437,-3.2437,-3.2437,-3.2437,-3.2437,-1.4039,-1.4088,-1.4088,-1.4088,-1.4088,-1.4088,-1.4088,-1.4088,-1.4088,-1.4088,-1.4088,-1.437,-1.5296,-1.5455,0.0,0.0,0.0,0.0,0.0,0.0,0.0,0.0,0.0,0.0,0.0,0.0,0.0,0.0,0.0,0.0,0.0,0.0,0.0,0.0,-2.6245,-2.6706,-2.8808,-2.8855,-2.8947,-2.9131,-2.9131,-2.9223,-2.9407,-2.9407,0.0,0.0,0.0,0.0,-2.905,-2.8002,-2.7494,-2.722,-2.611,-2.5693,-2.5693,-2.5693,-2.5693,-2.5693,-2.5693,-2.5693,-2.5693,-2.5693,-2.5478,-2.5166,-2.5166,-2.4609,-2.3965,-2.3906,-2.3525,-2.3091,-2.3091,-2.3091,-2.3091,-2.3091,-2.3844,-2.4585,-2.4745,-2.5546,-2.6595,-2.7844,-2.8096,-2.8478,-2.9585,-2.9792,-2.9792,-2.9792,-2.9792,-2.9792,-2.9792,-2.9792,-2.9792,-2.9792,-2.9792,-2.9792,-2.9792,-2.934,-2.8825,-2.8398,-2.8197,-2.817,-2.8279,-2.9019,-3.0201,-3.1836,-3.2647,-3.3053,-3.3053,-3.3053,-3.3053,-3.3053,-3.3223,-3.3285,-1.3822,-1.4088,-1.4088,-1.4088,-1.4088,-1.4088,-1.4088,-1.4088,-1.4088,-1.4088,-1.4088,-1.4166,-1.4328,-1.4334,-1.4334,0.0,0.0,0.0,0.0,0.0,0.0,0.0,0.0,0.0,0.0,0.0,0.0,0.0,0.0,0.0,0.0,0.0,0.0,0.0,0.0,-2.5868,-2.6235,-2.6294,-2.6802,-2.7861,-2.7861,-2.8402,-2.9407,-2.9407,-2.9407,0.0,0.0,-2.8819,-2.7861,-2.7683,-2.6935,-2.5965,-2.5781,-2.5693,-2.5693,-2.5693,-2.5693,-2.5693,-2.5693,-2.5693,-2.5693,-2.5693,-2.5645,-2.5586,-2.5586,-2.5273,-2.4842,-2.4424,-2.3705,-2.3091,-2.3091,-2.3091,-2.3091,-2.3091,-2.3222,-2.3637,-2.4585,-2.4957,-2.5661,-2.7723,-2.8096,-2.8478,-2.9585,-2.9792,-2.9792,-2.9792,-2.9792,-2.9792,-2.9792,-2.9792,-2.9792,-2.9792,-2.9792,-2.9792,-2.9792,-2.9716,-2.9628,-2.9541,-2.8637,-2.8448,-2.9183,-2.9324,-2.9856,-3.0798,-3.0965,-3.1032,-3.1032,-3.1032,-3.1032,-3.1065,-3.1915,-3.2315,-1.2984,-1.3603,-1.4088,-1.4088,-1.4088,-1.4088,-1.4088,-1.4088,-1.4088,-1.4088,-1.4088,-1.4088,0.0,0.0,0.0,0.0,0.0,0.0,0.0,0.0,0.0,0.0,0.0,0.0,0.0,0.0,0.0,0.0,0.0,0.0,0.0,0.0,0.0,0.0,0.0,0.0,-2.4982,-2.4982,-2.554,-2.6572,-2.6572,-2.6839,-2.7389,-2.7389,-2.7389,0.0,0.0,-2.7067,-2.6572,-2.6572,-2.6245,-2.5693,-2.5693,-2.5693,-2.5693,-2.5693,-2.5693,-2.5693,-2.5693,-2.5693,-2.5693,-2.5693,-2.5693,-2.5693,-2.5693,-2.543,-2.498,-2.4541,-2.3965,-2.3437,-2.3159,-2.3091,-2.3091,-2.3091,-2.3091,-2.3266,-2.3757,-2.3877,-2.4372,-2.5983,-2.6315,-2.6849,-2.8609,-2.8897,-2.9106,-2.9702,-2.9792,-2.9792,-2.9792,-2.9792,-2.9792,-2.9792,-2.9792,-2.9792,-2.9792,-2.9792,-2.9792,-2.9792,-2.9302,-2.9189,-2.9611,-3.0111,-3.0555,-3.0913,-3.143,-3.166,-3.166,-3.166,-3.166,-3.1695,-3.2157,-3.2633,-1.2242,-1.316,-1.4088,-1.4088,-1.4088,-1.4088,-1.4088,-1.4088,-1.4088,-1.4088,-1.4088,0.0,0.0,0.0,0.0,0.0,0.0,0.0,0.0,0.0,0.0,0.0,0.0,0.0,0.0,0.0,0.0,0.0,0.0,0.0,0.0,0.0,0.0,0.0,0.0,0.0,-2.4414,-2.4414,-2.4756,-2.5382,-2.5382,-2.5382,-2.5382,-2.5382,-2.5382,-2.5382,-2.5382,-2.5382,-2.5382,-2.5382,-2.544,-2.5586,-2.5586,-2.5644,-2.5693,-2.5693,-2.5693,-2.5693,-2.5693,-2.5693,-2.5693,-2.5693,-2.5693,-2.5693,-2.5693,-2.5498,-2.5137,-2.4697,-2.4268,-2.3818,-2.3237,-2.3091,-2.3091,-2.3091,-2.3091,-2.3091,-2.3091,-2.3091,-2.343,-2.4585,-2.4787,-2.541,-2.74,-2.7723,-2.8108,-2.9236,-2.9404,-2.9495,-2.9753,-2.9792,-2.9792,-2.9792,-2.9792,-2.9792,-2.9792,-2.9792,-2.9792,-2.9792,-2.9792,-2.9792,-2.9792,-3.0482,-3.0871,-3.0871,-3.1586,-3.1938,-3.1938,-3.1938,-3.1938,-3.1938,-3.2177,-3.2664,-1.2023,-1.316,-1.4088,-1.4088,-1.4088,-1.4088,-1.4088,-1.4088,-1.4088,-1.4088,-1.4088,-1.4088,0.0,0.0,0.0,0.0,0.0,0.0,0.0,0.0,0.0,0.0,0.0,0.0,0.0,0.0,0.0,0.0,0.0,0.0,0.0,0.0,0.0,0.0,0.0,0.0,-2.4414,-2.4414,-2.4453,-2.4512,-2.4512,-2.4512,-2.4512,-2.4512,-2.4512,-2.4512,-2.4512,-2.4512,-2.4512,-2.4512,-2.4746,-2.5117,-2.5117,-2.5371,-2.5693,-2.5693,-2.5693,-2.5693,-2.5693,-2.5693,-2.5693,-2.5693,-2.5693,-2.5693,-2.5693,-2.5664,-2.5547,-2.5146,-2.4707,-2.418,-2.3305,-2.3091,-2.3091,-2.3091,-2.3091,-2.3091,-2.3091,-2.3091,-2.343,-2.4585,-2.4787,-2.521,-2.6389,-2.6637,-2.6964,-2.8056,-2.8215,-2.8597,-2.9663,-2.9792,-2.9792,-2.9792,-2.9792,-2.9792,-2.9792,-2.9792,-2.9792,-2.9792,-2.9792,-2.9792,-2.9792,-2.9856,-2.9895,-2.9895,-2.9972,-2.9998,-2.9998,-2.9998,-2.9998,-2.9998,-3.0895,-3.1352,-1.0907,-1.2072,-1.316,-1.3906,-1.4088,-1.4088,-1.4088,-1.4088,-1.4088,-1.4088,-1.4088,-1.4292,0.0,0.0,0.0,0.0,0.0,0.0,0.0,0.0,0.0,0.0,0.0,0.0,0.0,0.0,0.0,0.0,0.0,0.0,0.0,0.0,0.0,0.0,0.0,0.0,0.0,-2.3578,-2.3578,-2.3578,-2.416,-2.4414,-2.4414,-2.4414,-2.4414,-2.4414,-2.4414,-2.4414,-2.4414,-2.4414,-2.4512,-2.4687,-2.5008,-2.5176,-2.5352,-2.5586,-2.5693,-2.5693,-2.5693,-2.5693,-2.5693,-2.5693,-2.5693,-2.5693,-2.5693,-2.5693,-2.5644,-2.5195,-2.4756,-2.4287,-2.3701,-2.334,-2.3091,-2.3091,-2.3091,-2.3091,-2.3091,-2.3091,-2.3222,-2.3681,-2.3757,-2.4092,-2.5252,-2.5462,-2.5839,-2.6953,-2.7683,-2.8255,-2.8688,-2.9365,-2.9792,-2.9792,-2.9792,-2.9792,-2.9792,-2.9792,-2.9792,-2.9792,-2.9792,-2.9792,-2.9792,-2.9792,-2.9792,-2.9792,-2.9792,-2.9792,-2.9792,-2.9792,-2.9792,-2.9792,-3.0177,-3.062,-1.0394,-1.1729,-1.3075,-1.3913,-1.4088,-1.4088,-1.4088,-1.4088,-1.4088,-1.4088,-1.4088,-1.4328,-1.5054,0.0,0.0,0.0,0.0,0.0,0.0,0.0,0.0,0.0,0.0,0.0,0.0,0.0,0.0,0.0,0.0,0.0,0.0,0.0,0.0,0.0,0.0,0.0,0.0,-2.3091,-2.3091,-2.3101,-2.3686,-2.3968,-2.3968,-2.3968,-2.3968,-2.3968,-2.3968,-2.3968,-2.3968,-2.3968,-2.4092,-2.4268,-2.4687,-2.4988,-2.5155,-2.541,-2.5567,-2.5693,-2.5693,-2.5693,-2.5693,-2.5693,-2.5693,-2.5693,-2.5693,-2.5693,-2.5644,-2.5195,-2.4756,-2.4316,-2.3896,-2.3467,-2.3091,-2.3091,-2.3091,-2.3091,-2.3091,-2.3091,-2.3091,-2.3091,-2.3091,-2.3343,-2.4125,-2.4253,-2.467,-2.5797,-2.6573,-2.7186,-2.7562,-2.8291,-2.8882,-2.9236,-2.9585,-2.9792,-2.9792,-2.9792,-2.9792,-2.9792,-2.9792,-2.9792,-2.9792,-2.9792,-2.9792,-2.9792,-2.9792,-2.9792,-2.9792,-2.9792,-2.9792,-2.9792,-2.9792,-3.0139,-1.0567,-1.2303,-1.4088,-1.4088,-1.4088,-1.4088,-1.4088,-1.4088,-1.4088,-1.4088,-1.4088,-1.4088,-1.4088,0.0,0.0,0.0,0.0,0.0,0.0,0.0,0.0,0.0,0.0,0.0,0.0,0.0,0.0,0.0,0.0,0.0,0.0,0.0,0.0,0.0,0.0,0.0,0.0,-2.3091,-2.3091,-2.3091,-2.3091,-2.3091,-2.3091,-2.3091,-2.3091,-2.3091,-2.3091,-2.3091,-2.3091,-2.3091,-2.3344,-2.3828,-2.4248,-2.4678,-2.5106,-2.5106,-2.5342,-2.5674,-2.5684,-2.5684,-2.5684,-2.5693,-2.5693,-2.5693,-2.5684,-2.5684,-2.5596,-2.5195,-2.4746,-2.4316,-2.3896,-2.3467,-2.3091,-2.3091,-2.3091,-2.3091,-2.3091,-2.3091,-2.3091,-2.3091,-2.3091,-2.3091,-2.3091,-2.3091,-2.3464,-2.4617,-2.4787,-2.521,-2.6348,-2.6524,-2.6924,-2.7976,-2.9106,-2.9792,-2.9792,-2.9792,-2.9792,-2.9792,-2.9792,-2.9792,-2.9792,-2.9792,-2.9792,-2.9792,-2.9792,-2.9792,-2.9792,-2.9792,-2.9792,-2.9792,-2.9792,-2.9792,-0.9187,-1.0486,-1.1821,-1.2638,0.0,-1.4088,-1.4088,-1.4088,-1.4088,-1.4088,-1.4088,-1.4088,-1.4088,0.0,0.0,0.0,0.0,0.0,0.0,0.0,0.0,0.0,0.0,0.0,0.0,0.0,0.0,0.0,0.0,0.0,0.0,0.0,0.0,0.0,0.0,0.0,0.0,0.0,-2.3091,-2.3091,-2.3091,-2.3091,-2.3091,-2.3091,-2.3091,-2.3091,-2.3091,-2.3091,-2.3091,-2.3091,-2.3169,-2.3335,-2.3809,-2.4053,-2.4209,-2.4502,-2.4697,-2.4853,-2.5156,-2.5273,-2.5322,-2.5586,-2.5693,-2.5528,-2.4559,-2.4971,-2.5392,-2.3998,-2.4022,-2.4316,-2.3896,-2.3467,-2.3091,-2.3091,-2.3091,-2.3091,-2.3091,-2.3091,-2.3091,-2.3091,-2.3091,-2.3091,-2.3091,-2.3091,-2.3222,-2.3551,-2.4296,-2.521,-2.6348,-2.6524,-2.6637,-2.6924,-2.7947,-2.8597,-2.8597,-2.9326,-2.9792,-2.9792,-2.9792,-2.9792,-2.9792,-2.9792,-2.9792,-2.9792,-2.9792,-2.9792,-2.9792,-2.9792,-2.9792,-2.9792,-2.9792,-2.9792,-0.9918,-1.109,0.0,-1.2857,-1.3555,-1.4088,-1.4088,0.0,0.0,0.0,-1.4088,-1.4088,-1.4088,0.0,0.0,0.0,0.0,0.0,0.0,0.0,0.0,0.0,0.0,0.0,0.0,0.0,0.0,0.0,0.0,0.0,0.0,0.0,0.0,0.0,0.0,0.0,0.0,0.0,0.0,-2.3091,-2.3091,-2.3091,-2.3091,-2.3091,-2.3091,-2.3091,-2.3091,-2.3091,-2.3091,-2.3091,-2.3091,-2.312,-2.3428,-2.3633,-2.3818,-2.4072,-2.4277,-2.4361,-2.4182,-2.4127,-2.4079,-2.3836,-2.3765,-2.362,-2.2766,-2.3116,-2.348,-2.2192,-2.225,-2.2594,-2.2199,-2.2227,-2.2492,-2.3003,-2.3091,-2.3091,-2.3091,-2.3091,-2.3091,-2.3091,-2.3091,-2.3091,-2.3091,-2.3091,-2.3091,-2.3091,-2.3671,-2.4382,-2.5062,-2.5557,-2.5797,-2.5797,-2.683,-2.7654,-2.8044,-2.8727,-2.9326,-2.9753,-2.9792,-2.9792,-2.9792,-2.9792,-2.9792,-2.9792,-2.9792,-2.9792,-2.9792,-2.9792,-2.9792,-2.9792,-2.9792,-2.9792,-1.1724,-1.2942,-1.3955,-1.3955,-1.3997,0.0,-1.4088,-1.4088,-1.4088,-1.4088,0.0,0.0,0.0,0.0,0.0,0.0,0.0,0.0,0.0,0.0,0.0,0.0,0.0,0.0,0.0,0.0,0.0,0.0,0.0,0.0,0.0,0.0,0.0,0.0,0.0,0.0,0.0,0.0,0.0,0.0,-2.3091,-2.3091,-2.3091,-2.3091,-2.3091,-2.3091,-2.3091,-2.3091,-2.3091,-2.3091,-2.3091,-2.3091,-2.3091,-2.3379,-2.373,-2.3631,-2.3783,-2.3965,-2.2776,-2.2353,-2.222,-2.1137,-2.081,-2.0762,-2.0666,-2.0714,-2.0687,-2.0077,-2.0025,-1.9989,-1.9587,-2.0305,-2.1391,-2.2501,-2.296,-2.3091,-2.3091,-2.3091,-2.3091,-2.3091,-2.3091,-2.3091,-2.3091,-2.3091,-2.3091,-2.3091,-2.3091,-2.3091,-2.3091,-2.4006,-2.467,-2.467,-2.5672,-2.6801,-2.7844,-2.8044,-2.8597,-2.9714,-2.9792,-2.9792,-2.9792,-2.9792,-2.9792,-2.9792,-2.9792,-2.9792,-2.9792,-2.9792,-2.9792,-2.9792,-2.9792,-2.9792,-0.9579,-1.1128,0.0,-1.2674,-1.3385,-1.4088,-1.4088,-1.4088,-1.4088,-1.4088,0.0,0.0,0.0,0.0,0.0,0.0,0.0,0.0,0.0,0.0,0.0,0.0,0.0,0.0,0.0,0.0,0.0,0.0,0.0,0.0,0.0,0.0,0.0,0.0,0.0,0.0,-2.3091,-2.3091,-2.3091,0.0,-2.3091,-2.3091,-2.3091,-2.3091,-2.3091,-2.3091,-2.3091,-2.3091,-2.3091,-2.3091,-2.3091,-2.3091,-2.3091,-2.3149,-2.3139,-2.2206,-2.1886,-2.1825,-2.0928,-2.0657,-2.0661,-2.0757,-2.081,-2.057,-1.9464,-1.9902,-2.0495,-1.8963,-1.928,-1.9989,-1.9587,-1.967,-1.9943,-2.0223,-2.1721,-2.3091,-2.3091,-2.3091,-2.3091,-2.3091,-2.3091,-2.3091,-2.3091,-2.3091,-2.3091,-2.3091,-2.3091,-2.3091,-2.3091,-2.3299,-2.3464,-2.3464,-2.45,-2.563,-2.676,-2.7602,-2.8597,-2.9714,-2.9792,-2.9792,-2.9792,-2.9792,-2.9792,-2.9792,-2.9792,-2.9792,-2.9792,-2.9792,-2.9792,-2.9792,-2.9792,-2.9792,-0.9579,-1.0999,0.0,-1.3027,0.0,-1.4088,-1.4088,-1.4088,-1.4088,0.0,0.0,0.0,0.0,0.0,0.0,0.0,0.0,0.0,0.0,0.0,0.0,0.0,0.0,0.0,0.0,0.0,0.0,0.0,0.0,0.0,0.0,0.0,0.0,0.0,0.0,0.0,-2.2217,-2.2262,-2.2536,-2.3091,-2.3091,-2.3091,-2.3091,-2.3091,-2.3091,-2.3091,-2.3091,-2.3091,-2.3091,-2.3091,-2.2765,-2.2262,-2.2262,-2.1898,-2.1311,-2.0666,-2.044,-2.0286,-1.9295,-1.8949,-1.8879,-1.8539,-1.8409,-1.8266,-1.752,-1.7794,-1.8228,-1.7278,-1.7505,-1.7965,-1.78,-1.8172,-1.8634,-1.8634,-2.0494,-2.2262,-2.2262,-2.2677,-2.3091,-2.3091,-2.3091,-2.3091,-2.3091,-2.3091,-2.3091,-2.3091,-2.3091,-2.3091,-2.3091,-2.3091,-2.3091,-2.3091,-2.3627,-2.4467,-2.5588,-2.6202,-2.7227,-2.8897,-2.8988,-2.9236,-2.9792,-2.9792,-2.9792,-2.9792,-2.9792,-2.9792,-2.9792,-2.9792,-2.9792,-2.9792,-2.9792,-2.9792,-1.0053,-1.1123,-1.2285,-1.347,-1.3779,0.0,-1.4039,-1.4088,-1.4088,0.0,0.0,0.0,0.0,0.0,0.0,0.0,0.0,0.0,0.0,0.0,0.0,0.0,0.0,0.0,0.0,0.0,0.0,0.0,0.0,0.0,0.0,0.0,0.0,0.0,0.0,-1.9577,-2.082,-2.1113,-2.1743,-2.2712,-2.278,-2.2677,-2.2501,-2.2501,-2.2589,-2.2775,-2.2775,-2.2677,-2.2501,-2.2501,-2.1898,-2.098,-2.098,-2.0395,-1.9488,-1.9268,-1.9177,-1.8993,-1.777,-1.7365,-1.7178,-1.6157,-1.5784,-1.5784,-1.5784,-1.5784,-1.5784,-1.5784,-1.5784,-1.5784,-1.5784,-1.6574,-1.7365,-1.7365,-1.908,-2.0835,-2.1212,-2.2318,-2.3208,-2.3208,-2.3266,-2.3315,-2.3315,-2.3315,-2.3315,-2.3315,-2.3315,-2.3286,-2.3218,-2.3208,-2.3179,-2.3101,-2.3091,-2.3551,-2.4702,-2.4787,-2.5661,-2.7683,-2.8016,-2.8518,-2.9456,-2.9714,-2.9792,-2.9792,-2.9792,-2.9792,-2.9792,-2.9792,-2.9792,-2.9792,-2.9792,-2.9792,-0.9109,0.0,-1.108,0.0,-1.2547,-1.2808,0.0,0.0,0.0,0.0,0.0,0.0,0.0,0.0,0.0,0.0,0.0,0.0,0.0,0.0,0.0,0.0,0.0,0.0,0.0,0.0,0.0,0.0,0.0,0.0,0.0,0.0,-1.7522,-1.8611,-1.8662,0.0,-1.8945,-2.027,-2.1014,-2.1197,-2.1449,-2.098,-1.9988,-1.9988,-2.0531,-2.1525,-2.1525,-2.0935,-1.9988,-1.9988,-1.9906,-1.9716,-1.9716,-1.9625,-1.936,-1.8326,-1.7963,-1.7777,-1.648,-1.6062,-1.6015,-1.5879,-1.5784,-1.5784,-1.5784,-1.5784,-1.5784,-1.5784,-1.5784,-1.5784,-1.5784,-1.592,-1.6062,-1.6062,-1.7334,-1.9043,-2.0916,-2.2589,-2.3701,-2.3701,-2.3994,-2.4248,-2.4248,-2.4248,-2.4248,-2.4248,-2.4248,-2.4121,-2.375,-2.3701,-2.3555,-2.314,-2.3091,-2.3551,-2.4702,-2.4787,-2.5336,-2.6637,-2.7574,-2.8176,-2.8307,-2.9287,-2.9792,-2.9792,-2.9792,-2.9792,-2.9792,-2.9792,-2.9792,-2.9792,-2.9792,-2.9792,-0.8715,-0.9279,-0.9923,0.0,-1.1809,-1.2456,-1.2984,0.0,0.0,0.0,0.0,0.0,0.0,0.0,0.0,0.0,0.0,0.0,0.0,0.0,0.0,0.0,0.0,0.0,0.0,0.0,0.0,0.0,0.0,0.0,0.0,-1.5304,-1.5598,-1.6276,-1.6284,0.0,-1.7585,-1.8259,-1.8943,-1.9609,-1.9903,-1.9773,-1.9289,-1.9443,-1.9807,-2.0305,-2.0305,-1.9988,-1.9497,-1.9497,-1.9085,-1.8503,-1.8503,-1.8041,-1.7343,-1.685,-1.6622,-1.6574,-1.5967,-1.5784,-1.5784,-1.5784,-1.5784,-1.5784,-1.5784,-1.5784,-1.5784,-1.5784,-1.5784,-1.5784,-1.5784,-1.5784,-1.5784,-1.5784,-1.6989,-1.8363,-1.9315,-2.1351,-2.325,-2.4004,-2.4287,-2.4414,-2.4414,-2.4414,-2.4414,-2.4414,-2.4414,-2.4346,-2.417,-2.4141,-2.4062,-2.3832,-2.3643,-2.3718,-2.4216,-2.3985,-2.4339,-2.5473,-2.5994,-2.6808,-2.8056,-2.8597,-2.9157,-2.9792,-2.9792,-2.9792,-2.9792,-2.9792,-2.9792,-2.9792,-2.9792,-2.9792,0.0,0.0,-0.8715,-0.9879,-1.0826,-1.1509,0.0,0.0,0.0,0.0,0.0,0.0,0.0,0.0,0.0,0.0,0.0,0.0,0.0,0.0,0.0,0.0,0.0,0.0,0.0,0.0,0.0,0.0,0.0,0.0,-1.4088,-1.4088,-1.4188,-1.4402,-1.4409,-1.4936,-1.6089,-1.6511,-1.7152,-1.8156,-1.8381,-1.8334,-1.8084,-1.8342,-1.8454,-1.85,-1.8862,-1.8856,-1.858,-1.858,-1.8041,-1.7225,-1.7225,-1.6622,-1.5784,-1.5784,-1.5784,-1.5784,-1.5784,-1.5784,-1.5784,-1.5784,-1.5784,-1.5784,-1.5784,-1.5784,-1.5784,-1.5784,-1.5784,-1.5784,-1.5784,-1.5784,-1.5784,-1.5784,-1.6821,-1.7933,-1.8684,-2.0768,-2.2881,-2.3994,-2.4502,-2.4746,-2.4746,-2.4746,-2.4746,-2.4746,-2.4746,-2.4707,-2.46,-2.458,-2.4541,-2.4424,-2.4141,-2.3906,-2.3799,-2.3496,-2.3583,-2.4339,-2.4617,-2.5525,-2.7174,-2.7804,-2.8518,-2.9365,-2.9663,-2.9792,-2.9792,-2.9792,-2.9792,-2.9792,-2.9792,-2.9792,0.0,-0.7183,0.0,-0.8671,-0.9021,0.0,0.0,0.0,0.0,0.0,0.0,0.0,0.0,0.0,0.0,0.0,0.0,0.0,0.0,0.0,0.0,0.0,0.0,0.0,0.0,0.0,0.0,0.0,0.0,0.0,-1.4088,-1.4088,-1.4095,-1.4108,-1.4108,-1.4157,-1.4255,-1.5646,-1.6533,-1.6894,-1.691,-1.6323,-1.5214,-1.5513,-1.5596,-1.5701,-1.714,-1.7131,-1.6015,-1.6015,-1.5967,-1.592,-1.592,-1.5879,-1.5784,-1.5784,-1.5784,-1.5784,-1.5784,-1.5784,-1.5784,-1.5784,-1.5784,-1.5784,-1.5784,-1.5784,-1.5784,-1.5784,-1.5784,-1.5784,-1.5784,-1.5784,-1.5784,-1.5784,-1.6315,-1.7533,-2.0235,-2.1956,-2.312,-2.3655,-2.4749,-2.5615,-2.5615,-2.5615,-2.5615,-2.5615,-2.5615,-2.5508,-2.5088,-2.5077,-2.4873,-2.4463,-2.4394,-2.4219,-2.3828,-2.3769,-2.3584,-2.3198,-2.4211,-2.4872,-2.4957,-2.6982,-2.8136,-2.8176,-2.9236,-2.9792,-2.9792,-2.9792,-2.9792,-2.9792,-2.9792,-2.9792,0.0,0.0,0.0,-0.7621,-0.8321,-0.9021,0.0,0.0,0.0,0.0,0.0,0.0,0.0,0.0,0.0,0.0,0.0,0.0,0.0,0.0,0.0,0.0,0.0,0.0,0.0,0.0,0.0,0.0,0.0,0.0,-1.4088,-1.4088,-1.4088,-1.4088,-1.4088,-1.4088,-1.4088,-1.4634,-1.4951,-1.5063,-1.5259,-1.5101,-1.4689,-1.4983,-1.5117,-1.5176,-1.5925,-1.6073,-1.5784,-1.5784,-1.5784,-1.5784,-1.5784,-1.5784,-1.5784,-1.5784,-1.5784,-1.5784,-1.5784,-1.5784,-1.5784,-1.5784,-1.5784,-1.5784,-1.5784,-1.5784,-1.5784,-1.5784,-1.5784,-1.5784,-1.5784,-1.5784,-1.5878,-1.6299,-1.6553,-1.7079,-1.8525,-1.9849,-2.1402,-2.3308,-2.4097,-2.4707,-2.5538,-2.5693,-2.5693,-2.5693,-2.5693,-2.5635,-2.5518,-2.5498,-2.5439,-2.5235,-2.5,-2.4775,-2.4666,-2.4355,-2.4014,-2.3584,-2.3934,-2.4354,-2.4798,-2.5577,-2.6326,-2.7046,-2.7464,-2.8383,-2.9792,-2.9792,-2.9792,-2.9792,-2.9792,-2.9792,-0.7095,0.0,0.0,0.0,0.0,-0.8277,0.0,0.0,0.0,0.0,0.0,0.0,0.0,0.0,0.0,0.0,0.0,0.0,0.0,0.0,0.0,0.0,0.0,0.0,0.0,0.0,0.0,0.0,0.0,0.0,-1.4088,-1.4088,-1.4088,-1.4088,-1.4088,-1.4088,-1.4088,-1.4088,-1.4088,-1.4088,-1.4282,-1.4376,-1.4382,-1.4683,-1.4816,-1.483,-1.5124,-1.5418,-1.5691,-1.5744,-1.5784,-1.5784,-1.5784,-1.5784,-1.5784,-1.5784,-1.5784,-1.5784,-1.5784,-1.5784,-1.5784,-1.5784,-1.5784,-1.5784,-1.5784,-1.5784,-1.5784,-1.5784,-1.5784,-1.5784,-1.5784,-1.5784,-1.5931,-1.6567,-1.6707,-1.6867,-1.7455,-1.8655,-2.0135,-2.1963,-2.3076,-2.3989,-2.4864,-2.5382,-2.5693,-2.5693,-2.5693,-2.5693,-2.5693,-2.5693,-2.5693,-2.5693,-2.5469,-2.5234,-2.5125,-2.4805,-2.4394,-2.3828,-2.3789,-2.393,-2.4231,-2.4585,-2.5168,-2.5922,-2.6307,-2.7221,-2.8712,-2.8712,-2.887,-2.9236,-2.9236,-2.9443,0.0,0.0,0.0,0.0,0.0,0.0,0.0,0.0,0.0,0.0,0.0,0.0,0.0,0.0,0.0,0.0,0.0,0.0,0.0,0.0,0.0,0.0,0.0,0.0,0.0,0.0,0.0,0.0,0.0,-1.4088,-1.4088,-1.4088,-1.4088,-1.4088,-1.4088,-1.4088,-1.4088,-1.4088,-1.4088,-1.4088,-1.4088,-1.4088,-1.4095,-1.4382,-1.4502,-1.4522,-1.4823,-1.511,-1.5391,-1.5691,-1.5771,-1.5784,-1.5784,-1.5784,-1.5784,-1.5784,-1.5784,-1.5784,-1.5784,-1.5784,-1.5784,-1.5784,-1.5784,-1.5784,-1.5784,-1.5784,-1.5784,-1.5784,-1.5784,-1.5784,-1.5784,-1.5784,-1.5924,-1.6553,-1.67,-1.686,-1.7442,-1.8596,-1.9524,-1.9576,-2.176,-2.3583,-2.3692,-2.4766,-2.5635,-2.5684,-2.5693,-2.5693,-2.5693,-2.5693,-2.5693,-2.5693,-2.5693,-2.5557,-2.5174,-2.5135,-2.4773,-2.3887,-2.3818,-2.3613,-2.313,-2.4178,-2.4745,-2.4745,-2.585,-2.64,-2.64,-2.6483,-2.7046,-2.8044,-2.8096,-2.8727,-0.5891,0.0,0.0,0.0,0.0,0.0,0.0,0.0,0.0,0.0,0.0,0.0,0.0,0.0,0.0,0.0,0.0,0.0,0.0,0.0,0.0,0.0,0.0,0.0,0.0,0.0,0.0,0.0,0.0,-1.4088,-1.4088,-1.4088,-1.4088,-1.4088,-1.4088,-1.4088,-1.4088,-1.4088,-1.4088,-1.4088,-1.4088,-1.4088,-1.4088,-1.4168,-1.4208,-1.4222,-1.4516,-1.4689,-1.4803,-1.5311,-1.5638,-1.5784,-1.5784,-1.5784,-1.5784,-1.5784,-1.5784,-1.5784,-1.5784,-1.5784,-1.5784,-1.5784,-1.5784,-1.5784,-1.5784,-1.5784,-1.5784,-1.5784,-1.5784,-1.5784,-1.5784,-1.5784,-1.5878,-1.6306,-1.6553,-1.6807,-1.7239,-1.7741,-1.8454,-1.942,-2.0187,-2.1355,-2.3384,-2.3998,-2.4559,-2.5538,-2.5693,-2.5693,-2.5693,-2.5693,-2.5693,-2.5693,-2.5693,-2.5635,-2.5566,-2.5557,-2.5312,-2.4746,-2.4414,-2.4053,-2.3633,-2.3598,-2.3551,-2.3551,-2.3887,-2.4059,-2.4059,-2.5683,-2.6637,-2.6964,-2.7723,-2.8727,-0.4641,-0.5129,-0.5755,0.0,0.0,0.0,0.0,-0.7095,0.0,0.0,0.0,0.0,0.0,0.0,0.0,0.0,0.0,0.0,0.0,0.0,0.0,0.0,0.0,0.0,0.0,0.0,0.0,0.0,-1.4088,-1.4088,-1.4088,-1.4088,-1.4088,-1.4088,-1.4088,-1.4088,-1.4088,-1.4088,-1.4088,-1.4088,-1.4088,-1.4088,-1.4088,-1.4088,-1.4088,-1.4095,-1.4269,-1.4409,-1.4543,-1.489,-1.5271,-1.5658,-1.5785,-1.5784,-1.5784,-1.5784,-1.5784,-1.5784,-1.5784,-1.5784,-1.5784,-1.5784,-1.5784,-1.5784,-1.5784,-1.5784,-1.5784,-1.5784,-1.5784,-1.5784,-1.5784,-1.5784,-1.5905,-1.6206,-1.64,-1.664,-1.7112,-1.7333,-1.7689,-1.8582,-1.922,-2.0135,-2.171,-2.2926,-2.3949,-2.4766,-2.5323,-2.5693,-2.5693,-2.5693,-2.5693,-2.5693,-2.5693,-2.5693,-2.5693,-2.5693,-2.5547,-2.5145,-2.4658,-2.4228,-2.3809,-2.3369,-2.3091,-2.3091,-2.3091,-2.3091,-2.3091,-2.4435,-2.5305,-2.5839,-2.74,-2.8478,-0.3392,-0.3481,-0.3838,0.0,0.0,0.0,-0.665,-0.6918,0.0,0.0,0.0,0.0,0.0,0.0,0.0,0.0,0.0,0.0,0.0,0.0,0.0,0.0,0.0,0.0,0.0,0.0,0.0,-1.4041,-1.4068,-1.4088,-1.4088,-1.4088,-1.4088,-1.4088,-1.4088,-1.4088,-1.4088,-1.4088,-1.4088,-1.4088,-1.4088,-1.4088,-1.4088,-1.4088,-1.4088,-1.4088,-1.4088,-1.4235,-1.4476,-1.4502,-1.487,-1.5424,-1.5678,-1.5751,-1.5784,-1.5784,-1.5784,-1.5784,-1.5784,-1.5784,-1.5784,-1.5784,-1.5784,-1.5784,-1.5784,-1.5784,-1.5784,-1.5784,-1.5784,-1.5784,-1.5784,-1.5784,-1.5899,-1.6159,-1.6246,-1.6476,-1.7032,-1.7179,-1.7286,-1.7522,-1.8558,-1.9428,-1.9576,-2.1608,-2.3285,-2.3434,-2.4609,-2.5479,-2.5479,-2.5586,-2.5693,-2.5693,-2.5693,-2.5693,-2.5693,-2.5693,-2.5566,-2.5166,-2.4727,-2.4297,-2.3877,-2.3437,-2.314,-2.3091,-2.3091,-2.3091,-2.3091,-2.3091,-2.3681,-2.483,-2.6808,-2.7804,0.0,0.0,0.0,0.0,0.0,0.0,-0.5445,-0.5714,0.0,0.0,0.0,0.0,0.0,0.0,0.0,0.0,0.0,0.0,0.0,0.0,0.0,0.0,0.0,0.0,0.0,0.0,-1.2841,-1.3645,-1.3948,-1.4088,-1.4088,-1.4088,-1.4088,-1.4088,-1.4088,-1.4088,-1.4088,-1.4088,-1.4088,-1.4088,-1.4088,-1.4088,-1.4088,-1.4088,-1.4088,-1.4088,-1.4088,-1.4122,-1.4188,-1.4422,-1.487,-1.5404,-1.5458,-1.5625,-1.5784,-1.5784,-1.5784,-1.5784,-1.5784,-1.5784,-1.5784,-1.5784,-1.5784,-1.5784,-1.5784,-1.5784,-1.5784,-1.5784,-1.5784,-1.5784,-1.5784,-1.5784,-1.5798,-1.5905,-1.6099,-1.6366,-1.672,-1.7032,-1.7286,-1.7522,-1.7786,-1.8349,-1.942,-2.0033,-2.0794,-2.1904,-2.3226,-2.4097,-2.4097,-2.502,-2.5693,-2.5693,-2.5693,-2.5693,-2.5693,-2.5693,-2.5654,-2.5567,-2.5185,-2.4746,-2.4316,-2.3887,-2.3496,-2.3101,-2.3091,-2.3091,-2.3091,-2.3091,-2.3681,-2.483,-2.5241,-2.5953,0.0,0.0,0.0,-0.2547,0.0,0.0,0.0,-0.4954,0.0,0.0,0.0,0.0,0.0,0.0,0.0,0.0,0.0,0.0,0.0,0.0,0.0,0.0,0.0,0.0,0.0,0.0,-1.1618,-1.2747,-1.3016,-1.3371,-1.4082,-1.4088,-1.4088,-1.4088,-1.4088,-1.4088,-1.4088,-1.4088,-1.4088,-1.4088,-1.4088,-1.4088,-1.4088,-1.4088,-1.4088,-1.4088,-1.4088,-1.4088,-1.4095,-1.4249,-1.4563,-1.499,-1.5284,-1.5484,-1.5538,-1.5041,-1.4854,-1.4752,-1.4082,-1.3836,-1.3836,-1.3836,-1.3836,-1.3836,-1.3836,-1.3836,-1.398,-1.4657,-1.4854,-1.4997,-1.5635,-1.5784,-1.5784,-1.5784,-1.5945,-1.6132,-1.6426,-1.672,-1.7014,-1.736,-1.7482,-1.7786,-1.8506,-1.9169,-1.9834,-2.0538,-2.1803,-2.2918,-2.3583,-2.4304,-2.4971,-2.5635,-2.5693,-2.5693,-2.5693,-2.5693,-2.5693,-2.5693,-2.5312,-2.4873,-2.4434,-2.4014,-2.3584,-2.3101,-2.3091,-2.3091,-2.3091,-2.3091,-2.3387,-2.3963,-2.4542,-2.5126,0.0,0.0,0.0,0.0,0.0,-0.179,0.0,0.0,0.0,0.0,0.0,0.0,0.0,0.0,0.0,0.0,0.0,0.0,0.0,0.0,0.0,0.0,0.0,0.0,0.0,0.0,-1.0552,-1.1658,-1.1723,-1.2212,-1.3332,-1.361,-1.3727,-1.373,-1.3997,-1.4088,-1.4088,-1.4088,-1.4088,-1.4088,-1.4088,-1.4088,-1.4088,-1.4088,-1.4088,-1.4088,-1.4088,-1.4088,-1.4088,-1.4088,-1.4222,-1.4452,-1.4799,-1.4963,-1.4908,-1.388,-1.3488,-1.3343,-1.2285,-1.1896,-1.1896,-1.1896,-1.1896,-1.1896,-1.1896,-1.1896,-1.2139,-1.3199,-1.3488,-1.383,-1.5099,-1.5439,-1.5486,-1.573,-1.5784,-1.5912,-1.6213,-1.646,-1.6714,-1.7058,-1.7353,-1.7515,-1.7569,-1.8506,-1.922,-1.922,-2.0385,-2.1702,-2.2776,-2.3126,-2.384,-2.5177,-2.5323,-2.543,-2.5684,-2.5693,-2.5693,-2.5693,-2.54,-2.5,-2.456,-2.4062,-2.3584,-2.3101,-2.3091,-2.3091,-2.3091,-2.3091,-2.3091,-2.3135,-2.4039,-2.4457,0.0,0.0,0.0,0.0,-0.0225,0.0,0.0,0.0,0.0,0.0,0.0,0.0,0.0,0.0,0.0,0.0,0.0,0.0,0.0,0.0,0.0,0.0,0.0,0.0,0.0,0.0,0.0,-1.0384,-1.04,-1.0541,-1.0805,-1.1791,-1.2362,-1.2492,-1.3555,-1.4088,-1.4088,-1.4088,-1.4088,-1.4088,-1.4088,-1.4088,-1.4088,-1.4088,-1.4088,-1.4088,-1.4088,-1.4088,-1.4088,-1.4088,-1.4108,-1.411,-1.3499,-1.3429,-1.352,-1.2486,-1.2139,-1.2091,-1.1945,-1.1896,-1.1896,-1.1896,-1.1896,-1.1896,-1.1896,-1.1896,-1.1945,-1.2091,-1.2139,-1.2431,-1.3782,-1.4118,-1.4411,-1.5534,-1.5784,-1.5912,-1.6213,-1.6299,-1.6406,-1.67,-1.6994,-1.7333,-1.7542,-1.7733,-1.7838,-1.7838,-1.8961,-1.9878,-2.0033,-2.1151,-2.2466,-2.3791,-2.3949,-2.4402,-2.5586,-2.5693,-2.5693,-2.5693,-2.5635,-2.5459,-2.5057,-2.4219,-2.3584,-2.3101,-2.3091,-2.3091,-2.3091,-2.3091,-2.3091,-2.3091,-2.3222,-2.3299,0.0,0.0,0.0,0.0,0.0,0.0,0.0,0.0,-0.1943,0.0,0.0,0.0,0.0,0.0,0.0,0.0,0.0,0.0,0.0,0.0,0.0,0.0,0.0,0.0,0.0,0.0,0.0,0.0,0.0,-0.942,-1.0244,-1.0792,-1.1458,-1.2152,-1.2093,-1.2382,-1.3069,-1.2388,-1.2083,-1.2083,-1.2083,-1.2083,-1.2083,-1.2083,-1.2083,-1.2083,-1.2083,-1.2083,-1.2083,-1.2083,-1.2083,-1.1989,-1.1088,-1.1713,-1.3067,-1.2041,-1.1298,-1.0681,-0.9899,-0.9653,-0.9653,-0.9653,-0.9653,-0.9653,-0.9653,-0.9653,-0.9801,-1.0583,-1.0779,-1.1263,-1.3343,-1.3926,-1.422,-1.5486,-1.5784,-1.5865,-1.5985,-1.6152,-1.6306,-1.6433,-1.6693,-1.6934,-1.7054,-1.7355,-1.7582,-1.7582,-1.8094,-1.8708,-1.948,-2.0135,-2.099,-2.2416,-2.2567,-2.3076,-2.4452,-2.4559,-2.4864,-2.5635,-2.5488,-2.5146,-2.4707,-2.4111,-2.3584,-2.3101,-2.3091,-2.3091,-2.3091,-2.3091,-2.3091,-2.3091,-2.3091,-2.3091,0.0,0.0,0.0,0.0,0.0,0.0,0.0,0.0,0.0,0.0,0.0,0.0,0.0,0.0,0.0,0.0,0.0,0.0,0.0,0.0,0.0,0.0,0.0,0.0,0.0,0.0,0.0,0.0,0.0,0.0,-0.9128,-0.956,-1.0233,-1.1158,-1.0773,-1.0973,-1.1809,-1.0999,-1.0611,-1.0611,-1.0611,-1.0611,-1.0611,-1.0611,-1.0611,-1.0611,-1.0611,-1.0611,-1.0611,-1.0611,-1.0611,-1.0539,-0.9818,-1.0526,-1.1849,-1.0858,-1.007,-0.9312,-0.8333,-0.7988,-0.7988,-0.7988,-0.7988,-0.7988,-0.7988,-0.7988,-0.8187,-0.9167,-0.946,-0.9993,-1.2226,-1.2807,-1.3247,-1.4902,-1.5289,-1.5384,-1.573,-1.5999,-1.6152,-1.6152,-1.6386,-1.6587,-1.6587,-1.7074,-1.7514,-1.7514,-1.7528,-1.7943,-1.8916,-1.9065,-1.9576,-2.099,-2.1143,-2.1651,-2.3026,-2.3484,-2.4254,-2.5635,-2.543,-2.5049,-2.4609,-2.4189,-2.376,-2.3286,-2.3159,-2.3091,-2.3091,-2.3091,-2.3091,-2.3091,-2.3091,-2.3091,0.0,0.0,0.0,0.0,0.0,0.0,0.0,0.0,-0.0042,0.0,0.0,0.0,0.0,0.0,-0.3447,-0.4387,0.0,0.0,0.0,0.0,0.0,0.0,0.0,0.0,0.0,0.0,0.0,0.0,0.0,0.0,-0.6591,-0.7672,-0.8437,-0.8805,-0.9863,-1.0473,-1.0654,-1.0611,-1.0611,-1.0611,-1.0611,-1.0611,-1.0611,-1.0611,-1.0611,-1.0611,-1.0611,-1.0611,-1.0611,-1.0611,-1.0611,-1.0611,-1.0572,-1.0089,-0.9274,-0.8277,-0.7955,-0.8038,-0.8041,-0.7988,-0.7988,-0.7988,-0.7988,-0.7988,-0.7988,-0.7988,-0.7988,-0.8038,-0.8088,-0.8382,-0.9756,-1.0145,-1.0774,-1.3343,-1.3968,-1.4316,-1.5534,-1.5791,-1.5798,-1.5798,-1.6086,-1.6286,-1.6286,-1.6824,-1.7213,-1.7213,-1.7454,-1.7635,-1.7687,-1.7687,-1.8199,-1.9524,-1.9679,-2.0238,-2.1651,-2.2976,-2.4254,-2.5635,-2.5674,-2.5518,-2.5116,-2.4629,-2.4199,-2.3779,-2.3305,-2.3091,-2.3091,-2.3091,-2.3091,-2.3091,-2.3091,-2.3091,0.0,0.0,0.0,0.0,0.0,0.0,0.0,0.0,0.0,0.0,0.0,0.0,0.0,0.0,-0.2418,-0.3398,-0.4194,-0.4792,0.0,0.0,0.0,0.0,0.0,0.0,0.0,0.0,0.0,0.0,0.0,0.0,0.0,-0.6813,-0.7527,-0.8491,-0.8249,-0.8529,-0.9449,-0.8663,-0.8269,-0.8269,-0.8269,-0.8269,-0.8269,-0.8269,-0.8269,-0.8269,-0.8269,-0.8269,-0.8269,-0.8269,-0.8269,-0.8269,-0.8269,-0.8219,-0.8204,-0.8624,-0.8442,-0.7988,-0.7988,-0.7988,-0.7988,-0.7988,-0.7988,-0.7988,-0.7988,-0.7988,-0.7988,-0.7988,-0.7988,-0.8333,-0.9657,-0.9998,-1.0435,-1.2188,-1.2576,-1.2958,-1.4268,-1.4555,-1.4806,-1.5635,-1.5912,-1.5979,-1.5979,-1.6306,-1.6683,-1.6827,-1.6941,-1.7001,-1.7001,-1.7001,-1.7198,-1.7648,-1.7698,-1.8239,-1.9617,-2.201,-2.3605,-2.4061,-2.5121,-2.5537,-2.5135,-2.4969,-2.4512,-2.3799,-2.3643,-2.3428,-2.3091,-2.3091,-2.3091,-2.3091,-2.3091,-2.3091,0.0,0.0,0.0,0.0,0.0,0.0,0.0,0.0,0.0,0.0,0.0,0.0,0.0,0.0,-0.1371,-0.2386,-0.3164,-0.3867,0.0,-0.5315,0.0,0.0,0.0,0.0,0.0,0.0,0.0,0.0,-0.63,0.0,0.0,0.0,-0.6817,-0.7695,-0.7135,-0.7257,-0.819,-0.7464,-0.7095,-0.7095,-0.7095,-0.7095,-0.7095,-0.7095,-0.7095,-0.7095,-0.7095,-0.7095,-0.7095,-0.7095,-0.7095,-0.7102,-0.72,-0.7377,-0.7691,-0.8426,-0.8398,-0.7988,-0.7988,-0.7988,-0.7988,-0.7988,-0.7988,-0.7988,-0.7988,-0.7988,-0.7988,-0.7988,-0.7988,-0.8187,-0.9069,-0.9266,-0.9608,-1.0925,-1.1219,-1.1604,-1.2909,-1.3536,-1.4118,-1.4949,-1.5486,-1.5784,-1.5784,-1.5985,-1.6213,-1.6506,-1.664,-1.6707,-1.6707,-1.6707,-1.6707,-1.6707,-1.6707,-1.7243,-1.8599,-2.05,-2.1867,-2.2399,-2.3453,-2.4214,-2.4441,-2.4374,-2.4315,-2.4258,-2.3945,-2.3652,-2.3369,-2.3169,-2.3091,-2.3091,-2.3091,-2.3091]}]]